GFSSGP_500_spd_000.txt.gz
Wind_Speed
21 22 25 23 23 19 15 13 16 18 13 14 15 17 19 16 16 15 11 16 16 16 15 16 19 20 18 18 17 17 18 18 16 16 16 16 15 15 16 17 15 13 13 10 7 7 9 8 8
20 22 23 23 24 20 17 14 15 13 16 12 14 18 20 21 19 16 12 13 18 20 20 20 20 20 18 17 17 17 18 16 15 15 15 16 16 15 14 13 11 10 9 9 10 10 10 9 7
20 19 18 22 21 22 21 16 14 14 13 13 12 14 21 20 18 19 16 15 18 19 20 20 19 17 15 16 16 15 16 15 13 14 15 12 12 10 9 10 9 9 8 10 11 11 10 8 8
24 19 16 18 19 19 19 18 14 13 11 11 14 13 15 17 20 19 17 15 17 18 17 16 15 14 14 13 14 14 14 13 11 11 10 10 9 9 10 11 11 9 9 9 9 10 9 5 5
21 25 17 11 19 20 19 17 17 12 10 7 13 14 14 15 18 18 16 13 15 16 15 14 13 13 12 12 13 12 11 10 9 9 10 10 8 9 9 11 12 8 7 7 9 8 7 6 3
20 23 22 23 23 21 18 16 16 15 9 6 10 16 12 11 15 16 15 13 12 14 13 11 12 11 11 12 12 11 10 9 12 11 9 8 9 9 8 8 8 7 5 5 8 7 6 4 2
11 17 20 24 22 20 21 21 16 15 12 4 4 12 11 7 5 11 11 10 9 7 7 6 6 8 8 10 10 8 8 9 11 9 8 8 11 9 9 9 7 6 3 3 5 5 5 3 1
15 20 21 24 22 17 19 19 17 13 12 10 7 4 9 7 6 6 7 5 3 2 4 4 6 6 7 8 8 7 8 10 11 10 9 9 11 12 11 10 9 7 4 2 3 4 5 6 4
13 16 18 20 19 17 18 16 15 14 11 9 8 7 7 7 5 6 7 5 4 5 5 6 8 9 11 11 10 7 9 8 9 9 8 8 9 9 8 9 9 8 7 6 6 6 7 8 8
13 14 12 13 13 12 16 15 13 10 8 10 7 6 5 5 3 5 7 5 4 4 7 9 10 11 10 8 7 7 7 7 8 9 8 8 8 8 7 7 8 8 10 10 11 10 9 9 9
12 11 7 7 11 11 13 13 12 10 10 11 7 5 4 5 3 3 5 5 6 9 10 12 11 10 9 8 7 7 6 8 8 9 8 6 6 7 9 10 11 12 11 10 10 11 10 8 7
12 7 8 9 11 15 13 11 10 11 9 10 6 6 6 5 5 7 8 9 11 12 13 12 11 11 11 9 9 8 8 7 7 7 6 6 6 7 9 12 13 13 12 10 9 8 8 8 8
11 6 7 9 11 12 12 11 11 12 8 8 8 6 8 8 8 9 10 11 13 14 14 13 10 11 11 9 9 8 7 8 7 7 7 6 7 7 8 9 11 13 12 10 11 11 10 10 11
13 8 6 9 10 13 14 14 12 10 10 9 7 7 8 9 9 11 14 14 14 15 13 13 12 11 9 8 9 8 9 9 8 7 8 8 6 7 7 8 10 12 13 13 12 12 11 11 10
12 11 9 11 14 17 14 13 13 9 10 10 7 7 8 9 9 9 11 11 12 12 12 11 10 8 6 6 7 7 8 8 7 6 6 7 7 6 5 6 7 9 10 11 12 13 13 12 13
15 18 10 10 15 16 15 12 11 10 8 9 8 4 6 6 7 6 7 9 10 9 9 9 7 8 6 4 3 3 5 5 7 5 7 6 5 7 8 7 7 8 9 10 11 12 13 15 15
15 13 20 12 14 15 16 14 11 5 5 6 6 5 3 5 5 7 8 7 8 8 7 6 6 6 5 4 2 2 1 3 4 3 4 4 5 6 8 8 9 9 9 11 11 13 14 16 17
11 17 21 15 9 12 13 10 7 10 7 9 3 2 3 2 4 4 7 9 9 8 7 8 7 5 4 3 2 1 1 2 4 5 3 5 7 9 10 10 11 11 11 12 13 14 14 16 18
13 15 20 18 18 13 8 4 4 7 9 11 2 4 3 2 2 5 6 7 8 9 9 9 7 6 5 4 3 2 3 5 6 7 7 7 8 9 11 11 12 13 13 14 15 15 14 15 18
17 21 25 19 15 11 9 7 1 2 7 9 6 1 4 5 2 6 6 6 7 7 8 10 10 9 7 6 5 4 4 5 6 7 9 9 10 12 14 15 16 16 17 17 16 15 13 14 16
20 21 25 17 14 15 13 15 5 3 4 7 9 7 3 3 6 10 10 8 9 11 11 11 10 10 10 8 8 7 6 7 9 10 12 13 15 16 16 18 18 18 18 17 18 18 18 17 17
27 14 21 23 21 20 19 17 11 6 6 4 8 7 3 4 5 5 12 12 11 12 13 12 12 13 13 11 11 12 12 12 14 17 19 19 21 21 21 19 18 17 18 19 19 20 19 19 20
26 21 21 23 29 31 26 25 12 15 14 3 4 11 11 8 9 11 10 15 18 16 15 15 17 17 16 16 16 17 19 21 24 26 23 23 25 25 23 21 19 18 18 18 19 20 20 21 23
27 36 32 34 37 39 26 23 13 13 7 7 9 12 12 12 15 17 17 14 20 20 18 19 21 22 20 19 21 23 27 30 27 23 22 24 26 27 24 22 19 19 18 18 20 21 23 24 25
38 40 43 42 42 43 31 29 9 11 9 5 6 12 12 15 14 14 10 13 17 20 20 21 22 24 24 26 26 24 23 24 26 23 21 22 25 25 25 22 20 21 19 19 22 24 26 27 28
41 42 46 47 44 41 37 32 9 11 11 10 11 11 14 11 15 13 10 12 21 21 22 22 21 21 19 19 20 20 20 18 19 19 21 25 26 26 25 22 22 23 23 23 24 26 26 29 31
49 48 46 47 46 45 44 41 28 18 16 14 13 13 11 13 17 10 10 12 15 19 21 23 19 16 18 19 19 19 20 19 19 21 22 23 26 27 25 23 21 23 25 26 26 27 28 30 33
57 50 50 53 52 50 49 43 34 23 22 20 18 19 21 19 18 9 10 12 13 17 16 14 13 16 19 21 23 24 25 25 26 28 26 25 26 25 25 25 25 26 27 29 28 27 28 31 34
64 62 58 55 55 52 48 47 37 33 31 27 23 26 15 21 16 8 12 8 9 15 15 11 10 12 16 20 24 28 29 32 31 31 30 30 28 26 25 27 27 27 28 29 26 25 26 31 33
58 63 59 58 58 57 51 46 39 31 27 26 25 26 21 22 18 15 13 14 7 5 4 6 9 13 15 17 20 25 25 35 30 31 33 34 33 31 28 29 29 30 29 29 27 26 28 33 36

GFSSGP_500_spd_003.txt.gz
Wind_Speed
18 20 13 14 17 15 12 19 19 13 11 12 14 14 16 18 16 14 12 11 10 12 15 19 23 21 21 21 20 19 18 16 17 16 16 16 17 15 13 11 9 11 10 9 9 9 10 10 10
16 14 17 12 20 21 18 16 13 14 13 11 14 14 17 17 17 14 11 12 15 18 19 20 21 20 19 19 17 15 16 14 14 14 15 15 14 11 11 9 8 8 11 11 9 8 9 10 10
18 14 13 17 17 18 20 18 16 12 11 11 13 15 17 18 17 16 14 14 16 17 19 18 17 15 15 14 13 12 11 12 12 13 12 10 9 10 10 9 7 7 9 10 10 8 8 9 9
22 14 13 16 17 18 18 17 16 14 11 11 13 15 13 16 19 18 16 15 16 17 16 15 14 12 12 12 12 12 12 12 10 10 9 9 9 11 12 10 8 7 8 10 9 8 6 6 7
23 22 16 14 15 17 15 16 14 14 12 10 13 14 13 12 16 16 15 12 13 14 14 13 13 12 12 12 11 11 11 10 9 10 10 8 8 10 11 11 7 7 8 9 9 7 6 5 4
20 21 19 16 16 17 17 14 15 14 10 11 12 15 12 11 13 14 12 11 9 12 12 9 9 10 11 11 10 10 10 11 10 9 7 7 7 10 10 8 5 5 6 6 6 7 6 5 2
17 20 20 20 20 18 17 15 15 16 14 8 8 13 13 9 7 10 11 9 7 6 5 5 6 9 9 8 9 10 11 11 10 9 10 15 13 12 10 8 6 4 4 5 5 4 4 4 2
18 18 21 19 19 17 15 15 15 15 15 12 5 7 12 9 4 2 6 6 2 2 4 5 8 10 9 9 12 11 12 12 10 10 11 13 12 12 12 11 10 9 6 5 5 6 4 3 2
19 17 18 16 15 14 15 14 15 14 14 12 10 9 6 10 6 5 4 2 1 2 4 6 8 11 12 10 11 10 11 11 11 11 11 10 10 11 10 10 9 9 9 7 8 8 7 6 6
20 15 14 13 12 11 14 12 11 11 12 13 9 10 5 9 6 4 6 6 5 3 6 10 12 12 11 9 9 9 9 10 10 10 9 9 9 9 10 10 10 11 11 10 9 8 7 7 7
14 12 9 11 8 11 12 13 10 10 10 13 11 9 7 8 6 4 5 4 5 7 10 11 11 11 10 8 7 7 7 8 9 8 8 8 8 9 11 11 12 12 12 12 11 11 10 9 8
15 10 11 11 10 10 12 13 11 9 10 12 11 8 9 8 9 8 7 9 10 11 12 12 12 10 10 9 7 7 6 7 8 7 8 7 8 8 10 11 12 12 11 12 12 12 11 10 10
13 9 12 11 12 11 12 14 12 10 8 11 11 7 10 11 10 8 9 11 12 12 13 12 12 10 9 9 8 7 7 7 7 6 6 6 6 6 8 10 11 12 12 13 14 13 12 12 12
13 9 11 10 13 13 13 14 14 12 10 7 11 8 9 11 11 11 11 12 13 13 13 12 11 9 8 9 8 7 7 6 6 6 5 6 6 6 6 8 9 10 12 12 12 12 12 11 11
17 13 11 12 15 16 14 14 15 14 10 9 7 9 8 11 14 14 14 14 15 14 13 12 10 8 7 6 7 7 6 6 5 6 6 5 4 4 5 5 6 9 10 10 10 10 11 11 10
18 17 15 15 19 17 14 14 14 12 10 9 7 5 7 7 11 13 13 12 13 12 11 10 8 7 5 3 4 4 3 4 5 3 4 4 4 6 7 5 6 7 9 9 9 9 10 12 11
21 19 18 21 21 17 15 11 11 10 9 7 8 6 4 5 6 8 10 11 11 9 9 8 8 9 7 5 2 3 2 1 4 3 4 6 7 9 11 11 10 9 9 8 8 8 9 11 12
20 17 19 21 17 19 17 13 13 13 11 4 4 7 5 2 2 3 5 7 9 9 10 10 9 9 9 8 5 2 3 2 2 3 4 6 7 8 10 10 11 12 12 11 12 11 11 13 13
20 20 21 19 20 19 17 14 12 10 10 7 2 4 7 5 3 1 1 5 8 10 10 11 11 10 7 6 4 4 4 5 5 5 6 6 8 8 9 11 13 14 14 14 13 12 13 14 16
24 27 24 24 23 19 18 15 15 12 8 7 4 4 4 5 3 2 3 4 8 11 13 12 11 11 9 8 7 6 6 6 6 6 8 9 10 11 13 14 15 16 15 14 14 12 13 14 15
25 25 31 25 25 22 18 17 17 14 12 9 3 1 3 6 7 7 7 8 8 10 12 13 13 11 11 11 9 7 8 9 10 11 12 14 16 16 16 18 18 17 15 14 13 13 14 14 13
20 25 32 32 31 24 24 19 17 14 13 11 5 1 3 6 9 8 11 12 12 12 13 14 14 14 14 13 12 11 12 14 16 18 20 25 24 20 20 20 20 17 15 14 13 13 13 13 13
26 23 34 31 31 31 29 27 23 19 17 16 10 4 4 7 8 8 9 10 12 16 16 16 16 17 17 16 16 17 18 20 22 25 28 23 22 22 21 21 20 19 17 17 16 14 14 13 15
36 31 31 36 37 41 33 32 25 16 12 17 15 11 11 11 11 10 10 14 16 17 20 20 19 19 19 20 21 21 23 27 27 24 24 24 22 21 21 22 24 22 20 18 16 16 16 17 18
47 43 41 39 41 43 31 31 10 14 13 20 16 13 14 17 14 13 13 10 16 18 22 25 24 22 20 21 24 25 21 20 22 22 21 21 22 21 22 24 25 23 21 18 17 18 19 20 20
54 49 48 44 41 36 34 29 16 11 18 19 19 19 24 18 13 13 15 17 13 16 19 25 26 23 21 24 21 20 21 18 18 18 19 22 24 26 24 24 24 23 23 22 20 21 24 24 22
60 58 46 45 46 40 42 35 24 16 20 21 19 20 19 11 11 17 19 21 14 15 19 26 30 26 26 21 17 18 20 21 22 21 23 25 27 26 27 25 25 25 25 25 23 24 27 27 24
61 57 55 52 54 56 52 43 27 22 19 22 23 18 15 13 16 21 22 17 13 12 15 20 17 15 13 11 14 17 19 21 21 24 26 28 27 25 25 26 28 28 28 27 25 28 28 28 25
70 67 64 59 56 54 52 48 31 26 22 22 24 24 21 19 19 24 21 13 13 14 10 9 10 8 5 8 10 12 17 21 20 23 34 24 27 31 30 26 26 28 28 29 29 29 28 30 27
72 69 64 64 60 58 56 49 39 30 26 26 20 19 24 20 21 23 19 19 17 14 5 6 4 5 8 12 13 17 21 22 32 34 30 37 32 24 33 31 30 29 29 31 32 31 30 29 28

GFSSGP_500_spd_006.txt.gz
Wind_Speed
12 10 9 11 15 15 14 16 15 16 17 13 11 12 17 20 15 12 12 13 10 15 17 16 17 19 19 22 20 19 17 15 14 15 14 13 11 9 7 8 10 10 9 8 8 10 11 11 10
12 11 7 12 18 15 17 13 11 10 11 11 13 13 18 15 16 13 11 12 11 15 17 16 17 18 19 18 16 14 12 13 13 14 12 10 9 7 5 6 9 9 10 9 8 9 9 9 9
15 11 13 16 13 15 12 13 14 14 11 8 9 13 16 18 16 13 12 12 13 14 15 15 15 15 16 16 13 11 12 12 12 12 8 7 7 8 6 6 8 9 8 8 8 8 8 9 8
15 15 13 17 13 12 12 11 11 13 12 11 11 12 13 13 16 15 13 14 13 13 14 13 12 13 12 12 12 11 12 11 10 8 7 7 7 6 5 6 9 9 7 8 8 7 6 8 7
20 15 16 13 13 11 11 12 10 12 11 12 12 11 12 12 15 15 14 13 12 12 12 12 11 11 11 11 11 11 11 9 9 9 7 6 7 7 5 5 7 8 8 8 6 7 6 5 5
20 20 10 11 13 14 12 8 10 10 10 10 10 12 11 10 11 12 13 11 10 10 8 7 8 10 11 12 12 11 10 9 8 9 9 9 8 8 5 4 4 4 6 7 7 6 5 4 3
20 16 13 11 12 13 14 13 10 12 13 9 9 12 11 9 5 6 10 10 8 5 5 6 8 9 11 11 12 11 11 10 11 12 13 14 11 9 7 6 5 4 4 5 5 4 3 2 2
19 17 13 12 10 12 12 13 13 12 14 12 5 7 12 11 7 4 7 6 3 3 4 7 8 9 11 13 13 12 11 11 11 10 10 10 10 10 10 10 9 10 7 7 7 6 4 3 2
18 13 6 7 10 11 13 12 12 12 14 13 9 5 7 12 9 5 4 4 4 4 6 7 9 12 13 12 12 11 11 10 10 9 9 9 11 11 12 11 11 10 7 6 5 7 6 5 4
16 13 5 10 10 11 11 11 11 11 11 11 10 9 6 11 10 7 6 6 5 4 6 11 13 12 11 11 10 10 10 9 9 9 8 10 11 12 12 12 13 13 13 12 11 10 8 8 8
15 14 7 9 10 9 9 9 9 9 9 11 8 12 11 11 10 6 4 3 4 5 9 11 11 10 9 8 8 8 8 9 8 8 9 10 11 13 14 13 14 14 14 14 13 13 12 12 12
15 12 12 10 10 11 9 8 9 8 7 10 10 5 13 11 11 9 8 9 9 10 11 11 10 9 9 8 7 7 8 8 8 8 8 8 10 12 12 12 13 14 14 14 15 15 14 13 13
16 12 13 12 12 13 11 10 8 8 6 8 11 9 9 13 12 11 12 12 13 13 13 12 10 10 8 7 8 7 8 7 7 6 6 6 8 8 9 10 12 12 12 13 13 12 11 10 11
18 15 15 14 13 13 13 11 11 8 7 7 10 10 9 11 13 12 12 11 12 12 12 11 10 9 8 7 7 7 7 6 5 5 5 5 6 6 7 7 8 8 9 10 11 11 11 11 11
19 14 16 17 17 15 16 12 10 10 10 7 7 8 8 10 12 13 14 14 13 12 10 10 8 6 5 4 5 5 6 7 6 5 5 4 3 4 4 5 6 6 7 8 8 9 10 10 10
19 15 12 19 20 17 17 8 10 9 10 10 7 6 7 8 10 10 11 12 12 11 9 8 7 5 4 2 2 2 2 3 3 3 2 3 4 4 5 4 5 6 7 7 8 11 12 13 12
22 15 15 19 22 20 16 12 10 10 8 8 10 8 6 8 10 10 10 10 10 9 10 9 8 9 7 5 3 4 3 1 2 3 3 2 4 4 5 6 7 9 9 8 9 11 13 14 13
22 20 18 19 20 20 17 15 12 11 11 7 9 10 9 5 7 9 10 10 11 10 10 10 9 9 9 9 7 5 3 2 0 3 3 5 5 7 6 7 9 10 10 11 10 13 13 13 13
20 20 18 23 22 21 19 16 13 12 11 10 7 7 10 9 6 6 7 9 10 11 12 12 11 10 9 8 7 4 4 4 4 6 4 6 7 10 11 11 12 13 14 12 12 13 12 12 13
25 25 22 21 27 26 21 20 19 14 12 11 10 6 6 6 7 7 7 7 10 12 12 12 12 12 12 11 9 8 6 5 6 6 7 7 10 13 15 15 15 15 15 14 13 13 11 11 13
30 28 25 24 29 29 26 25 22 19 17 14 12 9 7 7 9 9 8 9 9 10 12 13 13 13 13 13 10 8 8 8 8 10 11 12 16 22 23 22 19 18 17 17 15 15 14 13 13
35 30 27 28 32 30 30 21 21 20 18 16 13 10 8 8 10 11 11 13 13 13 12 13 13 14 14 12 12 13 13 13 14 15 16 19 24 22 21 21 21 19 18 19 18 18 18 15 15
33 30 37 30 32 29 30 29 23 27 22 15 12 11 9 7 7 12 11 11 12 14 14 14 15 16 16 16 16 17 17 18 20 21 23 26 23 21 20 21 20 19 18 18 18 18 20 18 16
36 35 37 37 33 37 32 32 25 22 14 17 18 18 15 12 11 11 12 10 15 17 17 18 18 19 18 18 18 20 21 21 23 25 22 20 19 19 19 20 21 21 21 19 17 19 20 20 19
45 42 36 38 39 35 33 37 32 23 21 21 19 22 20 21 21 17 14 13 7 14 22 22 23 21 20 20 20 19 19 22 21 21 20 18 18 19 20 22 24 23 21 19 18 20 24 23 21
49 49 41 38 35 33 34 36 30 27 28 24 24 26 22 25 21 15 13 12 10 12 14 18 18 21 22 21 22 22 25 19 19 20 20 21 21 22 25 27 27 28 24 22 22 24 26 25 25
56 59 44 34 33 33 29 36 33 27 29 27 20 26 26 27 23 12 14 12 14 17 14 16 19 21 20 21 25 24 20 17 18 17 18 19 20 23 25 27 28 27 28 25 25 27 29 29 27
64 54 54 48 44 40 35 29 23 27 25 24 23 23 24 24 16 15 16 18 17 11 14 16 16 18 19 19 16 14 11 12 15 18 20 20 25 22 29 30 29 31 32 30 27 27 28 29 27
62 64 62 49 47 43 40 38 29 26 30 31 22 26 25 24 19 19 20 24 22 18 12 14 15 15 14 12 9 9 13 16 17 16 16 25 32 25 37 30 28 29 27 30 32 30 30 29 28
50 56 57 59 60 49 46 38 26 30 32 29 27 21 27 29 28 24 22 26 27 22 14 14 14 12 11 10 9 12 13 12 14 19 21 28 30 38 35 26 41 40 32 37 33 32 35 32 30

GFSSGP_500_spd_009.txt.gz
Wind_Speed
10 11 13 9 12 16 12 10 8 8 7 6 9 15 13 17 16 14 11 12 11 14 14 11 9 13 14 15 16 16 15 15 14 11 9 7 6 6 5 6 6 6 5 5 8 8 7 9 7
10 14 9 9 15 10 5 6 11 9 11 8 10 10 13 11 13 10 9 11 13 15 15 15 15 16 16 15 14 14 12 11 11 11 8 6 4 4 3 5 4 5 7 8 8 9 7 7 6
10 11 17 19 8 7 7 7 8 8 8 9 9 11 10 8 10 11 12 11 12 13 14 14 14 14 14 12 11 10 9 9 9 8 6 4 4 2 3 4 4 5 7 7 7 7 6 5 4
13 16 18 10 5 7 4 6 6 5 8 7 7 7 5 6 7 11 10 11 12 12 11 12 11 11 11 10 10 10 8 8 7 5 4 4 4 3 4 4 6 6 8 6 4 4 5 5 3
22 29 16 3 4 5 5 7 7 5 5 7 8 6 8 6 8 10 10 11 11 11 11 9 8 8 8 9 10 8 7 7 6 5 4 5 5 4 5 5 6 8 8 6 4 3 2 3 3
21 18 14 4 2 4 4 5 7 8 8 9 8 7 8 8 9 10 11 11 11 10 8 6 6 8 9 9 9 8 7 8 8 7 7 6 6 5 3 3 3 6 6 6 5 4 2 1 1
18 18 8 3 2 3 4 5 5 8 9 8 7 7 9 9 7 8 11 11 8 6 6 7 8 9 9 10 9 9 9 10 11 11 11 10 8 6 6 6 4 3 4 3 3 2 1 1 1
20 14 2 8 4 1 5 6 8 8 8 8 7 6 9 11 8 7 7 6 4 5 7 9 8 8 10 11 11 11 10 10 10 11 11 11 10 10 8 7 7 6 5 5 5 3 2 1 1
24 24 5 4 14 6 8 8 8 9 10 10 10 6 5 11 10 7 6 3 4 5 7 8 10 11 12 11 10 10 10 9 10 11 13 13 12 11 11 10 10 8 7 8 6 6 6 6 5
14 20 13 13 12 6 6 7 7 7 8 8 9 8 5 11 12 9 6 5 5 5 7 11 13 12 11 10 9 8 9 9 11 13 13 14 13 14 14 15 14 13 12 12 12 11 11 11 10
7 8 14 6 12 7 8 7 7 6 6 7 6 9 9 9 11 9 6 5 7 9 12 12 11 11 10 9 9 7 8 10 11 12 13 13 13 13 13 13 14 13 13 14 14 13 13 12 12
12 7 4 6 10 9 7 9 7 7 6 8 8 7 12 12 12 12 10 10 10 12 12 11 10 10 9 9 9 8 8 9 10 10 10 11 11 11 11 10 13 17 11 13 13 12 12 11 11
13 11 8 9 8 7 12 10 8 7 6 8 9 9 10 13 12 11 10 10 13 13 12 11 9 8 8 9 9 9 8 8 7 6 7 9 9 9 8 8 10 10 8 10 10 10 9 8 8
12 11 11 10 8 13 13 10 7 7 6 6 6 8 8 11 11 12 12 12 14 13 12 10 9 8 8 8 8 8 8 5 5 3 4 6 7 6 5 5 5 6 6 6 7 8 8 10 10
22 15 10 12 11 15 14 10 7 7 7 5 5 6 7 12 13 14 14 15 15 13 11 10 9 7 7 6 6 5 5 6 4 3 3 3 3 4 3 3 4 5 6 6 7 8 8 10 11
21 16 11 12 16 17 15 8 6 7 7 7 7 6 7 10 13 12 12 12 12 11 10 9 8 6 4 3 2 2 2 3 3 3 3 2 2 3 4 4 4 6 7 8 9 10 12 13 13
24 17 12 20 20 18 15 13 10 9 8 8 8 7 7 8 10 11 11 11 10 8 8 8 7 5 5 3 2 3 3 2 2 2 2 1 2 2 3 5 7 9 11 11 11 13 13 14 14
21 18 16 17 23 23 19 11 19 12 10 10 9 8 9 8 8 9 9 10 9 8 8 7 7 7 8 7 7 6 4 2 1 1 3 3 1 4 4 6 8 10 12 14 14 15 14 14 14
19 17 18 18 23 26 19 16 15 14 12 11 10 9 9 10 9 9 9 9 10 10 10 10 10 9 8 7 6 3 3 4 4 5 4 5 6 8 9 11 13 13 14 16 16 15 14 14 14
25 23 20 16 30 21 19 16 17 17 13 12 13 12 10 8 8 9 10 11 12 13 12 12 11 10 9 9 8 7 7 6 6 7 8 8 9 11 16 18 17 17 16 16 16 17 15 15 15
30 27 23 21 27 18 22 19 21 24 17 16 15 13 13 11 9 9 9 11 12 12 13 13 11 11 11 10 10 9 9 9 9 10 12 12 14 17 22 19 17 18 19 17 16 18 17 17 17
33 29 26 24 33 25 25 21 28 23 24 20 18 15 14 12 12 12 12 13 13 14 12 12 12 13 12 11 12 13 11 12 14 15 17 19 20 22 22 20 19 18 20 18 18 18 19 20 19
35 28 28 27 30 25 25 27 22 24 23 24 19 15 15 16 17 16 15 15 13 14 14 15 13 15 15 14 14 14 14 16 18 21 22 23 24 21 20 19 19 19 20 21 21 21 19 19 20
34 31 31 30 31 34 31 32 26 30 24 27 22 20 20 19 19 19 17 12 14 16 16 17 17 18 19 18 16 16 17 19 20 22 24 21 21 20 19 19 20 21 22 23 24 24 23 20 21
44 37 35 36 38 39 29 37 27 27 26 22 21 20 24 23 21 20 18 17 15 12 15 18 19 19 21 20 19 19 19 20 21 24 22 21 20 21 22 24 24 25 25 24 25 26 25 24 23
51 46 43 41 35 35 32 36 34 31 24 20 21 22 20 33 26 23 17 18 16 14 13 13 15 20 21 22 22 21 21 21 24 21 20 20 19 18 20 25 24 29 32 30 25 26 26 26 27
46 54 43 36 31 34 32 32 30 29 31 32 30 24 25 32 24 23 14 14 10 11 14 15 17 17 19 20 21 20 21 23 19 18 16 15 17 19 26 29 29 32 35 32 38 29 27 28 31
51 43 48 49 46 40 34 32 29 33 36 31 31 27 23 25 28 26 21 16 14 14 15 13 15 19 19 20 21 22 20 18 15 14 17 16 11 22 18 27 30 34 29 30 35 34 29 30 29
46 56 48 46 47 45 40 35 32 28 25 27 28 21 24 24 26 24 19 15 16 19 18 16 16 18 19 18 19 18 17 13 14 13 10 16 13 20 22 30 32 30 35 36 36 36 33 33 32
38 43 54 48 53 49 45 39 29 33 28 27 28 30 21 22 28 27 26 24 20 20 20 24 19 17 17 19 21 18 14 13 12 11 17 19 17 19 25 28 28 24 28 22 22 25 37 39 34

GFSSGP_500_spd_012.txt.gz
Wind_Speed
11 11 9 7 14 11 6 4 4 3 6 1 4 10 14 12 13 15 12 10 9 11 9 11 12 11 13 15 13 12 12 11 10 8 7 4 3 4 6 7 8 9 6 4 6 7 7 7 6
12 7 2 10 25 17 7 7 7 7 8 4 4 11 11 12 8 10 9 11 14 13 13 15 14 14 13 12 11 11 11 9 8 7 4 2 2 4 6 7 9 9 6 4 5 7 7 5 6
15 3 2 20 22 21 7 2 2 4 3 4 3 11 8 6 8 12 13 13 15 15 14 13 13 12 11 10 10 10 8 7 6 4 1 1 2 5 7 9 9 7 6 5 6 4 5 5 5
3 21 16 26 17 16 6 3 3 2 4 1 2 4 5 5 8 12 12 13 13 12 10 11 10 10 9 9 9 9 8 6 5 2 2 3 4 5 8 11 9 7 6 6 5 4 2 2 3
6 15 22 17 7 8 4 3 4 3 4 1 2 3 4 6 9 12 11 12 12 11 9 7 8 8 8 8 7 8 7 6 4 2 3 3 4 6 9 9 8 8 8 7 5 4 2 1 1
21 20 22 6 10 4 6 1 2 4 6 2 3 3 6 7 10 12 12 12 11 8 6 6 8 8 7 6 7 9 9 8 6 6 6 6 7 6 6 6 5 5 5 6 5 5 3 2 0
17 26 14 6 15 8 7 5 3 5 7 5 4 4 7 9 9 10 12 11 7 5 6 7 7 7 6 8 9 10 9 10 10 10 11 10 9 8 8 7 6 4 3 3 2 2 2 3 3
9 14 4 7 3 10 6 7 8 7 3 5 6 5 7 11 11 10 9 6 5 4 6 7 7 6 8 9 10 10 10 11 11 11 11 11 10 9 9 8 6 4 4 4 5 5 6 6 5
6 11 7 4 10 18 9 5 6 3 6 4 8 5 1 7 11 10 7 3 4 5 7 8 8 9 10 9 10 10 10 11 11 12 13 13 14 14 12 10 9 11 9 10 10 10 11 8 7
5 19 16 9 5 14 4 12 6 5 6 8 10 9 7 7 8 8 7 4 6 7 8 10 10 11 10 10 10 10 11 12 12 13 13 16 6 13 12 14 15 15 18 15 12 14 12 12 12
6 9 14 7 6 11 5 16 8 5 6 7 5 8 8 7 7 9 8 7 7 8 12 12 11 9 9 9 9 11 12 12 12 13 14 14 14 9 13 9 13 7 13 15 11 14 14 12 13
12 2 9 7 7 10 2 16 8 4 7 5 7 8 8 7 6 8 9 9 10 13 13 11 10 10 10 9 10 11 11 11 12 11 10 13 12 9 15 12 13 10 17 1 9 12 10 10 10
10 11 4 8 12 9 8 17 16 7 8 7 7 7 6 6 7 8 6 10 14 15 13 12 11 11 11 10 10 10 9 10 9 9 9 9 11 8 13 8 8 7 7 8 11 11 9 9 9
9 13 12 9 10 15 10 20 16 10 11 9 6 6 6 9 10 9 11 14 15 15 13 13 13 11 11 10 9 7 6 6 7 6 7 7 7 5 5 5 5 5 7 9 9 7 8 9 11
19 16 18 17 14 16 14 16 20 11 10 9 6 4 4 8 11 10 13 15 15 13 12 12 11 10 9 8 8 7 4 4 4 5 5 3 4 3 4 4 6 7 8 8 8 9 10 10 12
21 18 17 11 16 17 13 20 18 12 6 6 6 4 4 9 11 13 12 13 12 11 10 10 9 7 6 5 5 5 5 4 3 3 2 2 2 2 3 3 5 6 9 9 11 11 11 12 11
24 18 18 9 20 18 10 27 24 14 7 6 6 5 4 8 11 12 13 13 11 10 8 7 5 3 2 2 2 2 2 2 2 3 2 1 0 3 3 6 7 7 10 12 13 13 15 15 16
22 18 17 16 14 19 20 24 25 21 13 10 7 7 8 9 11 12 12 12 10 9 7 6 4 2 3 3 3 3 1 2 3 2 1 2 1 3 4 6 9 12 13 14 14 15 15 15 17
21 16 15 18 23 19 23 28 20 14 7 13 9 8 8 9 11 12 10 9 9 8 7 5 4 4 4 4 2 2 2 2 2 1 2 3 5 7 8 10 15 16 16 16 17 14 15 16 16
27 24 22 18 27 21 20 23 22 15 12 18 13 12 11 9 10 10 9 10 9 8 7 8 8 7 6 4 4 5 5 4 5 5 6 7 9 11 14 18 19 18 17 18 18 17 16 15 17
34 30 22 19 21 18 16 19 18 21 22 20 17 15 14 13 12 11 10 10 9 10 12 11 9 9 8 7 7 6 6 6 7 8 10 12 14 17 19 21 20 20 19 20 20 20 20 17 17
32 32 25 22 29 30 28 30 28 25 21 21 22 15 15 14 13 12 11 11 11 12 12 12 13 12 11 10 10 9 8 9 10 11 14 16 19 20 20 19 18 19 19 19 19 19 22 23 21
32 29 28 26 26 28 23 28 25 28 28 25 19 18 18 19 17 16 16 16 16 15 15 16 15 13 14 14 13 12 11 13 13 14 17 18 19 18 19 18 19 19 22 23 24 24 24 25 25
33 31 29 31 29 35 33 34 24 34 24 29 35 24 18 18 15 18 19 20 21 21 17 15 16 18 17 17 16 17 17 15 15 17 16 19 18 17 14 15 17 18 18 20 23 24 25 26 26
40 36 35 36 37 38 28 34 27 29 29 33 40 32 16 24 23 20 19 18 16 16 17 16 17 19 19 19 20 20 19 17 18 19 19 19 16 13 11 15 17 19 24 28 30 30 24 23 24
39 39 45 41 38 33 31 38 31 32 39 46 5 10 22 25 27 23 22 17 13 16 14 18 16 19 22 23 22 22 21 20 20 19 20 14 9 11 13 12 14 19 24 25 24 26 27 28 24
35 44 41 37 32 34 32 32 30 30 36 34 18 28 23 21 29 29 21 18 15 10 10 13 14 17 18 19 21 21 20 21 20 19 14 9 6 8 11 14 18 22 16 29 27 30 32 29 26
39 31 41 47 46 44 36 34 34 29 39 37 29 24 25 26 31 37 27 23 18 14 11 12 14 14 15 16 17 20 20 20 20 13 7 5 3 8 13 16 18 22 20 19 26 27 29 26 17
39 43 45 39 49 49 43 40 30 28 32 38 42 33 25 31 36 35 26 26 18 17 14 13 14 17 18 17 18 20 22 19 13 8 5 8 13 11 13 16 19 18 22 25 28 29 29 26 29
37 39 44 52 48 50 47 45 24 27 30 34 41 35 32 31 26 32 30 24 23 19 16 13 14 19 19 17 16 16 17 14 9 7 8 12 9 9 13 17 19 22 22 25 26 30 34 32 32

GFSSGP_500_spd_015.txt.gz
Wind_Speed
9 10 11 9 11 11 9 3 2 3 3 4 6 8 14 11 15 16 11 11 14 13 11 13 16 16 16 13 11 10 11 9 8 8 7 7 7 5 6 8 6 7 8 9 7 8 8 9 9
8 11 7 21 12 17 9 10 4 3 3 3 8 10 16 9 11 12 11 13 15 15 14 16 15 14 13 10 10 10 10 8 7 7 5 6 5 4 7 7 7 8 9 8 7 8 7 7 7
7 12 5 10 18 11 13 9 6 5 5 5 5 11 9 14 10 15 15 14 15 15 14 14 14 12 10 9 9 10 8 6 5 5 5 5 4 7 9 8 9 9 8 7 7 7 7 5 5
5 4 7 17 19 20 14 8 7 5 2 5 7 8 8 10 11 15 14 13 14 13 12 12 12 11 9 8 10 9 7 5 5 4 5 5 6 8 9 9 10 10 9 8 8 7 5 3 3
9 18 3 22 23 21 14 7 6 4 1 4 4 7 9 10 14 15 13 12 13 11 9 10 10 10 9 10 10 8 7 6 5 5 6 6 7 7 9 11 9 9 9 10 9 6 3 1 1
5 16 16 19 14 14 8 11 7 9 7 2 5 8 7 11 15 13 14 13 9 8 9 9 9 9 9 10 10 9 9 9 9 10 9 9 8 9 8 8 7 8 9 9 7 6 4 3 2
13 17 16 15 2 10 12 9 6 9 5 1 4 8 4 10 14 15 15 11 8 7 9 9 9 9 10 11 11 11 12 13 13 11 10 11 11 10 11 11 10 9 9 8 8 7 6 5 6
12 1 8 17 14 10 17 20 10 14 1 4 3 8 4 8 11 12 10 6 4 7 9 9 10 10 13 12 12 12 13 13 11 11 13 12 10 10 13 11 11 11 9 11 10 7 6 7 7
10 7 4 16 10 11 14 17 17 12 5 5 3 6 7 7 8 11 8 3 2 7 10 11 12 13 13 12 13 13 13 13 12 15 14 12 13 17 13 14 17 16 15 16 15 15 12 11 11
2 9 11 11 8 12 11 13 12 13 8 7 5 4 5 6 7 6 5 2 5 8 11 14 13 13 13 13 13 14 14 13 12 14 13 10 16 16 13 16 16 18 16 14 14 12 16 12 11
12 11 14 8 5 12 15 20 11 14 12 7 3 2 3 6 7 6 5 4 6 10 13 14 13 10 12 13 14 14 15 13 12 13 11 12 13 10 13 16 15 15 13 8 13 14 15 13 11
16 10 8 12 20 15 18 16 10 8 14 10 8 4 4 7 7 6 9 9 10 13 15 12 11 11 11 14 14 13 14 12 10 11 13 11 9 9 7 14 13 11 11 10 11 12 13 10 10
20 8 10 14 19 17 21 28 16 16 13 10 8 6 1 9 7 8 7 10 12 14 13 12 13 13 13 13 13 12 10 10 9 9 10 9 10 10 8 11 12 9 8 11 9 11 12 11 10
20 14 5 3 12 19 19 20 17 15 18 9 9 7 3 8 9 7 9 10 12 12 13 14 13 14 13 12 10 9 8 8 7 6 7 8 7 7 7 7 6 7 10 12 13 12 10 9 10
19 22 20 13 15 18 25 25 17 16 17 10 7 8 6 2 10 8 11 16 14 12 14 14 13 12 12 11 9 8 8 8 7 5 3 4 5 5 5 6 8 11 13 13 12 11 10 10 10
23 25 25 20 10 15 23 23 21 17 13 13 6 6 5 4 8 11 13 13 16 13 13 13 12 12 10 9 8 8 7 7 6 4 3 3 4 4 5 6 7 8 9 11 13 13 14 14 11
28 21 17 16 18 21 23 17 16 19 16 19 10 6 2 6 10 12 12 14 14 14 12 10 8 7 8 8 7 5 4 5 5 5 3 2 2 3 4 6 7 9 10 12 12 13 14 15 16
23 20 17 17 9 15 20 18 12 17 24 20 12 6 4 9 11 12 10 11 11 11 11 10 7 5 5 3 3 3 4 5 5 3 2 1 2 4 6 7 10 13 15 15 15 14 15 14 16
19 23 18 11 14 26 26 22 13 18 25 21 12 7 5 7 11 11 11 10 9 7 6 6 6 2 1 3 2 3 4 4 5 4 2 3 4 6 9 12 16 17 17 16 16 16 17 17 15
24 22 20 20 21 28 29 25 13 13 15 20 13 7 5 7 9 10 10 10 9 7 6 5 3 3 3 4 3 2 3 3 3 2 1 5 8 11 14 16 19 18 18 18 17 16 17 17 17
26 27 22 26 16 33 24 16 23 15 24 23 11 5 3 7 8 11 12 11 10 9 9 6 6 6 6 5 5 4 6 5 4 3 5 7 9 13 15 15 15 15 15 14 15 15 15 16 18
27 26 24 30 23 32 22 20 19 26 24 21 8 2 6 6 8 8 8 9 9 10 8 8 9 9 8 8 9 8 8 9 6 5 6 10 12 13 14 14 11 12 12 14 15 18 19 18 18
22 28 31 33 29 26 25 38 34 27 23 20 20 6 8 8 8 10 11 12 12 12 12 13 11 10 12 11 11 11 12 11 10 9 8 8 13 11 12 11 10 12 12 13 17 20 22 22 20
27 32 36 37 29 33 26 26 32 31 25 27 17 13 23 6 12 8 11 13 15 16 16 16 17 15 15 14 15 15 15 15 14 12 10 11 13 8 8 8 7 9 14 19 21 23 25 26 21
33 37 40 47 43 43 35 35 30 12 24 26 25 23 33 23 9 14 9 15 17 15 16 14 14 18 18 17 16 17 17 17 16 14 12 11 7 4 7 9 11 13 15 15 20 25 29 31 22
30 41 46 50 50 47 39 41 31 15 16 22 28 34 32 34 25 10 11 12 13 12 12 13 14 16 18 18 21 19 20 18 19 16 12 7 5 5 6 8 8 9 13 15 20 24 27 33 29
32 36 35 46 44 47 46 37 23 25 23 26 27 31 31 26 21 16 8 11 16 15 12 13 11 11 17 18 19 20 22 20 20 15 9 3 6 5 5 9 11 15 15 16 18 20 23 28 28
35 29 32 41 48 52 41 44 32 22 28 31 30 31 33 27 22 14 10 19 21 19 14 15 9 10 9 11 14 16 17 19 16 10 5 2 3 7 11 9 10 11 14 17 19 19 22 25 27
35 39 42 36 43 45 46 49 34 29 23 35 31 34 38 39 34 25 16 27 18 19 21 20 12 11 11 12 10 11 13 13 9 6 5 7 6 5 9 9 11 10 14 19 24 21 27 27 30
36 39 40 48 41 47 50 46 34 32 26 28 34 29 30 36 31 25 24 29 20 22 20 17 12 11 13 12 10 8 6 3 6 7 8 5 5 5 6 10 13 15 17 26 30 29 30 32 32

GFSSGP_500_spd_018.txt.gz
Wind_Speed
9 3 5 10 7 13 8 8 8 8 7 11 9 15 14 12 13 14 10 13 15 14 14 14 13 15 13 11 11 9 8 7 7 7 6 7 9 9 7 7 8 6 7 8 8 8 8 9 11
6 3 13 17 19 11 12 13 15 9 9 10 11 17 12 9 11 13 12 13 14 15 15 15 14 15 13 11 9 8 7 7 7 6 5 7 8 7 7 6 7 8 7 7 6 6 8 8 7
6 7 18 28 20 17 13 13 13 12 12 12 14 10 11 11 9 15 15 13 14 15 15 14 13 13 11 10 8 6 6 5 4 4 6 8 8 9 9 8 7 6 7 6 5 4 5 8 7
5 2 15 25 23 16 14 17 14 10 10 9 9 10 7 8 12 17 14 14 15 15 13 12 13 12 10 8 7 6 5 3 4 6 6 8 10 10 10 10 8 8 7 5 4 4 4 4 4
6 3 21 12 18 16 15 17 14 6 9 7 6 9 7 7 14 17 14 13 14 13 11 11 11 11 10 9 8 5 5 6 6 6 7 10 9 9 10 10 9 8 7 8 8 7 6 5 5
5 7 14 7 15 18 22 15 13 8 6 8 8 11 7 9 14 14 16 13 10 11 11 10 10 11 11 9 8 8 8 8 10 11 12 10 11 12 13 11 9 8 9 8 7 7 9 9 7
6 7 14 8 10 17 19 11 12 10 6 5 6 11 7 7 11 15 13 9 8 8 10 11 11 12 11 10 11 11 11 12 13 12 13 13 15 18 16 12 12 12 10 10 12 12 11 10 9
11 7 5 10 8 11 19 16 17 7 9 3 1 7 11 8 9 12 9 5 4 7 10 12 12 13 12 12 13 12 12 12 12 13 13 15 17 19 16 16 18 12 14 15 16 15 14 14 16
6 5 11 6 9 11 14 20 17 8 7 5 1 3 6 10 9 9 7 2 2 7 11 13 14 14 13 13 13 12 13 14 15 15 15 19 19 18 20 21 17 16 16 15 16 16 15 16 17
6 10 16 8 14 17 14 18 15 12 11 6 4 6 7 11 10 9 6 2 5 9 12 14 14 14 13 14 14 14 13 14 15 11 13 17 17 15 20 17 15 14 15 15 15 15 13 14 14
17 17 20 21 21 22 18 15 11 17 11 5 6 5 4 12 12 9 8 5 7 13 14 15 15 14 14 15 14 14 14 13 13 12 14 13 17 16 14 15 17 13 16 10 12 13 12 13 14
16 16 20 17 5 21 20 13 17 11 5 4 4 4 6 8 12 10 9 8 10 16 15 14 14 14 15 15 14 13 13 11 12 12 14 12 12 13 13 15 12 12 11 11 12 12 11 10 10
11 10 17 8 8 16 20 21 18 9 10 7 8 5 5 8 8 9 8 10 14 17 15 14 14 14 14 14 14 13 12 12 12 11 11 12 13 11 9 11 10 10 10 11 11 10 9 8 9
18 12 15 10 9 15 14 21 24 20 15 10 10 6 5 5 10 11 11 13 16 14 14 15 14 14 14 12 11 11 9 10 11 11 10 8 8 6 6 9 8 10 8 7 8 8 9 11 12
27 17 14 13 11 26 19 16 21 16 11 13 11 8 5 6 9 10 13 16 16 14 15 15 13 13 12 11 9 9 9 8 8 7 7 7 5 7 7 8 7 8 7 9 10 10 11 13 12
27 24 13 14 13 11 17 17 14 16 11 18 18 13 9 3 10 10 14 15 15 15 15 14 13 13 11 10 9 10 10 7 7 5 4 4 4 7 6 7 8 9 11 11 11 12 13 12 11
30 24 18 20 18 10 21 24 20 18 10 12 15 15 9 1 8 12 13 16 15 17 15 15 14 13 13 10 9 9 9 9 6 5 4 5 5 6 6 7 8 12 13 13 13 15 15 14 12
27 20 17 19 21 19 22 18 19 13 15 19 6 12 8 3 11 15 16 17 15 15 14 13 11 10 9 8 6 6 7 7 5 3 3 4 4 5 7 8 11 15 16 15 15 14 14 14 14
25 24 16 21 24 22 24 20 23 16 12 12 9 5 7 2 9 13 14 16 15 13 10 9 9 7 7 7 6 6 7 7 5 4 2 3 4 5 8 11 15 16 14 13 13 13 14 12 12
24 25 25 25 24 21 18 24 29 25 10 7 3 6 7 5 5 8 11 12 14 12 10 8 6 6 6 5 4 6 6 6 6 3 2 1 4 7 10 12 13 13 10 9 12 13 15 17 14
25 27 25 25 23 23 21 29 34 27 19 8 3 4 8 8 6 7 9 11 11 12 12 11 8 5 5 7 6 5 6 6 6 4 2 2 6 9 9 10 12 12 13 13 15 18 20 20 20
26 23 26 31 30 24 24 30 33 31 19 12 4 4 9 11 11 3 4 5 7 7 7 8 9 9 8 7 7 7 6 7 6 4 5 6 7 10 9 11 11 12 12 14 14 17 20 22 21
22 27 30 33 30 30 32 32 22 25 19 11 9 5 8 12 12 8 4 4 4 5 6 7 6 6 6 8 9 9 10 9 8 9 8 9 10 12 12 12 9 9 9 10 11 14 19 22 22
24 33 37 37 37 45 34 27 28 31 20 12 12 11 12 13 12 9 7 5 3 7 10 11 12 12 10 10 12 12 12 11 12 12 12 11 12 13 13 10 7 7 10 13 18 19 19 21 21
28 36 40 46 52 50 41 42 27 23 18 14 7 10 11 15 19 17 10 9 8 10 13 15 17 16 15 13 13 16 15 15 15 14 14 13 16 14 10 5 6 7 9 10 14 14 14 19 21
31 35 43 49 52 47 44 50 32 18 17 10 8 13 14 14 23 13 13 15 13 9 13 13 15 15 16 16 15 17 19 18 18 15 15 15 16 12 7 3 3 6 8 9 11 13 16 20 20
29 40 35 44 47 52 46 49 39 27 25 18 17 22 14 14 11 21 21 25 10 1 5 10 12 11 11 15 16 17 19 21 21 17 17 17 14 8 4 6 8 9 9 8 12 14 17 20 22
35 28 37 41 48 54 49 51 40 33 25 19 20 22 19 20 17 18 11 10 8 5 5 11 10 10 9 9 11 14 20 21 19 17 18 17 12 8 5 9 8 7 7 9 12 15 17 20 20
38 39 40 40 38 44 44 40 40 32 29 24 27 20 22 23 19 14 16 21 22 16 5 12 14 14 11 12 10 10 15 17 15 18 18 16 12 7 7 8 9 10 9 10 11 15 20 22 25
46 41 41 42 40 38 33 30 24 36 37 35 23 18 23 21 21 20 17 22 23 13 11 12 14 14 11 12 10 9 12 14 16 19 19 17 12 9 8 10 10 12 12 12 14 15 19 22 22

GFSSGP_500_spd_021.txt.gz
Wind_Speed
5 4 3 7 9 13 11 10 11 11 10 14 14 14 15 15 14 14 13 15 13 11 10 10 12 10 10 9 10 9 7 7 5 7 8 9 9 9 8 7 7 7 7 7 8 7 5 5 7
2 10 8 16 18 19 16 15 17 15 13 16 17 11 12 11 12 15 13 9 12 15 13 13 12 11 11 9 10 8 6 6 8 9 9 10 10 8 6 7 7 6 7 6 7 6 5 4 5
2 9 22 20 17 18 16 14 15 16 14 12 11 11 10 11 13 15 15 10 11 13 13 12 11 11 11 9 8 5 5 7 8 9 10 10 10 9 8 8 8 7 7 6 6 6 5 6 5
10 8 19 22 19 20 15 15 12 14 12 9 10 12 8 9 15 16 14 13 12 12 11 11 10 9 10 8 6 5 6 7 8 10 9 10 10 10 10 10 12 12 10 8 8 8 7 5 4
12 12 19 18 22 19 15 14 12 10 9 8 8 9 9 8 12 16 15 14 13 11 10 8 8 8 9 7 6 7 7 8 10 10 10 11 10 9 9 10 11 11 10 11 10 9 9 6 7
8 4 9 20 19 18 18 14 11 8 8 6 7 9 7 8 12 14 14 11 7 10 10 8 9 9 9 8 8 8 10 11 12 12 13 12 11 10 11 11 10 11 12 12 11 9 9 9 10
11 9 6 16 21 20 18 10 11 13 9 6 3 9 10 6 9 14 12 8 6 6 11 9 9 9 10 10 11 13 13 13 13 14 13 13 11 13 14 14 17 17 17 17 16 15 17 14 12
7 11 5 9 16 18 18 14 14 13 8 5 4 3 8 9 8 11 8 5 2 6 9 10 10 10 12 13 13 14 14 14 15 14 15 14 16 17 17 20 22 20 20 20 18 18 18 17 16
6 2 8 10 12 14 17 22 20 10 7 3 6 5 4 9 9 11 7 2 2 6 10 10 11 12 13 13 13 15 15 16 17 16 17 16 18 18 19 19 20 17 17 19 19 17 18 17 17
7 13 11 10 16 18 16 22 21 14 6 2 3 4 5 7 8 9 7 2 4 8 11 11 12 13 14 14 14 14 13 14 16 15 16 14 15 17 16 15 18 16 15 16 14 14 14 13 13
8 9 7 10 16 17 16 20 18 17 12 8 4 3 8 8 9 9 8 4 6 12 12 13 12 14 16 15 14 14 13 13 14 13 15 18 13 14 15 16 14 13 13 13 13 12 12 12 12
13 16 11 7 6 13 17 17 12 20 13 9 4 2 4 9 14 16 13 10 12 14 15 14 13 15 16 15 15 13 12 14 14 15 12 12 12 12 13 12 14 12 11 12 12 12 13 13 12
24 22 13 10 7 4 14 16 11 16 13 13 10 6 1 8 12 8 11 10 14 16 16 13 14 16 15 15 14 13 12 13 14 13 14 13 9 9 9 10 11 9 8 9 9 11 12 11 10
28 26 16 7 4 9 9 16 15 14 13 12 19 11 6 3 8 9 10 11 17 15 15 15 14 15 15 14 14 13 12 11 11 10 10 10 9 8 8 8 9 9 9 11 11 10 9 7 7
23 18 10 6 7 13 8 11 18 14 11 16 18 16 9 1 8 10 11 16 17 16 16 15 15 15 13 12 13 12 13 11 10 8 9 8 9 9 6 7 7 8 11 11 11 10 10 7 5
24 21 13 10 16 16 11 5 16 15 14 17 17 11 8 3 13 13 13 15 17 16 15 15 14 14 12 11 11 11 12 11 10 8 7 7 8 6 4 4 7 11 12 11 11 11 10 8 8
30 21 18 16 17 15 11 5 12 12 12 15 15 8 4 2 12 14 16 16 16 18 16 13 13 15 13 11 12 11 11 9 7 7 7 5 5 4 4 4 7 10 12 10 11 10 10 10 8
21 19 20 16 18 19 13 5 8 6 8 11 7 6 3 2 10 17 17 17 16 15 15 12 12 13 12 10 8 8 6 6 5 5 5 5 4 2 2 4 9 12 12 11 12 12 13 14 14
23 22 23 22 26 23 15 10 5 5 6 4 4 4 3 3 8 13 16 18 16 13 13 13 13 11 9 9 8 9 10 8 6 5 5 5 4 1 5 8 11 11 11 13 15 16 17 16 15
26 23 24 24 29 27 23 20 10 10 3 10 5 1 3 6 9 9 11 12 13 14 14 12 11 10 9 9 8 9 9 8 7 5 4 2 1 4 8 11 12 13 13 13 15 16 17 20 21
27 24 26 23 33 31 28 24 15 12 8 10 7 5 4 7 11 12 11 12 14 12 11 13 13 11 9 9 8 7 8 8 7 6 4 3 6 7 9 13 12 13 13 13 12 15 19 22 21
29 22 30 32 37 39 39 32 26 15 8 11 7 7 5 5 11 14 14 13 13 14 14 12 12 10 9 8 8 8 7 9 8 7 6 6 7 10 14 13 12 13 11 10 12 13 18 24 22
21 29 31 37 41 41 44 39 29 21 16 10 10 10 5 6 7 13 16 16 14 13 15 15 12 9 7 8 9 10 10 9 9 10 10 10 10 14 16 13 12 9 7 10 12 15 13 20 20
19 33 35 42 45 52 41 42 27 24 13 13 19 11 8 7 6 6 8 14 15 13 11 9 10 11 10 10 10 10 12 11 12 13 12 12 13 16 15 14 8 7 9 10 11 15 14 14 16
27 39 43 50 54 45 43 45 21 28 19 21 17 12 9 9 9 10 10 15 15 14 12 9 10 12 14 14 13 13 13 12 14 14 13 15 16 18 15 12 7 6 7 9 12 12 13 14 16
28 34 45 49 50 46 42 47 23 22 21 21 19 17 17 13 8 15 12 11 19 20 17 13 10 11 13 15 18 17 15 14 16 16 16 16 18 19 16 9 7 8 11 11 10 11 13 15 15
31 38 31 46 49 50 44 42 33 31 26 23 24 21 19 14 7 8 6 19 28 24 16 12 5 6 9 13 18 18 18 17 18 18 18 19 20 20 15 11 9 8 9 10 10 11 11 14 16
38 28 37 43 48 50 41 39 29 31 31 29 28 23 18 17 12 8 3 5 4 8 13 14 7 7 9 10 12 16 18 19 20 20 21 23 22 19 16 12 9 10 11 9 10 12 12 14 16
41 41 42 42 44 41 38 31 31 28 32 30 30 24 20 15 13 11 9 7 14 13 12 14 9 7 8 10 11 11 15 16 18 18 24 24 22 19 17 14 10 11 12 12 12 14 13 14 16
46 44 45 46 39 36 36 34 24 31 27 35 31 34 28 24 23 17 17 18 19 14 15 16 14 11 12 13 13 12 14 14 16 21 24 23 21 21 18 15 12 12 12 12 15 14 12 12 15

GFSSGP_500_spd_024.txt.gz
Wind_Speed
3 7 4 5 10 13 13 12 12 12 15 17 16 16 15 14 16 13 16 18 13 10 9 11 12 8 8 8 9 9 11 11 10 9 10 12 12 11 10 11 10 10 9 8 8 8 9 10 10
0 4 3 16 16 16 17 17 16 13 13 16 16 12 12 15 17 15 17 11 8 10 11 13 9 7 8 8 9 11 10 10 10 11 13 14 13 13 12 12 12 11 11 9 7 9 8 6 7
2 5 19 19 15 12 16 17 16 16 14 10 9 12 10 12 15 14 13 11 11 10 13 9 8 7 8 9 10 10 9 10 12 13 15 15 14 14 14 14 13 12 12 10 8 7 7 6 8
16 11 24 21 17 15 14 13 17 14 10 9 8 8 9 8 13 14 12 12 10 10 10 9 7 6 8 9 10 9 10 10 12 15 15 13 14 13 13 14 14 13 12 11 10 9 8 7 7
20 17 16 14 12 13 13 13 14 12 11 10 9 9 9 7 11 14 14 13 11 10 8 8 7 7 8 10 10 10 10 12 15 15 12 12 12 11 11 11 12 13 13 12 12 11 10 9 7
15 22 19 15 10 11 10 9 10 11 11 9 9 10 9 7 7 11 12 11 7 7 8 7 7 8 10 10 10 10 13 16 16 14 12 13 12 10 9 11 13 14 15 16 16 14 12 10 11
14 19 21 17 15 10 12 12 11 11 12 9 6 8 11 8 5 9 8 6 5 4 8 8 9 11 11 12 13 14 17 16 16 15 14 14 12 11 16 19 20 19 21 21 19 18 19 17 16
13 13 14 15 15 15 10 14 13 11 9 9 8 6 6 11 7 8 6 4 3 5 7 9 11 12 12 14 14 16 17 16 15 16 18 17 18 19 20 21 21 22 21 21 19 18 17 17 16
9 13 14 15 19 20 14 10 12 13 10 9 8 6 6 9 10 8 5 3 3 6 7 10 12 13 13 14 15 16 17 16 17 19 19 19 19 19 19 21 21 21 20 17 16 14 13 14 14
8 16 11 10 15 20 20 13 12 14 13 8 5 4 5 6 8 9 5 2 4 8 10 11 12 14 14 14 16 16 17 17 19 17 18 17 17 16 16 15 17 17 16 14 13 12 11 12 12
10 13 13 12 14 13 21 16 12 18 17 14 7 2 5 8 7 9 9 4 1 8 11 13 12 14 15 16 16 15 14 16 16 19 17 15 15 17 15 14 15 16 15 14 14 12 11 11 12
17 13 16 15 15 14 13 16 14 18 18 15 12 7 3 7 12 13 13 8 6 10 12 13 14 15 15 15 15 15 15 16 17 14 15 14 14 13 14 13 14 14 13 12 11 11 11 12 13
22 19 17 20 16 14 13 11 17 19 18 21 22 18 9 5 8 10 11 9 7 12 15 13 15 16 14 14 14 15 15 16 14 14 12 11 12 11 12 12 12 12 12 9 9 9 9 9 8
23 22 18 16 8 8 11 16 14 20 17 19 21 13 9 4 4 4 8 11 12 14 14 15 16 16 15 13 12 14 15 14 13 12 10 9 10 10 10 10 10 10 10 10 9 8 7 8 7
27 24 21 14 5 3 12 15 16 14 18 15 17 14 8 3 5 8 10 13 16 14 14 15 18 17 15 15 13 11 11 12 12 11 9 8 9 9 9 9 9 10 10 9 8 8 7 7 7
31 28 23 17 13 2 17 11 12 14 13 15 14 11 6 1 8 10 11 14 15 14 16 16 17 16 14 14 13 12 10 9 10 9 7 7 6 7 7 7 7 9 11 11 9 8 7 6 5
31 27 24 19 14 6 11 12 14 15 10 14 12 9 5 1 11 10 12 17 16 18 17 18 18 16 14 14 15 14 12 11 9 9 8 7 6 3 4 4 8 11 12 10 10 10 9 8 7
19 24 21 18 15 12 13 14 17 15 10 11 10 7 4 1 9 13 17 19 17 18 18 16 16 15 13 12 13 14 12 10 10 10 7 6 4 2 2 5 10 11 13 12 11 10 11 11 10
19 21 25 23 21 15 10 17 17 15 16 10 6 2 2 2 8 12 16 18 18 17 15 15 15 16 14 13 12 11 12 11 10 8 6 4 1 2 4 7 10 11 12 12 12 14 14 15 15
22 23 24 25 24 19 16 19 20 13 10 12 9 2 7 6 12 16 15 14 16 17 16 15 14 14 13 10 10 11 10 10 8 7 5 3 2 5 8 10 12 13 12 12 12 14 15 18 21
23 20 24 26 28 28 22 19 22 16 12 9 15 10 11 9 11 14 16 18 16 13 11 10 11 11 11 11 10 10 9 10 9 7 5 5 4 6 9 12 12 12 10 10 11 13 19 21 22
24 19 27 31 34 35 31 27 26 19 13 12 15 14 13 13 13 12 14 14 14 14 13 10 9 9 9 11 11 10 9 8 9 9 7 7 7 8 11 12 11 11 8 8 10 15 17 21 21
16 24 27 32 38 38 38 32 25 24 14 18 17 16 16 15 15 15 14 15 15 13 12 13 13 13 12 13 13 11 11 11 11 11 10 9 9 10 12 13 12 10 6 8 11 14 13 15 18
21 31 35 37 43 47 33 35 25 24 17 20 21 20 19 18 16 16 14 13 13 16 14 12 12 13 13 15 16 15 14 12 12 12 11 11 11 13 13 13 12 10 7 7 10 14 11 11 11
27 33 41 45 48 35 35 38 16 22 19 18 24 20 16 17 18 16 10 3 5 10 11 11 11 11 13 14 16 17 16 15 15 13 13 13 12 13 12 13 14 9 7 9 10 11 11 11 11
26 34 39 39 39 35 39 28 10 21 23 24 26 22 24 23 21 19 10 5 7 8 10 12 11 14 18 19 19 21 20 18 17 15 15 15 15 13 13 14 14 9 10 9 9 10 11 10 9
33 33 30 40 41 41 41 23 29 22 26 27 30 27 28 22 18 15 16 10 10 13 8 10 11 13 15 17 21 21 23 21 19 19 17 18 17 16 13 16 16 12 10 8 8 10 11 10 8
39 32 37 42 43 39 36 25 24 19 23 25 25 31 30 27 23 19 15 13 10 18 14 11 9 12 14 14 14 18 21 21 22 23 20 20 21 20 14 16 18 15 9 8 8 11 13 15 15
39 41 43 43 41 38 35 24 22 19 20 30 27 31 31 29 29 26 22 15 17 20 17 14 12 13 14 12 13 14 16 19 22 23 22 24 25 22 17 17 19 17 11 9 8 10 14 15 13
48 44 46 46 37 35 32 24 21 17 20 25 34 33 31 31 28 26 25 22 22 20 18 16 16 14 14 15 16 14 15 14 17 17 21 27 26 24 21 20 21 18 14 12 10 11 17 11 13

GFSSGP_500_spd_027.txt.gz
Wind_Speed
2 7 5 11 12 15 14 13 14 17 17 16 16 14 14 15 15 17 16 17 16 12 9 10 10 8 8 8 10 10 10 12 12 13 12 14 15 15 14 15 14 14 13 12 10 9 10 11 11
1 3 9 13 14 13 12 15 16 16 15 16 13 12 10 14 16 16 19 14 10 9 13 11 7 8 8 8 10 10 12 12 13 14 16 16 17 15 15 15 14 13 12 11 9 8 9 8 8
2 4 16 17 16 14 14 15 17 18 16 12 10 9 10 11 14 16 15 11 11 10 13 8 7 8 8 9 10 11 11 13 14 16 16 17 17 16 15 16 14 12 11 10 8 7 7 7 6
9 21 19 15 15 15 15 15 19 15 13 10 10 8 9 11 12 13 13 14 11 10 9 9 8 8 8 9 10 11 12 14 15 16 16 16 17 17 17 16 14 13 11 9 9 8 7 5 4
18 15 20 14 13 10 13 15 12 11 11 10 10 8 10 10 9 12 13 13 11 9 8 8 9 9 8 9 11 12 13 15 15 16 15 15 15 16 16 14 13 13 12 11 11 9 9 10 9
19 16 12 12 11 12 9 10 9 9 10 9 10 10 10 8 8 10 11 10 7 8 9 8 10 9 8 11 12 15 15 15 15 16 15 15 14 14 15 15 15 16 16 15 14 14 15 13 14
20 17 13 10 10 8 10 12 12 11 12 11 8 11 14 11 6 10 9 7 6 5 8 10 11 10 11 14 16 17 16 18 17 16 16 17 18 19 18 20 19 20 19 21 20 19 17 15 16
17 15 12 11 13 13 11 14 11 10 11 10 11 8 8 12 9 8 7 7 5 6 8 10 11 12 14 16 17 17 18 18 17 17 19 20 21 21 21 21 20 19 19 18 18 16 14 14 13
14 14 9 6 6 13 16 14 11 11 12 10 9 7 8 7 12 8 6 7 6 8 9 10 11 13 15 17 17 17 19 20 20 21 21 21 20 20 20 19 18 16 16 16 15 14 12 12 12
14 14 11 9 6 9 13 16 15 14 14 10 8 8 9 8 8 6 3 4 4 9 11 11 11 13 16 18 18 18 20 20 20 20 19 20 20 17 16 15 15 15 14 14 13 12 12 12 11
20 18 14 12 8 7 10 13 17 18 14 11 8 9 10 9 8 8 5 2 4 9 12 12 12 13 16 17 18 18 19 17 18 18 18 17 15 14 15 14 14 13 13 12 11 10 10 10 11
23 22 17 15 12 9 9 7 13 22 19 16 14 6 9 11 11 10 8 4 2 11 13 13 14 15 16 15 15 16 17 18 18 16 16 16 14 14 14 13 12 11 11 9 8 7 7 8 9
21 23 19 17 15 11 9 8 14 16 19 15 12 9 6 10 12 11 10 8 5 12 15 15 16 15 15 14 14 15 17 16 18 16 15 15 14 13 13 12 12 11 10 8 7 5 5 5 5
23 26 21 17 15 11 11 9 10 11 12 12 11 9 6 8 11 13 12 13 12 14 15 16 17 15 16 13 13 15 15 14 15 14 13 13 12 11 11 11 12 9 7 5 5 6 5 5 5
24 24 24 23 14 11 13 13 10 8 6 9 10 8 6 6 12 13 13 16 17 17 16 17 18 17 16 14 15 14 13 13 12 11 11 12 11 10 9 8 8 8 8 6 7 7 7 7 5
27 23 24 25 8 9 16 16 10 9 6 4 9 8 4 5 10 12 13 15 17 17 16 16 18 17 17 16 15 14 13 12 11 10 10 10 9 7 6 6 7 10 10 9 8 7 7 6 6
27 23 24 25 17 10 19 19 13 12 9 6 9 7 5 6 12 12 14 17 18 18 17 18 19 18 17 16 14 14 12 11 10 10 9 7 6 4 3 5 8 11 9 8 9 8 9 8 7
21 24 26 26 22 17 22 20 19 16 14 10 8 9 6 4 12 13 16 19 18 18 18 18 18 17 15 14 14 13 12 11 10 10 8 6 4 1 3 6 10 10 9 8 7 8 8 9 10
18 26 31 29 28 23 22 24 22 19 18 15 11 8 8 5 10 14 15 18 18 19 16 15 16 14 13 15 15 14 12 11 11 10 8 5 2 2 6 9 10 10 9 9 9 11 11 11 12
24 24 31 35 31 25 23 29 27 21 17 15 15 15 9 9 9 13 18 18 17 20 19 17 17 15 14 12 11 11 12 10 11 9 7 4 2 5 8 11 10 9 9 8 9 11 15 17 14
25 23 27 31 33 31 25 31 30 25 22 16 13 13 14 17 13 15 18 20 20 20 19 18 17 16 14 13 11 11 12 15 13 10 8 4 1 4 8 10 10 9 9 8 10 13 16 18 19
25 22 28 31 36 36 30 32 37 34 26 18 16 16 19 19 16 16 19 20 20 20 20 18 16 14 14 12 12 10 9 10 11 10 8 5 3 3 6 8 10 8 8 9 11 12 13 15 17
18 28 28 31 35 38 34 33 36 36 28 18 15 17 19 19 20 19 18 19 19 18 18 18 17 16 14 14 15 12 11 12 11 12 11 9 6 5 5 8 12 9 7 7 8 11 10 10 12
24 32 35 36 38 42 32 31 40 35 26 22 21 19 21 21 21 21 23 23 20 19 18 16 16 16 16 15 16 16 17 16 14 14 14 12 10 9 6 7 11 9 7 5 8 9 8 7 7
28 34 39 38 40 30 30 37 18 34 27 24 23 21 22 23 22 20 16 16 15 15 16 16 16 14 14 15 16 17 18 17 17 17 17 17 15 12 8 7 11 10 6 5 6 7 8 8 7
29 31 32 33 28 34 33 19 11 26 30 26 26 26 27 28 26 23 20 18 18 16 14 13 11 11 14 17 18 20 20 19 19 20 20 20 18 16 10 10 11 11 8 6 4 5 6 8 8
33 30 26 36 36 35 25 17 13 17 27 26 30 30 29 28 28 29 24 21 21 18 12 14 14 14 14 19 24 25 24 23 22 22 22 21 20 18 14 13 12 11 9 8 4 4 6 9 10
38 32 36 36 36 34 24 19 10 14 21 26 30 30 28 25 25 27 24 22 21 20 17 19 18 14 15 15 19 22 24 25 24 24 23 23 23 21 18 16 15 12 11 11 6 5 6 9 12
41 41 39 39 38 33 24 16 12 11 18 27 32 31 31 27 25 25 26 25 20 20 23 19 19 17 14 13 16 17 17 20 22 22 25 26 27 25 22 19 19 15 14 11 7 6 8 10 15
44 44 43 44 37 32 30 27 19 12 18 26 32 33 36 35 34 30 29 26 26 27 25 22 20 17 16 16 18 16 17 15 15 18 22 25 29 29 27 22 22 20 17 13 11 9 9 12 10

GFSSGP_500_spd_030.txt.gz
Wind_Speed
3 8 9 11 12 14 14 13 14 14 16 19 17 17 17 12 17 15 15 17 12 11 8 8 9 9 9 10 11 11 12 12 12 13 14 15 16 17 17 16 14 14 13 12 11 10 10 9 7
2 2 8 12 10 10 10 15 18 17 16 16 14 12 12 15 13 15 15 15 11 8 7 8 7 8 9 10 10 10 11 12 13 14 15 15 16 16 16 16 14 13 12 12 9 8 7 5 3
6 6 11 13 12 12 12 16 16 17 17 15 12 11 11 11 13 15 16 13 9 11 10 7 6 8 9 9 10 10 12 13 15 16 16 16 16 15 14 14 13 13 11 11 8 6 6 3 3
12 16 16 13 13 13 14 16 17 15 14 11 11 9 10 13 16 14 14 15 11 11 7 6 6 9 9 9 9 11 12 14 16 17 19 18 18 16 14 14 13 12 11 10 8 7 5 5 5
16 17 14 11 13 11 11 14 14 10 11 10 11 9 11 11 10 12 14 13 11 8 8 7 8 9 9 9 9 13 13 15 17 18 18 17 17 16 15 15 15 13 12 11 10 9 9 10 8
16 16 14 7 9 10 11 11 9 9 9 9 10 12 12 9 10 10 12 11 8 7 9 9 9 9 8 9 12 15 15 16 19 19 17 15 16 16 17 17 16 16 16 16 15 16 16 16 15
14 13 10 10 10 8 13 13 11 9 9 8 7 9 13 11 8 10 10 8 7 6 10 11 11 9 9 12 14 15 16 19 20 19 18 19 19 20 20 20 20 19 19 17 16 15 15 15 15
14 12 9 7 11 12 13 15 13 12 10 11 11 7 12 13 11 9 8 8 8 8 9 11 11 11 12 14 16 17 18 19 20 20 21 21 21 22 21 19 19 17 15 14 14 13 13 13 14
16 11 8 6 6 7 10 12 11 12 12 12 12 11 11 12 13 11 10 9 9 9 10 11 11 13 14 16 17 18 20 21 21 21 21 21 20 20 19 17 15 14 13 12 12 12 12 12 13
18 16 12 8 7 10 11 11 12 15 15 13 12 13 13 12 14 10 9 9 9 10 11 11 12 14 15 17 18 20 20 20 20 20 21 21 19 18 15 14 13 12 11 10 11 11 11 12 12
18 24 18 12 9 8 10 10 13 15 15 12 13 13 15 14 14 10 7 8 8 11 12 13 13 14 16 18 19 20 20 18 17 18 18 16 15 14 13 12 12 11 10 9 11 11 11 10 10
21 20 18 15 12 11 11 11 15 17 17 16 16 16 15 17 15 14 10 7 8 12 13 14 15 16 16 17 19 18 16 17 15 16 15 14 14 13 11 10 9 8 7 7 9 9 8 9 9
21 22 18 15 13 12 12 13 15 17 17 15 14 14 16 16 15 12 11 10 8 13 15 15 17 17 16 16 17 17 16 17 15 14 13 13 13 12 10 9 9 8 8 6 5 5 6 5 7
24 22 20 18 16 13 12 12 14 12 13 14 14 10 13 17 17 17 16 15 12 15 16 17 18 17 16 15 16 18 16 16 15 14 13 12 11 11 10 8 7 7 5 3 4 3 3 4 5
29 26 23 21 18 13 12 12 11 9 7 8 10 10 8 13 17 19 18 20 18 18 18 19 18 18 16 15 16 17 15 15 14 13 13 13 11 11 8 6 6 6 5 3 5 5 3 2 2
31 29 27 26 21 16 15 14 12 11 8 7 10 11 9 12 14 15 18 19 19 20 19 19 18 18 17 16 16 15 13 12 11 11 12 10 9 9 4 5 6 7 6 6 5 4 4 4 5
32 26 27 31 28 22 17 19 17 13 12 11 11 10 9 11 14 16 17 19 20 22 20 19 19 18 17 16 15 14 13 11 10 10 10 8 6 5 3 5 7 7 7 6 6 6 7 7 7
29 29 30 33 32 20 24 22 20 18 16 14 12 12 11 13 16 17 18 20 21 19 21 21 20 18 17 15 14 13 13 12 10 10 8 6 5 4 4 7 7 7 8 9 8 10 9 7 7
28 30 28 32 35 27 24 26 24 23 21 17 13 13 14 16 18 17 18 22 21 20 18 19 19 16 13 14 15 14 13 12 11 10 8 7 4 4 6 7 5 6 7 7 7 9 12 11 6
26 23 27 35 37 33 25 30 28 27 22 18 20 19 17 20 19 18 20 20 20 21 20 19 18 17 15 14 15 12 11 11 11 11 8 6 5 6 7 6 7 7 7 7 9 11 15 14 11
31 30 30 35 38 36 34 30 34 30 28 20 20 17 18 18 23 22 22 24 22 22 20 20 20 18 16 14 13 12 12 12 13 11 7 5 4 5 6 6 7 7 5 6 8 10 13 13 16
31 29 33 36 44 41 36 33 31 33 32 28 20 18 15 17 19 22 22 22 23 24 23 22 22 20 16 14 13 14 14 13 13 10 10 8 4 1 2 4 8 9 6 5 6 9 8 10 13
24 35 36 35 41 41 41 38 37 37 39 30 21 20 21 17 20 23 22 23 25 26 24 22 21 20 17 16 17 15 14 14 15 16 14 11 7 4 3 3 5 9 7 5 7 7 8 9 10
31 36 36 38 38 45 38 37 36 40 39 30 26 25 21 19 22 24 26 27 24 22 22 21 20 20 19 19 17 15 16 15 16 17 15 11 9 8 7 7 4 6 6 2 3 5 7 8 7
35 37 41 43 43 39 32 37 26 46 39 34 30 26 22 19 24 25 24 24 23 22 20 20 19 18 18 18 17 17 17 16 17 17 16 15 14 12 9 9 9 6 6 4 1 3 5 6 7
35 35 33 38 37 36 33 26 21 32 39 39 35 30 28 26 25 27 25 25 24 22 21 20 19 19 19 19 19 20 20 19 19 18 18 18 17 14 12 13 13 10 7 6 3 1 2 5 4
35 36 26 36 34 30 22 22 21 20 33 41 37 35 30 27 26 25 27 27 27 25 23 21 20 19 19 20 23 24 23 21 20 20 21 20 19 18 16 16 15 15 11 7 7 3 1 1 3
41 29 40 37 36 29 24 21 15 16 28 36 36 34 29 25 27 28 29 28 27 26 25 25 24 23 21 23 22 24 25 25 23 22 21 21 22 21 19 19 18 17 16 11 9 7 4 3 2
47 44 41 36 32 28 22 18 14 16 25 34 36 34 29 27 24 28 30 27 25 25 25 22 23 23 22 19 17 17 19 21 23 22 22 22 25 23 22 23 22 20 18 16 12 11 7 5 4
49 43 40 40 33 29 23 19 16 14 23 34 38 36 34 31 29 28 33 30 25 25 26 25 21 24 20 18 15 14 16 17 17 19 22 25 25 26 26 27 26 25 21 20 16 14 10 8 7

GFSSGP_500_spd_033.txt.gz
Wind_Speed
5 7 11 12 12 11 9 9 11 10 14 12 16 13 14 10 11 8 9 7 2 7 12 11 12 12 12 11 10 10 11 12 11 11 11 12 13 14 14 12 12 11 11 11 11 9 7 7 5
2 7 8 11 8 7 8 12 12 12 15 12 12 15 13 11 9 10 10 8 5 1 10 11 10 10 10 10 9 9 10 11 11 11 11 11 12 13 13 13 12 10 10 10 7 6 6 6 5
4 9 9 8 7 3 10 11 10 12 13 12 11 9 8 8 9 10 9 9 4 5 6 7 7 8 8 8 8 9 11 12 12 12 12 12 12 12 12 12 11 10 9 8 7 6 6 6 7
9 10 11 12 11 6 10 12 11 11 11 9 8 8 6 6 10 10 9 7 6 7 5 5 6 7 6 7 9 10 13 13 14 15 15 13 13 12 12 11 11 10 10 9 8 8 7 7 8
12 13 9 10 5 9 10 12 12 10 8 7 7 6 7 6 9 8 9 8 11 5 5 5 6 6 6 7 9 12 14 15 15 15 15 14 13 14 13 13 13 12 12 12 12 12 13 14 15
15 15 10 13 8 9 10 12 11 8 8 6 6 6 8 6 8 9 10 8 7 5 5 6 7 6 7 9 12 14 14 15 16 15 14 14 15 16 16 16 17 17 16 16 15 16 15 15 16
18 5 21 1 2 8 10 11 11 9 8 8 7 8 11 11 9 12 10 9 7 6 6 7 7 8 8 11 14 15 16 16 16 16 18 18 19 19 20 20 20 18 16 15 15 14 14 14 15
19 11 12 5 7 11 7 12 11 10 9 10 11 10 13 13 11 10 9 10 10 8 8 7 7 9 11 13 16 18 18 19 19 20 21 21 21 19 18 18 16 15 14 13 12 13 14 15 16
14 10 11 5 7 11 6 10 10 10 11 12 13 10 11 13 13 12 10 10 11 10 10 8 9 11 13 16 16 18 20 20 21 21 21 17 17 17 16 14 12 12 12 11 11 12 13 14 15
14 17 17 13 13 2 8 11 12 14 14 15 15 12 13 12 16 13 12 12 12 12 11 10 10 13 15 16 18 20 21 20 20 21 21 13 14 16 13 12 11 11 11 11 12 12 11 13 12
14 11 18 15 8 6 6 8 12 13 15 15 14 12 15 14 16 13 10 10 12 13 14 12 12 13 15 16 18 20 18 19 19 19 20 10 13 13 10 10 10 10 11 13 4 13 12 10 13
20 18 14 15 10 7 3 9 8 13 18 17 16 15 14 17 16 15 12 10 11 13 14 14 14 15 15 16 18 18 16 16 17 13 13 12 11 11 15 6 7 8 8 9 12 9 9 11 10
21 23 18 15 12 11 9 10 9 13 16 17 16 16 15 14 14 14 13 11 10 14 14 15 16 17 17 18 15 14 14 13 13 13 12 12 10 9 9 7 6 5 7 7 7 7 8 9 9
23 24 22 18 15 13 11 9 10 11 14 13 14 14 16 18 17 17 18 16 12 15 16 17 18 18 16 16 15 14 14 11 11 10 9 9 8 8 7 6 4 5 5 5 4 5 5 6 6
31 24 22 19 17 15 14 13 13 12 12 11 11 12 14 18 19 20 20 20 15 17 18 18 19 18 17 16 16 14 13 11 9 9 8 8 7 7 6 3 5 5 4 4 4 4 4 4 5
31 28 25 21 19 15 14 9 12 14 13 11 10 12 12 15 20 20 18 20 18 18 19 19 20 18 17 18 17 15 12 11 9 8 8 7 6 4 3 3 4 4 4 4 5 6 5 6 6
34 30 28 23 21 18 17 12 14 18 15 14 10 11 12 13 14 15 18 20 20 20 20 20 19 19 17 18 17 14 13 11 10 9 8 6 4 2 2 2 3 4 4 5 6 6 6 6 6
34 32 25 25 26 27 21 16 14 16 17 16 13 12 13 14 15 16 20 21 22 21 21 21 19 18 18 17 16 15 13 12 11 10 8 5 3 2 1 2 3 6 7 8 9 10 8 7 7
32 26 27 23 25 27 27 21 20 19 22 19 17 12 13 14 17 18 19 21 22 21 21 21 20 18 18 18 17 17 14 11 9 8 7 6 5 4 2 4 5 7 7 9 11 12 13 10 8
32 31 28 29 31 26 26 27 23 21 24 24 22 17 16 14 19 20 20 21 21 22 23 22 21 19 20 20 19 16 14 12 10 10 8 7 6 4 3 5 5 6 7 8 11 11 16 17 15
36 33 29 30 29 32 31 28 25 24 25 30 25 20 15 15 18 19 20 23 22 22 22 23 22 22 20 18 17 17 15 15 14 13 10 9 8 4 3 5 6 7 7 6 9 10 12 13 16
36 33 34 31 31 33 34 33 30 29 26 28 28 26 18 16 19 20 19 22 23 25 25 24 24 23 19 18 18 18 17 15 13 11 10 10 7 3 1 2 5 6 7 6 7 8 9 8 10
28 37 38 38 36 33 35 34 29 27 27 31 33 29 24 18 20 19 22 24 26 26 25 24 25 23 21 20 18 16 15 14 14 15 14 10 8 5 4 2 3 5 6 5 6 6 8 7 7
31 37 41 41 42 45 39 37 35 31 29 29 31 31 25 21 21 22 23 26 26 25 24 22 21 22 21 20 19 17 17 15 16 17 15 11 8 7 6 5 5 5 3 2 5 3 5 5 6
39 37 41 45 47 46 35 38 29 29 31 31 30 30 27 24 23 27 26 24 24 23 24 22 23 22 21 20 19 18 18 17 17 16 15 14 12 10 9 8 6 6 8 1 4 3 2 3 5
40 38 39 43 42 35 33 39 28 30 29 33 30 31 30 29 24 26 25 26 26 25 24 22 21 21 19 18 17 18 17 17 17 17 17 16 14 12 11 12 10 8 8 8 3 5 3 1 1
41 42 30 22 21 24 24 26 23 28 34 34 33 38 32 30 24 25 26 27 28 27 26 24 22 20 18 18 17 17 17 17 18 20 21 19 16 14 14 13 13 12 10 10 9 8 6 4 2
46 33 41 41 24 25 22 21 24 16 21 26 35 37 35 34 24 26 28 28 28 27 26 25 23 20 20 21 20 19 19 20 22 23 21 21 19 17 16 15 14 14 14 12 11 11 9 9 6
47 48 43 36 37 24 19 13 19 25 17 28 34 40 40 37 31 25 27 29 29 29 27 24 23 23 23 21 20 19 19 20 22 22 24 24 23 19 17 17 17 18 17 17 14 14 13 12 10
44 46 42 41 36 33 19 18 25 23 20 28 35 40 42 38 33 23 26 31 31 29 28 26 24 24 23 22 22 18 18 15 12 13 17 20 21 21 20 19 20 20 20 20 18 16 15 16 14

GFSSGP_500_spd_036.txt.gz
Wind_Speed
10 7 8 9 13 10 6 11 18 5 9 12 11 10 8 4 3 2 5 17 9 14 11 12 9 13 13 11 10 10 9 9 9 9 8 8 10 12 13 12 11 10 10 9 9 10 9 7 5
8 5 4 3 14 9 11 9 4 6 12 8 11 7 6 4 2 3 6 6 8 8 10 10 9 12 11 11 9 9 9 9 8 8 7 9 10 11 11 10 10 9 8 8 9 9 8 8 9
7 5 5 4 6 5 9 7 7 7 8 4 6 6 5 4 3 4 2 2 6 8 9 9 9 10 9 10 9 9 10 10 9 9 9 11 11 11 9 10 9 8 8 10 10 10 10 8 7
7 9 6 12 10 10 12 12 7 7 6 5 3 3 3 3 4 3 2 1 4 6 7 6 8 9 8 9 9 10 11 11 11 12 13 12 12 12 10 11 11 10 11 11 11 13 14 13 11
10 12 7 15 11 5 5 5 5 6 6 3 1 3 2 2 6 5 5 4 5 4 5 5 8 8 7 9 10 11 11 12 13 13 14 15 16 13 13 13 13 13 14 15 16 16 16 16 16
11 7 28 12 5 3 4 5 7 6 6 4 4 5 5 5 6 6 6 5 5 5 3 5 8 8 8 10 12 12 11 12 13 14 15 17 17 17 18 18 18 18 18 17 16 16 16 17 18
15 9 15 18 3 4 4 4 6 10 9 6 7 7 7 7 7 8 7 5 5 5 4 4 7 11 10 12 12 12 12 12 14 18 17 18 21 21 20 19 18 16 15 15 15 16 17 18 20
15 13 10 14 4 3 3 8 10 9 10 9 8 7 7 7 8 9 7 7 7 6 6 5 9 12 12 12 13 13 13 15 20 22 21 20 21 21 18 15 14 13 15 15 14 15 17 18 19
17 3 10 16 3 9 8 7 7 11 11 12 10 10 8 8 10 9 7 7 8 8 8 7 11 14 13 14 14 15 16 19 21 21 19 22 16 20 15 13 13 13 14 15 15 15 15 18 18
15 6 11 19 10 7 10 9 10 11 12 11 11 11 9 8 11 10 9 8 9 10 9 9 11 14 15 15 15 17 16 20 19 20 15 17 17 16 14 13 12 13 15 14 16 14 13 18 17
15 7 7 5 9 6 8 13 12 11 12 10 11 10 8 8 10 12 9 7 9 10 11 11 12 14 15 16 17 17 15 16 14 11 12 12 11 13 12 10 12 13 13 10 12 9 11 11 14
16 14 11 13 8 6 11 4 14 8 8 10 11 11 9 10 12 12 9 8 8 10 11 12 13 14 16 17 18 15 14 13 10 11 7 13 15 6 5 11 14 12 12 9 8 9 12 13 15
19 8 11 3 11 15 10 4 12 12 9 9 12 13 12 10 13 13 10 7 6 10 11 13 14 15 17 17 17 15 12 11 6 8 12 9 10 10 11 9 10 10 10 9 8 10 11 14 12
16 18 8 5 11 13 8 5 8 13 7 6 8 10 12 14 15 14 13 11 9 11 11 13 15 15 17 17 16 14 12 10 8 5 7 8 9 8 9 10 10 9 9 9 12 12 11 10 9
22 26 28 20 20 13 10 11 9 17 11 11 8 8 10 14 15 17 16 14 12 12 13 13 15 15 15 16 15 15 11 9 8 6 4 5 6 6 6 7 7 8 8 10 10 9 8 7 7
31 32 26 23 20 18 12 8 9 12 14 12 11 9 10 12 15 18 17 16 16 13 15 14 15 15 16 18 16 15 12 9 7 7 6 5 4 2 5 7 8 8 8 8 8 8 7 5 4
36 33 28 20 21 17 13 13 19 23 21 18 11 9 9 9 13 15 17 17 19 15 16 16 16 15 17 18 17 15 13 10 8 8 7 6 4 3 4 6 7 8 9 8 8 11 8 6 3
30 30 25 23 22 17 15 13 24 11 27 18 16 10 8 8 12 13 16 18 21 19 18 19 18 17 16 18 16 14 12 9 8 8 7 5 4 3 4 6 8 8 8 10 11 10 10 8 4
29 28 28 20 18 24 15 18 21 14 28 11 29 14 12 12 12 13 14 16 21 20 20 20 19 18 16 18 17 14 11 9 8 7 6 6 4 4 5 6 8 10 11 13 12 13 16 15 10
31 28 25 21 23 25 23 25 22 22 23 17 22 24 15 13 11 12 13 15 18 21 22 21 21 20 19 18 18 15 12 10 8 7 6 6 5 4 6 7 7 9 9 11 13 12 15 17 16
36 34 28 24 23 30 26 26 26 26 24 22 27 28 17 12 12 10 14 14 18 20 22 22 22 22 22 20 17 15 13 12 11 10 8 7 6 6 5 5 6 7 6 8 10 10 10 12 15
36 35 32 30 27 32 23 26 31 29 24 34 24 34 24 13 14 10 15 14 17 20 22 23 22 23 23 20 18 17 17 14 9 9 11 10 7 5 4 4 6 6 5 6 8 7 7 7 8
31 32 38 37 33 35 36 35 31 33 34 31 24 33 20 20 17 12 17 18 19 20 21 23 22 23 22 20 21 20 16 13 11 13 13 11 7 4 1 2 4 5 4 2 4 5 5 4 7
25 29 32 37 36 44 41 35 32 35 31 24 31 29 23 27 14 16 20 20 18 20 21 22 21 21 21 22 20 18 17 15 15 14 12 10 7 4 3 2 3 4 4 3 3 3 4 3 4
35 34 35 40 47 51 38 45 39 31 30 27 22 30 29 29 20 19 21 20 19 19 19 20 20 20 22 22 20 18 16 15 14 12 11 10 9 8 6 6 3 4 6 5 5 3 4 2 1
40 38 39 43 45 38 37 39 27 32 32 25 26 31 27 31 24 14 16 20 21 21 22 22 21 20 20 19 17 17 15 13 13 11 12 11 11 10 10 9 7 5 5 5 5 6 5 4 3
44 45 35 30 23 26 30 28 20 25 36 38 32 33 33 32 27 17 13 17 22 22 20 21 22 21 19 19 18 17 16 14 15 16 15 14 13 12 12 13 11 8 8 8 7 6 8 8 7
47 36 38 39 30 25 16 22 24 20 32 38 38 35 36 32 33 23 9 17 21 23 22 23 24 21 20 20 18 16 14 14 15 14 15 17 17 17 15 16 14 11 11 11 10 8 8 10 10
49 44 41 36 35 23 14 15 17 24 23 29 32 33 38 37 34 29 11 14 21 26 25 24 22 20 18 18 18 17 15 14 15 16 17 19 19 19 18 18 16 15 13 12 12 12 11 12 12
48 48 44 42 39 34 21 15 23 23 22 24 28 31 40 36 34 33 18 16 23 25 25 23 22 20 22 23 21 18 14 14 12 12 12 11 12 13 15 16 17 17 17 16 15 15 13 13 13

GFSSGP_500_spd_039.txt.gz
Wind_Speed
7 7 7 7 12 8 11 12 7 7 2 10 9 5 4 5 7 9 11 15 12 13 12 9 9 9 9 10 10 10 10 10 10 10 9 9 11 11 11 11 10 10 10 10 9 8 7 7 4
8 6 6 7 6 6 13 8 7 6 3 4 3 4 2 2 7 8 11 6 8 12 9 9 11 10 9 10 11 11 10 10 10 9 10 10 12 11 11 10 9 9 10 9 8 8 7 8 10
6 6 2 2 7 12 7 9 4 4 8 5 2 1 1 5 5 4 6 5 8 10 8 10 12 11 9 10 10 11 11 11 10 12 12 12 12 12 12 11 10 10 9 10 11 11 10 11 9
7 5 5 7 15 13 11 5 6 6 7 8 6 2 3 5 4 3 4 3 5 8 8 10 11 10 9 10 10 12 12 11 13 15 14 13 13 13 13 12 12 11 13 15 16 15 14 13 11
7 8 7 14 12 9 9 7 4 4 5 2 3 3 3 2 4 3 3 2 5 6 8 8 10 9 10 11 12 12 11 12 15 17 17 15 15 15 15 15 15 17 17 17 16 16 15 16 15
9 8 12 5 12 17 7 5 3 4 1 1 2 2 1 1 2 2 3 3 4 4 8 6 9 10 11 11 13 12 11 14 17 18 17 17 18 18 20 21 19 17 16 15 15 17 19 20 22
10 7 20 15 14 14 6 0 3 8 2 3 3 2 3 3 3 3 4 4 2 4 8 6 7 12 12 13 13 12 12 18 20 18 19 20 20 20 20 20 19 17 15 16 17 18 20 21 24
10 12 2 16 21 15 5 5 4 2 2 4 4 3 3 3 4 5 4 2 3 6 8 7 9 13 13 11 13 12 17 21 20 20 20 20 18 17 17 18 19 17 17 16 16 17 19 21 21
15 12 16 11 18 14 8 7 7 11 5 5 4 3 4 4 5 5 4 2 3 8 9 9 11 13 12 12 14 18 21 21 21 20 17 16 13 15 19 17 17 19 17 17 16 17 17 19 20
11 4 9 8 19 19 11 12 12 4 3 4 5 4 4 5 5 6 5 4 5 8 10 11 12 13 13 13 18 21 21 20 21 15 11 12 12 14 20 18 15 16 13 15 15 15 16 18 17
10 8 5 13 11 7 5 5 7 2 4 2 4 4 3 4 4 5 5 2 4 7 10 12 13 13 14 15 18 22 19 15 14 10 11 11 10 14 16 18 16 16 13 15 14 14 14 16 16
11 12 8 6 7 4 10 14 7 12 4 4 4 4 6 5 4 4 5 5 5 6 9 11 13 12 14 16 18 20 18 13 10 15 9 8 11 12 13 17 15 14 13 12 13 10 11 11 11
14 13 6 15 10 8 5 4 10 4 6 4 5 5 6 4 4 6 5 3 4 7 9 11 13 13 15 16 16 17 16 11 8 10 8 11 12 14 14 18 15 14 11 12 10 9 8 10 8
19 15 12 9 7 1 5 9 12 9 7 8 7 6 4 4 5 8 8 7 5 9 10 11 13 13 14 15 16 14 13 11 9 8 9 10 13 15 16 17 14 12 10 10 11 8 9 10 9
24 19 21 11 7 5 3 13 18 3 5 9 8 8 5 6 5 9 9 9 7 9 11 12 13 14 15 13 14 13 12 10 10 8 6 9 12 13 12 14 12 11 8 10 10 7 7 7 7
29 28 26 20 9 10 11 15 19 8 8 2 6 7 6 3 7 6 8 9 10 9 13 15 14 14 14 13 15 12 10 9 7 7 6 8 9 9 10 12 12 9 8 9 8 7 6 5 6
35 33 30 26 25 17 21 13 12 20 11 13 3 7 7 2 1 4 8 9 12 13 14 16 14 13 13 15 15 13 9 8 7 6 7 6 6 9 11 10 12 9 9 9 11 13 11 6 3
29 31 27 30 19 21 18 14 16 27 16 16 6 5 7 7 8 1 5 12 13 17 17 18 16 14 14 15 14 12 9 7 7 5 5 6 7 9 11 10 12 12 10 13 15 15 15 12 6
31 34 29 24 24 20 13 14 24 23 22 17 30 6 10 9 11 8 3 8 15 20 18 19 19 16 15 16 16 13 10 8 7 5 4 4 6 8 10 8 8 10 14 13 14 17 20 19 12
36 34 27 23 21 21 19 16 17 26 25 26 16 14 2 9 11 12 4 3 16 23 21 20 19 19 18 19 17 14 11 10 9 8 6 4 6 7 7 8 8 9 10 12 14 13 19 22 14
35 35 27 25 23 21 24 18 29 35 32 32 25 14 3 5 10 11 6 5 13 18 19 19 20 20 20 21 18 14 11 11 10 8 6 6 7 7 6 7 6 6 7 9 11 11 12 16 15
31 33 31 27 29 25 31 40 29 31 39 31 27 23 14 9 12 6 6 8 11 17 18 18 18 20 20 19 18 16 15 13 10 9 9 8 8 7 5 6 5 5 6 7 9 8 9 8 9
27 33 35 32 38 34 31 32 23 25 40 31 27 34 20 20 13 4 6 11 12 15 17 18 19 20 20 19 18 17 15 12 12 12 11 9 7 6 4 4 4 5 5 6 5 6 7 5 6
28 33 36 38 46 50 41 31 32 31 27 29 30 24 24 16 7 6 7 11 12 16 15 16 17 19 18 19 18 17 15 14 14 12 10 9 8 5 3 2 3 4 3 3 5 5 5 3 4
35 35 37 43 55 51 46 44 40 31 34 26 27 27 27 16 6 6 11 9 13 16 18 16 17 15 17 19 18 17 16 16 14 11 11 10 8 6 3 1 0 1 2 3 3 4 5 5 3
37 35 38 40 47 46 47 48 39 41 35 30 30 31 29 22 16 10 10 10 14 17 19 18 18 20 19 18 17 16 14 14 12 11 11 11 10 8 7 6 5 4 3 3 4 4 5 6 6
39 45 36 34 32 38 41 41 38 32 35 37 33 37 37 26 20 8 9 9 15 18 19 18 19 19 21 21 18 14 13 13 13 13 11 10 10 11 11 10 10 9 7 5 4 5 6 8 8
46 34 39 39 36 34 24 13 20 23 30 40 42 40 34 21 26 9 8 9 11 15 19 19 21 20 22 20 19 17 16 14 13 11 12 13 14 13 14 14 12 11 11 9 7 5 6 8 9
50 46 40 36 38 31 23 9 3 16 10 10 38 34 24 29 33 11 12 7 4 12 17 18 20 21 18 17 18 18 16 15 13 12 13 16 16 15 15 17 14 12 12 12 11 10 8 9 10
44 49 45 44 38 32 19 21 16 23 17 18 15 36 36 34 33 21 13 12 8 10 15 19 18 17 19 20 19 17 15 13 11 10 11 12 12 10 11 14 14 14 16 14 14 15 14 13 12

GFSSGP_500_spd_042.txt.gz
Wind_Speed
7 6 4 7 12 10 13 10 10 14 7 14 10 8 12 12 10 12 14 11 7 9 10 10 9 8 8 9 9 10 11 10 10 10 9 9 9 9 10 11 10 9 9 7 6 5 5 4 2
8 6 6 7 5 6 14 9 7 12 9 7 10 5 9 7 10 15 10 6 7 9 10 9 9 9 9 10 11 12 11 11 11 10 11 10 9 10 10 10 9 8 8 7 5 5 3 4 4
6 7 2 2 8 12 10 10 8 11 9 7 10 7 7 6 9 8 7 8 6 8 10 10 10 10 10 11 13 12 12 10 11 11 12 11 11 11 11 10 9 9 10 9 10 11 9 7 4
8 4 2 1 12 14 17 10 12 10 10 10 8 7 5 4 9 7 7 8 5 8 9 10 10 11 11 12 13 13 11 11 12 13 12 12 12 12 11 12 13 15 15 13 12 12 11 8 4
8 5 3 8 15 16 16 17 17 10 7 9 8 4 4 4 5 5 6 6 6 8 9 8 10 11 12 13 13 13 12 13 15 14 14 13 13 13 15 18 18 16 14 14 14 15 16 12 10
7 4 9 10 16 16 10 13 12 8 7 5 3 3 3 4 4 4 5 6 4 7 9 7 9 11 13 13 14 12 14 17 17 16 16 16 17 19 19 17 16 16 15 15 18 20 20 20 15
4 6 9 11 15 14 23 17 11 9 3 2 2 2 2 2 1 4 5 5 5 6 9 7 9 13 14 13 13 14 19 19 19 20 19 20 18 17 15 16 15 15 15 17 19 20 22 23 20
5 19 5 4 13 14 16 15 8 4 2 1 2 3 2 2 0 1 4 3 5 8 8 8 10 13 14 14 14 19 22 22 20 21 20 19 17 13 12 15 17 17 16 18 19 19 21 22 21
11 4 2 8 7 11 12 10 7 4 2 4 4 2 3 2 1 2 2 2 4 7 8 9 11 13 14 15 18 22 25 24 22 20 17 16 16 14 15 12 16 18 17 16 18 18 19 19 18
14 5 2 10 9 12 11 5 7 6 3 4 3 2 3 1 1 0 2 3 5 7 8 10 11 13 14 17 21 24 25 20 19 17 16 16 16 13 13 11 11 12 16 16 16 16 17 18 16
12 12 16 18 17 13 7 12 4 6 6 6 4 3 3 2 3 1 3 2 5 7 9 11 12 14 17 19 22 25 23 17 15 16 15 13 13 12 12 12 10 11 12 13 12 14 16 15 15
15 14 13 16 16 8 3 21 11 13 11 7 4 4 3 3 4 3 4 4 6 6 9 11 13 14 18 19 22 21 17 12 14 9 7 15 10 11 11 11 9 12 13 13 11 11 14 14 14
13 14 20 6 5 5 6 12 5 8 13 6 4 3 3 5 7 3 4 3 5 7 9 12 13 14 18 18 20 18 16 13 13 11 10 12 11 11 11 10 11 12 14 13 14 12 11 12 9
20 22 21 6 4 8 16 16 14 15 13 7 7 6 3 2 7 8 5 5 5 9 10 12 13 14 17 18 19 18 13 14 12 12 10 10 11 13 12 13 13 14 11 10 9 9 10 10 10
26 29 26 14 11 12 14 11 13 5 9 7 9 9 5 1 5 11 12 9 6 9 11 13 13 14 15 15 17 17 17 17 11 9 9 9 11 11 11 10 10 10 9 8 7 6 3 7 11
31 31 25 20 17 16 13 9 8 8 10 7 9 5 6 2 1 5 11 12 9 9 13 13 14 15 14 14 15 15 15 16 11 8 8 9 11 10 10 9 11 9 9 10 9 7 4 6 9
35 28 26 25 19 14 18 14 10 12 5 6 8 3 5 6 3 2 9 15 15 12 13 15 15 16 14 13 13 13 12 13 11 10 8 8 10 10 11 9 10 10 10 13 14 10 7 5 8
33 29 29 25 23 20 18 18 18 12 6 1 11 4 2 1 4 3 7 13 18 17 16 18 18 16 15 14 15 13 12 13 11 10 9 10 10 8 10 10 12 14 16 16 14 15 11 10 11
36 34 27 26 26 22 22 26 20 13 9 7 5 8 3 6 1 3 6 11 17 20 18 19 18 17 17 17 16 14 12 10 9 7 9 9 10 8 10 10 12 13 16 15 14 18 13 15 14
38 36 29 29 25 25 21 24 20 21 12 10 5 8 8 5 4 4 6 8 15 23 21 21 21 19 20 19 16 14 12 9 8 8 8 8 8 8 8 9 10 12 14 14 13 17 16 15 16
36 38 33 25 30 29 28 23 24 24 18 10 10 2 4 7 10 5 8 8 14 20 21 22 21 20 20 19 16 12 10 10 9 8 7 7 7 6 7 9 9 10 11 12 12 12 12 15 16
35 30 35 30 37 37 32 31 36 29 26 14 12 9 7 10 10 9 9 11 12 18 19 20 20 20 19 18 16 15 13 11 8 8 8 7 7 5 6 6 8 8 8 9 9 10 9 8 9
26 34 38 31 40 41 42 40 37 29 28 15 8 9 9 2 12 9 9 13 15 16 19 20 20 20 19 19 18 16 13 10 9 9 7 8 8 6 4 4 4 6 5 6 7 8 9 8 7
34 37 41 40 47 52 45 41 36 36 30 20 14 9 5 7 8 6 4 14 14 16 18 19 18 18 19 19 18 16 14 13 12 10 8 9 7 5 4 2 2 4 4 4 5 6 7 6 5
41 41 46 51 57 58 43 47 38 35 27 22 17 11 11 15 6 11 4 10 11 13 16 18 19 17 18 18 18 17 16 16 14 11 10 9 7 5 4 2 1 3 5 5 4 4 4 4 2
42 46 47 50 52 45 42 51 36 37 31 31 22 16 16 16 11 8 4 6 12 13 16 18 20 20 18 20 20 18 17 17 16 14 12 12 10 8 6 4 3 1 2 4 5 6 5 3 3
42 49 39 42 46 46 47 45 40 36 38 36 29 34 26 26 13 8 7 5 12 16 17 19 21 22 20 20 20 19 19 17 17 17 15 14 13 11 9 8 7 6 6 6 6 7 7 6 6
47 39 41 45 44 47 43 41 41 36 29 24 34 31 21 23 23 10 12 5 11 17 19 20 20 21 22 22 22 21 19 20 19 17 15 14 12 12 11 13 11 10 10 9 9 10 11 10 8
52 50 45 40 43 43 34 32 22 29 34 35 34 39 33 24 16 16 9 9 10 18 19 20 20 21 20 20 22 22 19 18 17 15 13 13 13 13 15 16 15 13 13 13 11 11 13 13 10
47 52 47 43 45 39 29 27 35 33 31 33 27 48 43 28 23 19 13 13 14 14 20 20 19 20 21 23 23 22 21 19 17 14 11 11 13 15 16 17 16 16 15 13 14 13 13 15 15

GFSSGP_500_spd_045.txt.gz
Wind_Speed
6 2 1 2 10 13 9 7 5 8 6 10 9 15 13 16 18 13 9 8 3 5 6 6 7 7 7 9 10 11 11 10 10 10 10 10 10 9 10 10 9 8 8 6 7 6 4 2 1
5 6 7 2 5 11 12 8 9 7 12 9 9 9 12 15 16 15 9 4 4 4 7 7 7 7 8 9 10 10 10 10 9 9 8 10 9 8 8 8 8 9 9 8 8 6 2 2 2
4 1 2 4 9 4 18 18 17 10 10 8 9 10 11 14 13 10 8 7 4 4 9 7 8 7 9 10 11 10 10 9 9 9 10 10 9 8 9 9 9 9 11 10 8 6 4 4 5
5 6 4 1 9 12 12 21 18 19 14 9 9 8 9 8 9 10 9 9 5 5 9 8 8 8 10 11 11 11 10 9 10 10 10 10 9 9 10 10 11 11 10 10 10 10 7 3 9
9 6 8 8 9 14 15 18 19 18 17 11 9 6 9 9 6 7 9 9 8 8 8 8 8 9 11 12 13 12 11 10 11 13 11 10 10 11 12 13 11 10 12 12 13 14 10 8 14
7 6 5 7 16 14 17 22 18 16 15 10 8 6 8 7 7 5 7 8 7 10 9 8 9 11 13 13 14 11 12 13 13 15 14 13 15 15 14 12 11 11 14 17 17 17 19 15 16
7 6 7 4 13 15 9 10 12 12 10 10 8 6 5 7 3 2 6 6 6 7 10 8 10 12 14 14 13 15 15 16 17 19 20 17 17 16 13 12 11 13 15 18 18 19 21 19 18
6 10 0 7 17 18 16 7 12 9 10 10 6 5 5 7 5 1 3 3 6 7 8 10 11 14 14 14 15 18 18 18 20 20 20 15 17 16 14 12 13 14 14 16 18 20 21 21 19
9 5 8 10 11 19 13 7 12 8 9 12 8 7 5 6 8 4 3 3 6 6 8 11 13 14 14 15 19 21 19 20 20 19 17 15 15 16 15 14 14 12 12 14 17 19 21 17 14
17 4 9 10 14 17 7 5 7 8 10 10 8 9 9 7 7 4 3 5 7 8 9 11 14 15 16 19 21 23 20 18 18 17 16 14 13 13 14 9 12 10 11 13 16 18 19 17 14
16 13 11 17 16 16 12 8 8 5 10 11 10 11 12 9 7 3 2 3 7 8 11 12 13 15 20 23 24 24 20 16 20 17 14 13 13 12 13 9 9 9 9 12 12 14 18 17 15
15 8 12 14 17 12 11 13 15 9 7 10 11 11 10 11 9 7 5 6 7 8 10 13 14 18 21 23 24 18 17 13 14 14 11 10 10 11 11 10 11 10 8 11 12 11 13 15 15
15 17 11 8 7 4 18 11 12 15 10 10 9 8 10 12 10 7 5 5 7 9 11 14 16 19 22 23 21 14 15 14 14 11 5 8 8 11 12 11 10 9 10 11 12 11 11 13 14
22 19 16 17 12 12 16 12 14 18 14 13 11 10 7 11 12 11 8 6 7 9 12 14 17 18 21 21 21 15 14 13 14 14 12 7 8 12 11 10 9 10 9 7 8 10 9 10 12
28 24 22 22 14 22 22 15 17 19 16 12 9 9 10 8 11 10 11 8 7 10 13 14 18 19 19 21 18 17 16 15 13 13 10 6 8 10 10 10 9 8 6 5 4 7 8 6 9
30 29 27 28 21 19 19 20 16 12 16 11 8 8 5 8 7 9 12 13 9 9 13 15 19 20 18 17 16 16 16 15 14 12 8 6 7 9 10 8 8 6 8 8 6 6 10 8 9
37 29 26 30 27 28 22 18 18 13 15 12 11 10 8 5 5 7 12 17 16 13 14 17 19 21 19 18 17 16 15 12 13 11 8 7 7 10 9 9 7 8 11 14 11 9 12 12 11
33 29 28 28 23 29 25 22 17 16 14 13 11 8 4 3 2 6 11 16 20 18 19 19 22 22 18 17 18 14 12 11 9 7 6 8 7 8 8 10 12 12 15 19 16 14 14 14 11
33 33 29 26 29 33 26 27 17 17 16 13 14 4 6 4 6 4 10 16 19 23 20 21 21 20 18 19 18 16 13 10 9 7 7 8 7 8 8 10 14 14 16 20 19 16 17 13 10
36 36 29 26 34 37 33 29 28 24 15 16 12 11 13 8 8 9 7 13 19 23 25 24 22 22 22 21 21 17 15 13 11 10 8 8 6 8 9 10 12 14 15 18 18 16 15 12 13
37 36 31 24 34 34 34 32 32 27 29 25 18 19 15 8 3 9 4 11 19 21 24 24 22 22 22 21 19 16 14 14 13 11 11 9 7 7 8 10 11 12 13 16 17 13 13 11 13
38 27 32 32 37 37 37 35 31 30 26 23 25 20 16 6 2 6 3 8 14 23 26 26 25 23 23 21 20 19 18 14 12 11 10 9 7 6 7 7 9 9 11 12 13 10 9 8 6
26 33 35 37 40 40 42 43 37 39 31 29 23 21 18 8 2 4 3 6 9 20 26 24 24 24 24 23 22 21 17 12 11 10 9 8 7 4 4 6 6 7 8 9 9 6 7 7 7
35 36 39 43 46 54 45 49 46 40 18 25 22 22 20 14 5 3 2 5 12 18 23 23 24 22 23 25 22 18 17 14 12 11 11 9 8 5 2 4 4 6 7 6 5 4 5 6 5
45 47 46 51 58 59 44 54 43 33 27 24 26 18 20 13 10 6 4 3 14 18 22 21 22 22 22 23 22 19 17 17 14 11 11 10 9 6 3 0 1 3 5 5 5 4 4 4 3
52 52 56 56 57 55 44 57 40 31 30 30 31 28 20 14 11 8 9 6 14 19 22 23 23 23 23 23 22 20 17 17 15 14 13 10 8 7 5 4 2 2 2 3 4 7 7 6 3
53 57 48 50 52 50 49 53 35 39 37 37 34 31 33 26 17 11 13 8 8 20 23 25 24 24 25 25 24 21 19 17 16 17 15 13 10 9 8 8 8 6 7 6 5 7 7 7 8
51 49 50 54 53 56 52 53 38 40 35 36 33 24 24 28 27 21 17 15 6 18 23 26 25 25 25 23 22 22 20 21 18 17 16 14 13 12 11 11 11 10 10 10 8 8 8 8 8
55 56 53 47 51 50 47 44 33 34 36 31 27 16 20 28 23 25 21 15 10 16 24 25 25 25 23 20 22 24 23 21 18 17 16 15 13 13 14 16 16 15 14 13 12 12 10 9 9
59 58 54 54 54 53 49 39 33 33 37 36 33 27 22 26 21 21 24 21 16 10 23 25 26 23 22 23 25 26 24 20 18 17 16 14 13 13 17 17 17 16 15 17 15 13 12 11 11

GFSSGP_500_spd_048.txt.gz
Wind_Speed
3 1 2 2 6 11 6 9 8 11 17 15 10 11 10 16 15 11 9 6 5 4 7 9 7 7 9 10 11 11 12 11 11 13 12 11 11 12 11 10 8 7 7 6 5 5 5 4 5
2 4 6 6 6 9 10 12 14 13 14 14 13 11 13 15 17 12 10 5 5 4 8 9 7 8 10 13 13 12 12 12 13 14 11 11 11 9 10 10 9 8 8 8 7 5 3 6 6
3 2 5 9 9 6 14 15 14 15 13 14 12 12 14 13 12 9 8 8 5 5 8 9 7 9 11 12 13 13 11 12 13 13 12 11 10 10 11 11 11 10 10 8 7 4 3 7 10
5 3 3 8 3 5 13 19 18 16 14 12 12 11 13 12 9 9 9 7 6 6 7 8 7 9 11 11 13 13 12 13 13 12 12 12 13 12 13 14 13 14 14 12 10 7 6 10 14
8 6 5 7 6 7 5 24 19 16 13 10 11 8 9 10 8 8 8 7 8 8 7 8 7 9 11 10 12 12 12 13 11 12 14 13 13 14 15 15 16 16 15 14 13 11 13 16 17
6 6 4 4 7 12 15 20 17 19 14 11 11 8 9 10 8 7 6 7 7 9 9 8 8 10 11 10 11 12 13 13 12 13 16 15 16 16 15 15 16 14 15 17 17 17 18 22 20
6 4 5 7 11 11 13 21 17 16 14 12 11 11 10 11 7 7 5 6 7 8 9 9 10 13 12 11 12 13 16 15 15 17 20 18 16 17 15 14 14 15 17 18 20 17 19 23 19
8 7 5 8 10 14 18 17 15 14 12 12 13 10 10 12 9 6 4 3 7 7 7 10 12 13 12 13 16 17 20 19 17 18 18 16 15 17 17 14 16 15 15 17 18 21 21 19 19
6 8 6 8 22 17 12 19 16 13 11 11 12 13 9 14 14 8 5 6 7 7 7 11 14 14 12 16 18 20 21 19 16 17 17 15 15 15 17 15 14 13 12 16 16 18 19 15 13
14 4 6 10 16 13 14 16 12 11 12 11 12 14 15 10 15 11 7 7 7 8 9 11 14 14 16 19 20 22 21 18 15 16 16 14 13 12 10 14 11 12 10 14 15 17 15 16 13
13 12 6 8 12 9 3 10 12 11 11 13 14 13 17 11 12 11 7 5 8 9 11 13 12 13 20 22 22 22 20 19 16 15 14 13 12 11 12 8 12 12 10 11 12 15 15 14 13
16 17 13 12 11 10 7 10 13 12 11 13 16 13 15 16 13 13 10 10 8 9 12 12 13 17 22 23 20 19 20 16 14 15 13 11 10 9 12 11 10 12 11 9 10 12 13 13 14
14 14 15 8 16 12 13 11 15 18 17 15 13 13 14 17 14 13 10 10 9 10 12 13 16 20 24 23 19 19 16 13 15 12 12 10 8 9 11 11 10 11 11 10 9 9 13 11 12
22 20 18 12 15 8 13 12 14 17 16 16 15 14 13 18 18 16 13 12 11 10 13 14 18 21 24 21 18 19 16 15 13 15 12 9 8 9 9 10 10 8 9 9 9 8 11 10 11
25 21 19 19 19 12 17 15 13 14 16 16 14 13 13 15 16 15 16 14 14 14 14 17 20 21 22 19 18 19 16 15 14 14 11 8 7 8 8 8 9 8 7 6 4 6 10 9 10
28 26 22 21 22 13 20 17 17 18 17 19 15 12 8 8 15 14 14 12 11 15 16 18 21 19 20 18 15 18 18 16 15 13 9 9 6 7 9 11 12 12 9 6 6 6 9 10 8
36 26 25 25 25 12 23 17 20 17 16 15 16 15 11 9 8 13 16 16 13 16 17 19 22 20 18 16 14 16 16 13 12 11 10 9 8 10 11 11 14 14 11 8 9 10 9 12 10
33 26 29 29 28 24 24 22 25 18 17 16 14 14 12 10 6 5 13 19 18 16 18 21 24 22 18 17 17 15 15 14 11 11 10 9 9 10 11 11 15 17 16 16 14 13 13 10 10
33 34 31 28 30 30 26 28 27 22 19 14 14 13 12 10 9 4 9 15 23 18 18 20 22 22 18 19 18 17 15 15 13 12 10 9 9 12 12 12 13 17 17 17 19 17 12 10 10
34 36 35 32 35 35 28 30 35 25 22 22 20 18 18 15 10 4 7 13 18 23 21 20 22 23 23 21 20 17 16 14 13 13 10 10 8 10 12 12 15 16 16 15 15 13 11 13 11
38 35 33 31 37 38 34 38 37 27 30 29 26 24 19 15 11 7 6 12 18 25 22 22 23 23 24 22 18 15 13 12 11 12 11 10 9 10 11 12 12 14 11 12 13 14 12 11 11
42 33 32 36 39 42 39 39 40 33 32 31 31 27 23 17 13 7 7 9 14 24 27 26 26 24 25 22 19 18 18 15 13 13 13 11 9 8 11 10 10 10 9 10 11 11 9 8 7
35 38 38 39 43 42 46 45 42 39 40 34 31 29 29 19 14 10 6 10 12 22 29 27 27 24 24 24 23 21 17 14 14 14 14 13 11 8 10 10 9 8 7 6 6 6 7 8 7
36 44 43 45 46 56 48 50 42 39 30 32 33 33 30 23 17 14 8 7 11 18 29 29 28 26 25 24 24 20 17 16 16 16 16 16 12 9 8 9 8 7 6 6 3 5 4 5 5
49 48 50 51 57 58 48 53 45 31 32 32 35 30 24 22 21 18 11 5 11 15 25 26 26 25 23 24 23 20 18 17 17 16 15 16 14 10 8 7 7 4 4 6 7 7 6 3 3
53 54 57 59 59 56 51 61 50 32 33 37 36 31 30 26 23 21 17 9 12 16 24 26 26 26 25 25 25 23 19 18 16 16 17 16 15 11 8 6 4 1 2 4 5 7 9 8 3
60 60 54 55 55 54 56 57 46 37 38 39 34 37 38 32 27 21 19 16 13 18 21 25 26 28 28 27 28 27 23 20 16 17 17 16 14 12 8 5 3 4 4 2 3 4 6 6 6
63 57 56 60 59 57 59 54 48 37 38 43 40 35 38 35 31 29 25 19 14 18 23 26 28 29 29 31 31 30 27 25 22 18 17 15 14 11 9 7 6 8 8 6 5 5 4 5 5
63 65 61 55 56 58 58 51 40 39 34 39 41 38 39 38 35 29 27 23 20 20 25 27 29 29 30 29 30 31 27 27 23 21 21 17 15 12 10 11 12 13 12 11 8 8 7 8 5
67 63 64 65 63 60 58 49 40 39 36 37 38 38 39 40 36 27 26 29 23 21 23 27 30 28 28 29 29 30 31 30 25 24 23 19 17 15 14 15 15 16 16 14 11 11 10 10 8

GFSSGP_500_spd_051.txt.gz
Wind_Speed
5 1 2 4 9 10 9 12 16 16 15 13 8 7 12 10 15 10 8 6 6 7 9 7 8 9 11 11 12 12 13 15 15 14 14 14 13 11 10 8 6 6 5 3 4 5 6 8 7
4 2 3 6 5 11 9 13 14 20 18 16 13 9 13 12 12 9 9 6 6 7 9 8 9 10 11 11 12 12 14 14 14 14 13 12 11 10 9 8 7 10 7 4 4 3 4 8 8
2 1 5 3 4 6 9 10 24 19 16 14 13 14 15 11 9 6 7 9 8 8 10 10 9 10 11 12 12 12 14 14 16 15 13 11 11 10 11 11 10 10 8 7 4 4 8 11 12
2 4 5 5 4 6 7 15 24 18 16 12 15 15 15 14 9 6 7 8 9 9 10 10 10 12 13 12 12 14 16 16 17 16 14 13 13 15 14 13 15 15 13 10 7 9 13 16 14
5 6 5 7 3 2 4 25 24 20 18 13 13 14 14 12 10 7 7 9 10 10 10 10 10 12 13 13 13 14 16 17 17 15 15 16 17 16 16 17 17 16 15 15 14 18 19 20 21
7 8 4 2 4 4 13 20 18 23 20 13 13 14 13 13 11 8 6 8 10 10 11 11 11 12 13 13 14 15 16 17 16 15 18 18 17 17 17 17 18 18 20 19 19 22 22 22 21
8 6 5 4 9 13 20 21 22 19 19 15 13 14 14 13 11 9 7 7 9 8 9 11 11 11 12 15 15 17 18 18 17 19 19 17 17 17 17 18 17 19 19 21 20 23 20 20 18
8 4 3 7 9 15 18 15 18 16 15 12 13 15 15 16 15 10 7 7 9 8 9 10 11 10 13 16 17 20 22 21 18 17 18 17 16 15 16 16 15 17 17 20 21 21 17 16 15
7 6 5 8 9 12 23 15 15 16 16 15 15 14 10 14 18 14 9 9 8 8 10 11 11 11 16 19 20 22 22 20 17 16 17 17 15 15 13 15 16 17 15 17 19 16 14 14 13
8 6 2 7 18 12 23 20 19 16 16 16 14 15 17 13 16 16 11 11 10 10 11 11 10 13 19 21 21 21 21 19 17 16 16 15 12 10 12 12 12 14 14 15 15 14 12 11 11
11 6 4 5 18 10 17 21 16 14 15 13 13 16 17 14 13 15 10 10 12 12 12 13 10 16 20 21 21 19 20 19 15 14 13 13 12 10 8 10 9 11 12 13 14 14 13 13 13
15 17 9 9 10 14 4 12 14 13 13 12 14 17 17 20 16 18 14 13 12 13 14 13 13 19 21 21 20 20 18 18 17 13 13 12 12 9 10 9 8 9 9 11 13 13 12 12 13
16 18 17 13 14 9 8 11 12 13 14 14 16 17 16 18 17 15 14 13 13 15 15 14 17 22 22 21 19 18 17 18 15 13 13 12 12 10 9 9 9 8 8 10 10 11 11 13 12
21 19 16 14 13 12 10 7 11 16 15 16 16 16 17 18 20 18 17 13 13 14 15 15 20 24 21 20 17 17 17 14 14 13 12 12 11 11 8 7 7 7 8 9 11 9 10 12 12
23 21 19 16 18 13 7 9 10 17 17 16 14 15 19 16 19 20 18 17 15 15 15 19 23 26 21 17 18 18 17 16 15 13 12 11 10 10 7 6 6 6 6 8 10 9 9 10 10
24 23 22 21 20 15 11 13 13 17 19 17 15 14 17 17 18 18 16 14 15 16 17 20 23 25 20 15 15 16 17 15 14 13 11 10 11 11 9 8 7 6 7 9 11 10 9 9 8
30 21 22 23 23 20 13 14 15 17 18 17 17 17 16 13 16 19 19 17 17 17 18 21 23 24 20 14 14 13 15 14 12 12 10 11 12 13 12 11 9 8 9 9 11 12 10 9 8
29 24 24 24 24 25 17 22 21 20 18 16 16 16 18 16 15 18 22 20 18 18 19 21 23 23 20 14 15 13 12 14 12 10 11 12 14 13 13 13 14 13 12 11 13 13 12 13 11
32 31 31 28 28 28 22 23 24 22 18 17 15 17 19 18 16 15 18 25 21 21 19 21 22 22 19 18 17 15 14 13 13 12 13 13 13 14 13 16 19 18 17 14 14 13 13 12 11
34 34 35 34 33 32 29 28 30 27 24 25 20 20 19 17 16 15 17 21 24 24 23 23 23 22 22 21 21 18 14 12 12 12 14 14 12 14 16 17 19 17 15 14 13 12 12 11 10
37 35 36 37 39 36 37 37 37 33 34 30 26 26 22 21 17 15 17 20 28 26 25 25 26 25 24 22 19 17 15 13 14 14 13 14 13 13 14 15 15 16 15 14 15 14 12 11 10
42 33 36 39 42 40 41 41 39 37 35 32 30 24 22 21 19 16 16 19 24 29 29 28 29 28 25 23 20 19 21 19 17 16 14 12 12 13 12 13 14 13 13 12 11 11 11 11 7
37 42 40 42 46 46 46 47 43 42 40 34 27 28 24 22 21 20 18 20 24 32 32 31 30 29 24 22 22 21 18 14 14 15 15 14 11 12 12 11 11 9 8 9 7 7 8 9 7
42 47 46 48 51 60 50 52 49 50 40 31 29 30 29 27 23 22 22 20 22 26 33 33 31 29 25 23 24 22 17 15 15 15 15 15 13 12 12 11 10 8 6 6 6 4 5 7 8
52 53 52 53 59 60 50 56 48 49 48 37 35 32 33 29 25 23 22 21 20 23 31 32 32 29 27 25 24 22 18 17 16 15 15 15 14 13 12 12 11 10 8 9 7 5 4 4 4
57 57 59 58 57 55 55 63 52 45 44 46 42 35 38 36 34 28 24 24 21 21 30 35 32 30 28 28 27 24 20 18 16 15 16 17 15 14 13 12 9 9 9 8 8 8 7 6 4
60 64 56 57 55 56 62 62 51 44 47 48 47 43 37 33 32 29 25 25 24 21 25 34 33 33 31 31 31 28 23 21 18 17 19 19 17 16 13 12 10 8 7 6 5 4 4 4 5
61 61 65 61 61 63 66 62 54 42 49 47 48 47 38 36 34 32 29 27 27 25 28 34 33 34 35 34 33 31 28 25 23 20 20 21 20 17 14 13 11 9 7 6 5 3 3 2 2
65 67 68 64 62 64 66 63 50 45 40 45 49 50 40 40 37 34 32 30 28 28 31 32 32 33 34 35 35 35 31 28 25 23 24 23 20 18 15 13 11 10 10 7 5 6 6 5 2
66 67 66 69 68 66 66 64 49 41 41 46 49 49 45 42 38 35 32 31 31 31 31 31 33 33 33 34 35 33 33 31 28 25 27 26 24 21 19 16 15 13 12 9 8 8 8 8 5

GFSSGP_500_spd_054.txt.gz
Wind_Speed
7 7 4 7 9 9 8 11 18 17 13 9 9 11 10 11 10 9 8 7 6 7 8 7 8 10 12 13 13 15 16 17 17 16 15 14 12 10 8 6 3 2 2 3 4 4 6 6 5
6 7 2 5 8 11 10 11 16 13 14 13 12 10 11 13 9 8 9 8 5 8 8 8 10 10 12 14 13 15 16 16 15 15 13 11 10 8 8 6 5 3 2 3 4 5 5 8 8
4 3 7 1 2 11 11 14 16 18 16 14 12 13 13 12 7 4 4 8 8 8 9 8 10 11 12 13 14 15 15 15 14 13 11 11 10 10 10 8 6 4 3 3 5 7 8 7 14
1 1 4 6 6 9 12 15 27 20 15 12 13 15 14 12 6 5 5 8 10 9 9 9 11 11 11 11 13 15 15 15 13 13 12 12 12 12 12 11 9 7 6 7 10 12 13 13 12
2 1 4 6 4 4 9 16 22 20 17 13 15 15 14 13 8 6 5 9 11 9 9 9 11 11 11 11 13 15 15 15 15 13 13 14 14 15 15 16 15 16 14 16 19 19 17 18 17
4 3 4 6 5 4 6 26 25 23 21 15 15 16 15 13 10 7 6 8 10 10 10 10 12 11 11 12 14 16 15 15 16 17 16 15 15 16 17 18 17 19 18 22 23 23 23 23 18
5 4 5 6 2 5 18 25 25 23 23 16 15 16 15 14 11 8 7 9 10 9 8 10 13 13 13 14 15 16 16 16 18 19 16 16 16 16 16 18 18 20 20 24 22 21 20 18 19
6 5 3 6 6 12 18 19 24 22 18 14 13 15 15 16 13 9 7 9 10 9 9 11 12 13 16 16 17 18 20 19 18 17 16 16 16 14 15 17 18 19 20 20 17 17 17 15 17
8 8 5 9 12 15 13 16 19 19 18 14 14 14 15 16 16 13 10 10 11 10 11 12 12 17 18 20 22 22 21 19 18 16 16 15 15 13 15 15 16 18 18 17 15 14 12 12 15
10 11 8 7 15 17 17 15 17 17 16 17 18 18 18 15 17 17 14 15 13 12 13 13 14 20 21 22 22 21 21 20 17 16 15 14 11 13 13 13 12 16 17 16 14 14 13 12 10
10 11 6 9 13 12 17 20 18 15 15 13 14 16 19 17 15 14 14 14 15 14 14 14 17 21 21 22 21 20 20 19 16 14 12 10 12 8 10 10 10 12 15 15 14 15 16 15 14
15 15 9 6 16 8 15 21 18 14 14 13 15 15 15 18 16 16 15 14 15 14 15 16 20 22 20 20 20 18 18 17 16 14 12 10 12 11 9 7 10 10 12 13 14 15 15 16 16
17 17 16 6 13 10 10 17 14 14 13 14 16 17 16 17 17 15 16 15 15 16 16 17 23 23 21 20 19 17 17 15 14 13 12 11 11 11 9 7 8 8 10 11 11 14 15 14 14
19 16 16 13 13 12 9 13 14 16 17 16 15 15 17 17 18 16 17 16 15 17 17 19 24 24 21 19 17 17 17 14 13 13 12 12 11 9 8 6 7 8 7 8 10 11 13 13 13
20 17 17 15 17 13 12 12 13 15 16 16 15 16 17 19 20 20 19 18 17 18 18 22 26 24 20 19 15 17 14 15 13 12 11 11 10 9 6 5 5 5 7 8 8 9 10 11 11
20 19 16 20 21 17 12 11 10 13 16 16 17 18 19 21 18 15 16 17 17 18 20 25 27 23 20 18 17 18 16 16 14 12 10 10 10 10 8 6 5 7 8 9 9 9 9 10 9
21 18 20 18 18 19 16 14 11 14 17 19 20 20 20 17 15 16 16 17 19 20 22 26 29 24 17 17 15 16 15 14 14 11 10 11 11 11 10 7 7 9 11 12 11 10 10 10 9
25 24 23 24 23 22 20 15 14 15 19 20 21 19 18 19 19 19 19 18 18 20 22 25 28 25 18 14 15 14 14 13 12 11 11 12 13 15 12 12 12 12 13 13 14 12 12 13 12
31 31 28 28 30 29 24 18 20 19 20 21 20 21 19 19 18 18 22 21 20 21 21 23 24 23 20 16 17 16 14 13 11 11 12 12 12 15 15 18 16 16 14 13 15 14 13 13 13
30 32 32 36 33 32 30 25 27 22 24 25 22 22 19 16 17 18 19 23 22 23 23 23 23 23 23 21 20 18 15 13 13 11 12 14 15 17 18 18 16 15 15 14 13 14 12 11 11
35 33 38 38 40 35 34 32 33 30 28 25 23 22 19 18 17 17 22 24 25 25 24 25 24 25 23 21 19 17 15 15 15 13 12 14 16 17 18 18 16 15 13 12 12 12 11 11 10
38 34 39 43 42 38 37 35 35 35 32 30 29 25 23 19 17 17 21 25 29 27 28 28 28 26 24 21 19 19 20 20 17 14 13 13 14 16 16 16 15 16 14 13 12 12 11 10 8
39 41 44 45 44 44 48 45 37 37 39 37 32 29 26 22 19 19 20 24 29 34 31 30 30 29 25 23 21 21 20 16 15 15 14 13 13 13 13 13 13 12 11 10 9 8 8 8 7
45 48 44 46 50 55 52 49 48 33 44 39 36 33 30 25 23 21 19 22 26 31 34 33 31 31 27 24 23 21 18 16 17 17 16 15 13 13 12 11 11 10 9 8 7 6 6 6 6
52 53 50 52 56 59 52 56 53 41 39 40 40 36 34 31 29 26 23 25 24 27 32 33 32 32 30 26 26 24 20 18 18 18 17 16 15 13 11 10 8 8 8 9 7 6 5 5 5
58 57 57 56 56 57 53 60 55 55 48 46 48 42 42 37 33 27 25 25 26 28 31 36 34 33 32 30 29 28 22 21 19 19 18 17 15 13 12 11 8 7 8 9 9 8 7 5 4
61 64 56 48 48 51 48 56 57 54 52 50 47 46 45 41 35 30 27 27 27 28 29 33 37 37 34 32 33 31 27 24 20 20 21 18 17 15 14 13 11 9 8 8 8 6 5 6 5
62 58 61 62 57 63 46 51 52 57 46 53 57 52 47 42 39 36 32 31 28 27 27 34 38 38 37 36 35 34 30 27 25 23 22 21 20 19 16 15 14 11 9 7 6 5 4 4 4
63 65 53 57 67 65 58 40 55 55 47 50 55 55 46 45 41 38 33 31 27 29 30 31 36 39 37 36 37 36 32 30 28 24 24 23 21 21 18 17 15 13 11 10 9 8 7 5 3
60 51 65 48 63 69 49 35 31 55 49 47 52 56 52 50 42 40 37 36 33 29 31 31 36 40 37 36 36 36 36 34 30 26 25 24 23 24 22 20 18 16 15 13 13 11 10 8 6

GFSSGP_500_spd_057.txt.gz
Wind_Speed
9 8 7 8 9 6 4 6 10 16 8 9 10 10 6 7 10 10 6 6 4 4 5 8 9 11 10 12 13 14 15 15 15 15 14 11 9 8 8 5 2 3 2 1 2 2 3 4 3
5 6 3 2 10 8 7 9 14 15 11 8 10 10 8 9 9 8 7 6 5 5 5 8 10 10 9 11 13 14 13 13 13 12 11 9 9 8 7 5 5 3 1 1 3 3 4 5 6
6 6 4 5 1 10 3 13 16 15 13 12 10 12 10 8 6 4 2 6 6 5 6 9 10 10 10 11 13 13 12 11 11 11 10 9 10 9 7 7 5 2 1 2 3 4 4 11 8
5 2 1 4 5 11 13 13 20 13 14 10 9 13 11 10 5 4 2 5 7 6 7 9 10 10 10 12 13 13 12 11 11 11 11 12 10 10 10 10 6 1 3 5 8 9 10 13 12
3 1 2 4 4 6 9 16 21 20 15 10 9 13 11 10 4 3 1 5 8 7 7 9 10 9 9 12 11 13 12 12 12 12 13 12 12 13 13 13 11 10 12 14 15 15 15 16 16
4 1 2 6 5 9 10 15 20 21 19 14 12 12 11 10 5 4 2 5 6 7 8 9 10 9 9 11 12 12 12 12 12 14 13 12 13 14 16 17 16 18 21 21 20 21 19 19 19
4 1 3 6 5 7 12 20 20 23 21 16 14 13 12 10 7 5 4 6 7 7 8 8 9 8 10 11 12 12 13 12 15 14 13 11 13 14 16 19 20 20 22 21 21 20 18 18 18
6 3 1 3 1 4 7 24 20 24 23 17 16 13 13 11 9 7 5 6 7 8 7 9 8 8 11 11 13 13 14 15 16 14 12 12 12 13 17 19 20 20 19 19 19 17 16 17 17
6 4 3 6 7 11 14 19 20 18 19 16 16 15 13 12 12 10 8 9 8 9 9 10 9 12 12 14 15 17 18 17 15 14 12 11 13 15 17 17 18 17 17 17 16 14 14 13 14
10 10 3 12 13 16 13 14 16 17 18 15 14 15 15 14 15 14 12 12 10 11 11 11 13 14 14 16 19 18 18 17 15 14 12 11 13 13 15 16 15 14 14 15 15 14 12 11 11
9 11 13 9 15 17 18 13 8 14 13 14 13 14 15 16 15 12 12 13 12 13 14 13 16 16 19 20 19 18 16 15 14 12 9 11 9 12 13 14 14 13 14 14 16 14 11 10 10
12 13 12 8 12 8 10 20 15 14 8 10 12 12 15 16 15 12 13 12 13 15 16 17 19 19 19 19 18 18 18 15 13 11 10 9 10 12 12 11 11 13 13 13 14 14 12 13 11
14 16 12 7 13 7 5 22 6 16 12 12 11 13 16 15 14 14 16 14 15 16 17 20 22 21 20 18 17 15 15 14 12 10 10 9 8 11 11 11 8 10 12 12 14 13 12 13 12
16 16 16 13 12 12 9 8 15 15 14 12 11 13 15 16 15 15 15 15 16 17 18 22 23 22 19 17 16 15 14 14 12 11 10 10 9 10 9 11 9 9 9 11 11 12 13 13 11
16 15 16 17 13 14 10 15 13 12 14 13 13 14 15 14 16 17 17 16 17 18 20 24 24 22 20 17 12 14 12 13 12 11 10 10 8 8 7 7 8 8 9 10 10 10 10 9 9
17 17 16 16 16 16 13 7 15 15 15 15 14 14 16 16 20 16 16 16 17 18 21 26 25 21 19 18 13 12 13 13 12 10 8 9 8 7 7 6 5 7 8 8 9 9 9 8 8
20 17 18 18 20 16 14 18 25 12 15 16 15 15 17 19 18 14 14 15 18 19 22 28 25 21 19 17 15 14 14 13 12 9 7 7 8 8 8 8 8 8 9 9 8 7 6 6 7
22 22 18 20 18 18 24 18 23 15 17 16 15 16 18 17 18 15 14 14 17 19 23 28 25 18 18 17 17 15 14 12 10 9 8 8 9 9 11 10 12 12 12 10 9 10 8 7 9
25 21 24 18 27 23 23 19 14 14 17 16 16 18 18 19 20 19 18 16 16 18 20 24 25 18 16 17 17 16 14 14 11 9 9 10 10 11 14 14 14 14 13 13 10 10 9 7 9
31 32 28 25 29 24 27 27 23 20 20 19 20 20 22 18 17 16 18 18 17 19 20 22 25 21 17 19 18 16 15 13 12 10 9 9 12 15 15 17 17 16 15 12 11 10 10 9 8
32 31 32 29 29 34 32 31 27 27 27 24 21 20 19 15 15 16 18 20 20 21 21 23 24 23 20 18 17 15 14 15 14 12 10 12 14 16 16 15 15 15 15 14 12 10 9 8 7
35 31 35 41 35 30 35 35 34 38 25 30 24 20 21 15 12 13 16 22 24 24 25 25 25 24 23 18 17 16 16 16 15 13 13 12 13 15 14 14 12 12 11 11 10 8 8 8 5
38 37 38 42 47 42 35 35 29 34 28 34 29 23 21 20 17 15 13 19 26 29 27 27 27 25 23 20 19 20 17 16 14 14 14 14 14 14 13 13 11 9 9 9 9 8 7 5 5
43 43 45 45 46 53 47 38 37 38 41 26 36 30 26 25 22 21 17 16 22 27 30 30 29 28 24 22 21 19 18 17 17 17 15 15 14 12 12 12 10 7 6 5 5 6 5 4 5
49 48 48 49 50 52 46 52 38 34 31 36 34 35 30 28 28 25 18 16 14 22 28 30 30 30 28 24 22 20 18 18 20 18 15 14 15 14 11 10 9 7 3 3 4 4 4 5 6
58 53 52 48 44 48 48 53 52 40 35 44 52 34 37 34 32 28 23 21 20 21 26 30 31 31 30 27 25 25 22 21 21 20 18 16 14 13 12 10 9 7 5 4 2 3 4 5 6
54 58 54 38 34 38 33 49 46 46 40 36 29 34 36 38 37 32 27 26 22 22 24 27 34 35 32 31 29 28 26 23 21 20 20 19 17 16 15 12 9 6 6 6 4 4 4 6 5
53 47 51 51 45 44 35 34 35 47 52 56 45 39 42 47 38 39 32 28 23 23 24 25 30 35 36 35 34 31 29 26 25 23 23 21 20 19 17 14 12 9 8 6 4 3 2 3 4
48 54 52 40 51 45 36 37 31 30 40 54 55 54 47 33 38 41 34 30 28 28 27 27 28 34 38 37 35 34 32 29 28 26 24 23 22 22 20 18 15 13 10 8 7 7 6 4 4
46 36 46 47 43 51 41 36 27 25 30 38 50 48 50 49 42 42 39 34 34 30 29 26 27 28 36 38 37 35 36 34 31 27 25 25 24 25 24 22 19 17 14 12 11 11 11 9 7

GFSSGP_500_spd_060.txt.gz
Wind_Speed
9 9 6 7 7 7 5 1 9 13 10 6 7 8 3 4 5 4 5 5 4 5 8 10 10 11 11 11 13 13 16 16 14 12 11 10 8 7 5 3 3 3 2 3 3 3 3 5 5
6 7 4 6 9 10 10 7 3 10 7 6 8 8 6 7 4 1 4 5 3 5 7 10 10 10 10 10 11 12 13 13 12 11 10 9 9 8 8 7 5 3 3 4 3 3 4 5 5
5 8 3 5 4 9 18 19 7 14 11 8 5 8 7 5 2 3 4 3 3 5 6 9 10 9 8 9 9 11 11 11 10 11 11 11 11 11 10 8 5 3 4 5 5 4 3 7 7
6 3 1 4 7 4 5 5 15 15 10 10 9 8 7 5 1 2 4 2 2 4 6 9 10 9 8 8 8 10 11 10 10 12 12 14 15 13 11 9 7 5 6 9 10 11 14 11 8
4 3 1 3 6 6 8 10 8 16 14 8 7 10 7 6 1 1 3 2 1 4 5 8 9 8 8 9 8 10 11 11 12 13 14 15 15 16 15 15 14 15 16 16 14 16 17 16 15
5 2 2 4 6 8 10 9 14 14 14 17 13 11 8 7 2 2 0 1 2 4 5 7 9 8 9 10 8 10 10 12 13 14 14 15 17 18 18 23 23 23 21 21 21 19 18 18 17
5 3 3 7 6 9 12 17 19 19 18 13 6 10 9 7 6 3 2 1 3 5 5 7 8 9 10 10 9 10 11 13 13 14 13 16 18 19 22 24 23 22 22 22 17 18 18 17 16
5 3 3 6 4 13 8 10 21 26 23 15 11 11 9 7 7 5 4 3 3 5 6 7 9 11 11 11 10 11 14 13 13 13 14 15 17 19 22 22 21 20 18 17 16 17 17 16 15
6 5 5 4 3 9 5 13 6 22 11 14 11 10 9 9 9 7 7 5 5 6 7 7 9 11 11 11 11 13 14 13 12 12 13 15 15 19 20 19 19 17 16 16 15 16 15 14 13
10 6 7 6 4 8 10 10 9 5 11 15 12 11 10 10 10 10 8 7 7 8 8 7 10 11 11 12 13 15 13 12 12 12 13 14 14 18 19 18 16 14 14 12 14 11 15 15 12
10 16 10 9 9 13 15 14 18 21 19 14 13 11 11 11 11 10 8 7 7 9 9 10 11 11 13 14 14 14 13 11 12 10 10 12 12 16 17 17 14 12 17 17 14 14 13 14 12
14 14 13 9 9 10 15 14 27 24 18 15 13 10 10 11 10 9 7 8 9 11 11 13 13 14 16 15 14 12 9 10 11 9 10 10 11 7 16 13 13 11 13 15 15 13 13 14 12
13 13 11 10 10 8 11 6 15 7 16 9 8 6 7 9 10 8 8 8 10 12 12 16 16 16 16 15 14 11 12 9 8 10 9 11 10 7 12 12 12 12 10 12 12 12 10 14 11
15 15 13 10 6 10 12 8 9 9 15 10 8 8 7 10 9 10 8 9 11 12 13 18 18 18 16 15 12 11 12 10 9 10 10 14 11 9 9 10 11 8 9 10 10 11 10 10 10
14 14 15 15 13 8 8 11 16 14 7 6 7 7 9 9 8 9 8 11 12 14 14 19 18 17 16 13 13 9 9 9 8 9 10 10 12 9 11 8 9 9 8 9 9 8 8 7 8
13 14 13 16 14 13 9 6 13 15 8 10 8 8 11 9 10 9 8 9 11 14 15 20 18 16 17 12 13 11 8 10 9 8 8 7 7 8 8 9 6 8 8 7 7 6 6 5 7
16 15 14 15 15 16 15 18 13 16 17 16 12 11 12 11 10 9 7 9 11 14 16 21 18 15 14 13 11 10 10 9 8 6 7 6 5 6 9 4 8 10 10 7 6 5 4 4 6
21 17 15 13 17 14 19 23 15 17 19 16 16 14 13 12 11 12 10 9 10 14 18 23 18 14 13 12 11 11 11 9 7 6 7 8 6 5 10 10 10 12 12 9 7 7 5 6 7
27 19 15 15 22 19 17 26 21 20 21 15 12 13 13 14 14 15 14 13 10 13 16 22 19 14 14 13 12 11 11 9 8 8 8 9 10 9 8 9 11 11 10 10 10 7 8 8 9
27 31 24 16 19 26 25 22 22 19 21 10 14 16 15 15 12 12 12 13 11 14 17 21 23 16 14 14 14 12 12 10 10 10 10 9 13 13 13 12 12 10 9 9 8 6 9 8 9
28 30 28 23 17 24 26 30 30 24 32 28 21 20 18 13 10 9 10 13 14 14 17 20 25 21 15 14 14 12 11 11 10 11 11 13 14 16 15 15 14 12 9 8 7 6 6 8 7
32 29 30 34 34 27 30 31 30 31 28 34 23 21 17 14 8 2 3 11 18 17 19 20 23 23 19 15 14 14 12 10 9 9 11 14 14 14 14 14 14 11 9 7 6 6 4 4 4
34 34 33 36 40 40 33 25 27 30 30 27 20 24 21 16 11 9 6 7 15 20 22 22 23 22 19 16 15 16 14 12 10 10 12 12 13 13 12 12 12 9 8 5 3 5 3 2 3
40 38 39 40 41 48 44 36 28 38 27 34 30 25 22 20 18 14 11 10 8 15 21 24 23 23 20 18 17 17 16 15 13 13 12 12 12 11 11 8 7 7 5 3 1 1 1 2 3
46 43 41 44 46 46 42 48 42 24 33 32 30 47 26 26 24 19 15 13 12 7 17 23 24 23 22 20 18 18 18 18 16 14 12 11 11 10 9 8 5 4 2 1 1 1 1 2 4
47 48 46 44 45 41 40 45 44 37 19 31 34 27 31 32 29 25 18 17 16 13 10 20 25 25 23 21 20 20 18 19 21 18 16 15 13 11 11 9 6 5 2 2 3 2 2 2 3
46 43 47 45 33 40 29 29 38 37 39 25 30 32 42 34 40 29 22 20 19 20 17 16 25 28 27 26 25 22 20 19 20 21 20 18 16 15 13 11 9 7 4 3 5 4 4 4 2
44 46 35 45 47 47 29 29 25 28 37 40 50 42 40 41 57 33 32 26 23 20 19 18 21 29 31 31 30 27 25 23 22 20 20 20 18 17 15 13 10 7 7 6 4 3 2 2 2
37 49 51 35 36 54 40 36 25 20 26 29 51 54 55 39 47 47 42 31 26 24 21 18 18 23 29 31 30 30 27 25 25 23 21 20 20 19 18 15 13 11 10 9 6 3 2 1 1
31 42 36 46 43 43 42 37 27 20 22 35 36 36 43 48 43 26 32 25 29 24 21 19 20 18 24 31 34 33 32 29 26 25 23 22 23 22 22 20 17 15 13 11 9 7 5 5 5

GFSSGP_500_spd_063.txt.gz
Wind_Speed
7 5 3 5 7 8 5 6 7 11 9 6 6 9 2 7 7 8 10 10 10 9 10 11 14 13 13 13 14 14 14 13 13 11 10 8 6 5 4 2 3 3 3 3 4 4 4 8 8
7 5 2 5 7 11 9 8 17 9 6 5 6 6 5 5 8 9 10 9 9 9 9 10 13 13 12 13 13 13 13 13 12 11 10 8 7 7 6 5 4 4 4 4 5 6 10 10 10
5 6 1 4 8 5 14 8 14 7 7 5 4 5 5 5 6 7 9 8 8 8 9 9 12 12 11 12 12 12 11 12 13 13 13 12 12 10 7 4 4 6 7 8 7 8 10 11 11
7 3 1 6 10 13 9 4 20 11 7 3 6 3 5 3 5 6 8 9 6 8 7 8 11 12 11 12 12 12 12 14 15 16 18 18 15 12 9 9 10 11 12 12 12 13 16 14 12
4 2 1 3 5 4 7 0 16 7 11 7 6 7 5 4 3 5 8 6 6 7 6 7 10 12 12 13 11 13 13 16 17 20 20 18 17 17 16 17 19 19 17 17 19 20 15 15 15
4 1 3 4 10 9 4 7 9 12 14 13 6 8 6 3 1 5 5 6 5 6 6 7 10 12 11 13 13 13 15 16 19 20 20 20 20 21 23 23 24 24 22 22 22 22 19 18 17
4 3 3 3 9 10 11 3 14 8 12 7 6 7 5 2 2 4 2 5 4 6 7 7 10 12 12 12 12 13 15 16 18 19 20 19 20 21 24 25 24 25 21 22 21 19 18 18 19
5 4 1 4 5 3 3 12 8 15 10 12 7 7 5 4 3 1 2 4 4 5 6 7 10 12 12 12 13 14 17 17 17 18 17 17 19 20 21 21 21 20 20 19 20 18 16 15 18
10 4 2 9 4 8 6 3 5 7 14 8 6 5 6 5 4 2 3 2 4 5 6 7 11 12 12 12 15 15 16 16 15 16 15 17 18 19 20 18 17 18 18 17 17 15 13 16 16
10 7 2 3 7 7 8 3 6 5 7 7 8 8 4 6 6 4 1 2 4 5 5 7 12 12 12 13 15 15 14 14 14 13 14 14 17 17 18 15 18 17 17 15 12 12 12 12 15
12 13 6 8 1 7 19 5 6 6 11 16 10 8 5 7 7 3 2 2 5 5 5 10 13 13 13 14 14 15 12 10 12 14 11 12 14 15 17 16 16 20 18 17 15 9 13 3 15
12 12 14 8 8 4 9 12 13 11 18 17 12 9 6 5 6 2 2 3 5 7 6 11 13 14 14 14 14 13 10 10 9 13 9 11 10 7 14 14 15 18 15 16 15 8 12 13 14
14 14 11 4 5 5 6 6 9 18 24 13 10 9 6 4 4 2 1 3 6 7 7 11 14 15 14 13 12 8 9 8 8 10 9 10 8 9 11 11 12 11 15 15 14 16 11 12 14
16 11 6 8 10 5 9 8 6 10 23 18 13 10 7 3 5 5 3 3 4 7 9 12 15 15 14 12 10 6 7 8 8 9 7 9 11 8 7 8 9 9 10 13 12 13 12 11 11
13 13 15 13 10 9 5 9 7 11 11 14 12 10 5 6 5 4 5 4 6 7 7 13 15 13 13 11 9 7 7 7 8 6 7 7 8 7 5 7 7 7 7 9 12 12 9 9 10
15 14 9 13 11 10 9 10 7 7 14 10 10 6 8 8 8 5 7 5 5 8 8 13 13 12 13 9 8 8 6 6 6 6 5 5 4 5 5 4 5 6 6 7 8 10 10 10 9
12 11 12 11 9 12 14 15 10 9 13 10 6 6 9 10 10 9 6 6 5 8 9 14 13 11 12 7 7 5 6 5 5 4 3 4 6 6 5 1 6 5 6 4 7 9 9 10 10
20 16 13 11 12 10 14 18 13 14 13 10 9 7 9 10 8 11 11 8 6 8 10 15 13 11 9 7 7 7 6 4 4 4 5 5 3 6 4 5 7 6 6 4 7 8 9 10 11
26 27 24 14 4 11 19 19 17 14 14 17 8 9 11 8 9 8 9 11 9 8 11 15 14 11 9 7 8 9 8 7 5 6 9 8 7 5 7 6 8 8 5 7 10 9 10 11 11
25 27 24 17 9 17 21 23 24 14 22 14 18 14 14 10 8 5 7 10 11 11 13 16 17 12 12 10 11 11 10 8 7 9 9 9 11 12 11 10 9 9 7 8 8 10 9 11 11
27 26 25 23 11 18 22 24 20 20 17 12 33 18 15 11 9 7 6 11 11 12 13 17 20 14 11 12 12 11 10 8 9 9 11 12 13 14 13 12 11 9 9 9 8 9 8 9 10
29 26 27 28 29 31 24 26 24 19 19 21 27 24 20 16 10 9 7 7 12 12 15 18 20 18 12 11 12 12 11 11 9 10 12 12 14 15 15 12 11 11 10 9 8 8 6 8 7
30 32 32 32 37 35 31 31 24 20 22 16 28 21 18 21 17 11 9 6 12 13 16 17 20 20 16 12 13 13 12 12 10 11 14 14 15 14 14 12 10 9 9 8 7 6 6 5 3
35 36 37 37 39 40 35 36 31 24 19 18 20 32 21 19 19 16 14 11 6 4 13 17 18 20 19 15 14 14 14 14 13 14 14 13 14 14 13 10 8 5 6 5 5 4 4 3 3
40 39 38 40 38 38 35 40 36 33 25 19 24 16 27 22 24 21 15 12 8 2 6 16 17 19 20 17 15 15 17 15 15 15 14 12 12 11 10 8 5 3 3 4 4 4 3 3 2
44 42 43 41 36 37 33 40 32 36 36 29 32 24 23 32 28 27 20 15 13 8 6 12 19 20 20 18 18 17 17 18 18 16 13 14 13 11 10 7 5 2 1 2 4 5 5 3 2
38 42 41 43 43 43 39 36 23 16 24 31 30 32 25 28 36 36 29 22 18 13 12 9 16 22 23 22 22 21 19 19 21 21 18 15 14 13 10 8 6 3 1 2 6 6 6 5 3
44 37 39 44 47 48 46 39 29 6 6 21 31 36 34 27 35 40 37 29 25 19 17 13 15 20 26 27 25 23 22 22 22 22 21 19 17 15 12 10 8 7 5 4 4 5 4 3 4
35 39 45 44 47 44 47 45 23 6 7 20 29 26 26 30 38 35 38 25 20 26 25 17 15 18 21 25 27 27 24 22 22 21 21 22 19 17 15 13 11 9 8 8 5 4 2 1 1
47 46 41 48 49 50 48 52 31 27 10 14 27 25 25 26 30 38 37 44 41 42 26 19 17 15 19 23 29 29 29 26 24 23 21 21 21 20 20 17 16 14 12 11 7 5 3 2 3

GFSSGP_500_spd_066.txt.gz
Wind_Speed
4 4 2 2 6 11 9 8 25 14 9 10 8 9 8 8 9 9 11 12 13 12 12 13 14 16 14 14 12 12 13 11 9 8 7 6 4 3 2 3 4 5 6 7 8 8 7 8 8
7 6 2 5 6 7 10 4 15 16 11 8 8 7 10 8 9 11 12 12 12 11 12 12 14 16 13 13 14 14 12 10 9 8 6 5 3 4 3 5 4 6 7 7 8 10 10 10 11
7 5 1 5 5 2 12 11 20 13 12 10 7 8 7 8 10 12 12 12 11 11 11 12 14 15 13 12 14 13 12 12 11 10 8 6 4 3 3 5 7 8 7 8 9 12 11 14 15
7 5 1 6 5 6 13 9 19 12 6 3 6 5 5 6 10 11 11 12 10 10 10 11 14 14 14 13 13 13 14 15 14 12 10 7 8 7 7 8 11 11 10 8 17 16 15 16 17
5 1 2 9 14 7 13 4 12 6 5 4 5 5 5 6 9 9 11 11 10 10 10 11 14 14 15 14 14 14 16 16 15 15 14 15 16 16 18 19 19 17 17 23 19 18 17 18 19
4 1 3 8 10 5 6 4 2 4 5 11 3 5 7 6 6 9 8 10 9 10 10 10 14 15 15 15 15 15 16 17 18 18 17 19 20 22 23 24 23 21 21 21 18 17 17 19 19
4 2 1 4 7 11 7 5 2 4 5 5 10 8 5 6 2 9 5 9 9 9 10 11 14 16 15 14 15 15 16 17 18 19 19 20 21 23 22 24 22 23 21 21 20 19 18 18 17
7 5 2 2 3 3 1 3 8 3 9 9 9 9 6 7 4 6 4 7 8 9 9 12 15 16 15 15 16 15 17 18 18 19 20 19 18 20 21 19 20 22 20 18 19 20 19 17 17
10 6 5 1 3 3 9 3 5 9 3 7 8 7 7 6 5 6 4 5 8 8 8 13 16 15 15 15 16 15 16 18 16 18 17 17 18 17 17 16 16 17 16 17 16 18 17 16 17
11 10 1 3 4 5 6 6 7 5 11 11 5 5 6 9 4 5 3 3 7 7 7 13 15 15 15 16 15 14 15 15 14 16 16 17 17 15 15 14 15 14 13 14 16 17 16 16 18
13 16 12 7 7 5 6 1 6 5 9 14 8 5 4 10 4 1 3 2 5 6 7 13 14 15 16 17 14 13 13 14 13 14 15 18 16 12 15 13 14 16 12 13 12 15 11 15 18
16 18 16 8 6 6 6 4 8 1 3 10 11 7 3 9 6 2 3 3 5 6 7 13 15 15 16 16 12 12 11 10 11 10 11 14 11 10 13 12 14 13 15 13 10 18 16 13 18
20 22 20 12 11 8 5 4 6 10 18 13 11 9 4 7 9 6 4 3 4 7 7 12 16 16 17 15 11 11 9 8 10 10 9 10 12 9 10 11 11 11 13 12 16 14 16 13 16
23 24 21 13 11 10 4 3 5 8 14 22 15 10 8 10 9 10 9 7 4 6 9 13 16 16 16 13 8 9 7 5 7 8 6 8 9 8 10 8 12 9 11 13 14 15 16 14 14
19 21 22 12 11 7 3 3 2 3 19 20 17 12 9 10 10 11 10 10 9 7 10 14 15 14 14 11 10 8 7 7 5 4 4 8 4 7 6 7 9 9 9 11 12 14 14 16 12
12 13 11 12 9 7 3 3 10 7 17 19 17 13 11 11 12 12 12 10 12 11 14 14 13 13 12 11 10 10 6 7 5 4 4 5 5 6 3 5 5 8 7 9 9 12 14 14 12
13 9 11 8 6 11 9 5 7 5 5 12 13 13 13 10 13 12 13 11 12 13 14 16 14 13 11 10 9 7 6 5 7 5 5 2 2 2 5 3 4 5 7 9 10 10 13 13 12
18 18 20 15 9 12 12 9 9 7 11 18 14 14 13 11 14 15 12 12 11 12 13 18 14 13 11 8 8 6 7 6 5 4 3 5 4 5 3 6 7 8 7 9 10 12 14 13 11
26 23 19 19 13 15 17 10 6 6 3 13 19 13 12 13 11 13 15 13 13 12 13 16 15 13 12 8 9 8 7 6 5 4 4 5 4 6 8 11 8 10 12 11 11 12 13 13 11
27 26 22 20 17 22 11 10 7 9 4 4 12 6 12 14 12 12 14 12 14 14 15 16 16 12 11 8 8 8 5 4 4 6 3 4 6 8 11 10 9 12 11 10 11 12 10 12 10
27 26 25 25 23 23 15 14 8 11 9 9 11 17 17 14 16 19 15 13 11 15 14 18 20 15 14 10 8 7 5 6 6 4 5 7 6 10 10 10 10 10 10 11 11 11 9 9 10
30 24 28 31 30 26 19 24 16 16 15 10 10 13 27 14 13 18 18 14 12 13 15 17 22 17 14 12 9 10 9 8 8 7 7 10 11 12 12 12 12 11 10 10 8 9 6 7 11
29 26 29 35 35 31 26 30 16 20 18 8 4 6 21 13 13 14 20 18 17 15 16 17 23 21 15 13 10 10 10 10 9 10 11 12 13 12 12 13 12 10 8 8 7 7 5 7 8
32 35 34 37 38 36 31 33 21 20 9 6 8 7 21 19 14 14 18 18 14 15 16 17 20 24 20 15 13 11 12 11 12 13 11 11 11 12 11 11 10 9 8 7 5 5 5 5 7
36 35 35 37 38 35 32 35 27 20 11 11 12 7 27 14 11 18 15 17 12 10 15 16 18 22 23 19 16 13 14 15 14 14 14 13 14 13 11 8 7 7 6 5 5 5 4 4 5
40 38 36 35 37 42 35 36 29 22 18 11 18 16 8 18 14 19 18 19 19 17 18 20 20 21 23 23 21 18 16 17 16 16 16 14 15 13 9 6 5 4 5 5 6 7 5 4 4
40 39 39 40 40 40 36 36 25 36 28 26 27 23 23 21 17 18 22 23 23 19 17 22 24 23 23 25 24 23 20 19 19 18 17 15 15 13 9 7 4 1 2 5 6 6 6 6 4
44 38 38 40 42 41 38 32 22 24 26 20 15 13 14 18 22 18 24 26 20 23 22 22 26 26 27 27 25 24 25 23 23 21 20 18 17 13 11 10 7 3 1 3 4 4 4 5 5
43 43 46 45 44 45 43 33 29 29 24 27 28 31 31 18 7 17 22 29 28 22 21 20 18 23 27 26 26 25 23 23 22 21 21 19 17 15 14 12 8 6 4 4 4 3 2 3 2
40 41 47 51 47 47 44 36 35 36 28 36 34 33 29 22 14 12 17 27 34 26 27 21 16 18 24 29 29 29 28 26 24 23 22 20 19 18 16 13 12 11 10 9 7 4 3 1 2

GFSSGP_500_spd_069.txt.gz
Wind_Speed
4 5 2 3 8 10 7 7 9 14 10 7 11 12 9 8 9 10 12 14 13 13 12 13 14 15 16 16 15 14 12 10 7 6 6 4 3 3 4 4 5 6 6 7 7 8 8 8 8
5 5 1 6 10 10 9 5 14 16 12 11 7 10 10 7 12 10 13 13 13 13 13 13 15 15 16 14 13 12 10 8 6 5 4 4 3 3 4 6 7 7 8 8 10 10 9 10 10
5 3 3 7 14 16 9 15 18 11 12 12 10 8 11 9 10 11 12 15 13 13 14 14 14 14 14 13 11 10 10 9 9 7 6 4 1 2 4 7 8 8 9 10 12 11 13 13 14
5 2 5 7 10 13 9 17 15 12 8 14 14 9 9 9 7 11 12 15 13 13 14 15 14 14 14 13 10 11 11 12 10 9 7 6 7 7 8 11 12 10 11 13 12 14 16 16 20
5 3 4 8 7 2 18 13 19 11 7 17 8 10 8 8 7 10 12 14 14 14 13 15 15 14 14 13 12 13 14 12 12 13 14 15 15 17 18 19 16 18 22 18 18 17 18 17 17
4 3 3 6 12 2 14 12 5 7 9 6 10 10 8 5 8 8 11 14 10 15 14 14 16 15 15 13 14 13 14 14 16 19 20 21 21 22 21 20 20 21 21 22 21 19 18 18 15
6 3 2 7 9 15 3 3 6 7 2 12 12 11 8 5 6 7 9 11 12 11 14 14 16 16 15 15 14 13 15 16 19 20 21 23 22 21 19 19 20 21 21 21 21 20 18 18 16
6 3 3 2 6 12 6 8 9 7 6 10 12 14 9 8 6 7 8 9 10 10 12 14 16 16 15 16 15 15 15 16 19 19 20 20 20 18 18 18 19 19 18 19 18 18 18 18 16
8 6 7 3 4 9 7 10 1 7 7 9 14 9 5 11 8 9 7 8 10 9 10 13 15 16 15 16 16 15 15 17 18 20 19 18 15 16 16 16 15 16 16 17 16 16 15 15 15
12 10 9 4 5 7 8 7 6 6 15 12 12 8 6 10 10 9 7 8 9 8 11 12 15 16 17 16 15 14 14 16 17 18 18 19 16 13 12 12 13 14 15 14 17 14 14 13 15
15 15 9 7 9 4 7 5 5 7 16 14 15 12 8 8 11 10 7 7 7 8 11 14 14 16 17 16 15 13 14 13 17 16 16 17 16 13 14 13 13 14 14 13 11 12 12 13 15
20 18 14 12 4 10 6 5 3 4 7 15 13 8 6 6 11 11 7 9 8 8 11 15 15 15 17 15 13 11 12 12 14 13 9 11 15 14 13 14 14 14 16 14 12 13 14 12 16
22 21 14 14 16 10 6 5 1 6 9 11 13 10 7 7 10 10 7 7 9 9 13 14 17 17 17 15 12 10 10 9 12 11 7 12 13 12 12 13 13 13 15 14 12 14 15 14 15
24 21 15 15 12 14 13 4 4 4 11 13 15 13 10 12 15 15 11 11 10 11 13 15 17 19 17 15 12 11 9 9 9 10 7 7 9 11 11 11 12 12 13 15 13 14 15 14 14
15 17 15 15 16 15 11 7 2 11 13 22 18 12 10 11 15 15 12 15 13 13 14 17 18 18 17 14 13 10 10 9 7 7 6 5 4 7 9 9 11 11 12 13 14 12 15 15 13
11 9 14 17 20 15 11 7 2 7 14 22 16 13 10 13 17 15 13 12 12 13 16 17 17 15 14 13 12 11 9 7 7 9 4 3 4 4 7 7 7 11 11 12 13 10 13 14 12
16 11 13 19 21 20 12 6 6 8 13 10 14 12 10 11 16 16 16 15 15 14 17 16 17 14 14 14 11 10 11 8 4 7 4 3 3 4 5 7 7 9 10 12 14 12 10 11 11
19 19 17 21 23 25 20 14 10 11 11 12 7 9 5 15 18 19 17 15 14 15 16 17 16 16 13 11 11 9 6 8 3 2 3 2 3 3 5 7 8 10 12 12 14 13 11 11 10
22 24 20 21 26 22 21 14 12 10 7 14 11 11 7 15 18 21 20 20 18 17 18 19 18 16 13 11 9 9 5 6 4 4 4 3 4 4 5 7 9 12 13 12 11 10 11 10 10
27 27 24 22 23 22 22 21 15 16 5 7 20 12 9 11 16 20 21 18 21 21 21 21 20 18 15 11 10 10 6 5 4 5 5 4 8 8 9 10 10 10 12 10 10 9 11 10 9
26 25 28 29 29 21 22 22 19 14 12 10 19 16 11 12 15 19 20 22 22 21 21 25 23 20 16 14 12 10 8 6 6 5 6 8 9 11 11 11 11 11 10 9 8 9 9 9 10
26 24 31 32 31 27 22 20 18 15 12 10 12 21 15 11 14 17 21 22 20 23 25 26 23 21 17 16 14 12 11 10 9 8 8 10 11 11 11 11 12 12 10 10 8 9 8 8 9
27 29 35 37 36 32 26 21 23 21 15 9 10 10 15 15 15 17 16 19 23 23 24 27 23 20 17 16 14 11 10 11 10 12 11 10 13 12 12 10 10 11 9 10 8 8 7 9 8
32 33 35 40 38 34 29 24 19 25 15 10 10 7 16 22 18 18 20 21 18 21 21 23 25 20 19 16 14 11 12 13 13 14 14 12 11 13 11 9 8 8 8 7 6 6 7 10 9
30 29 33 37 38 34 30 25 20 15 14 15 8 7 17 21 18 18 16 15 13 14 17 18 23 22 19 18 16 13 14 14 14 15 14 14 15 14 12 9 8 8 8 7 6 4 7 10 9
34 33 31 35 38 39 32 28 27 23 22 18 19 15 14 28 19 18 17 17 15 16 19 20 21 23 23 20 18 17 16 17 16 16 15 14 15 15 10 8 7 6 7 6 6 5 5 8 10
34 36 36 37 39 40 39 34 29 29 27 25 22 24 16 16 15 15 14 16 17 16 20 24 23 23 24 24 22 20 19 18 19 19 17 15 14 12 11 9 5 5 4 7 7 6 5 8 9
37 37 38 38 39 39 37 43 41 37 35 33 31 28 27 25 25 19 16 19 15 13 16 20 24 24 25 26 25 23 22 22 22 22 20 20 16 14 12 10 7 6 7 7 7 5 5 5 8
40 40 41 40 42 41 35 38 42 43 38 36 30 32 30 32 33 29 21 18 22 21 20 15 14 21 23 25 25 25 23 24 24 23 23 20 18 16 14 12 9 8 7 9 7 6 5 3 3
41 43 41 42 42 41 41 42 42 37 36 38 33 34 32 32 32 31 30 33 30 30 27 20 16 13 16 25 27 27 27 27 26 23 22 21 21 19 18 14 12 11 8 8 8 6 4 3 3

GFSSGP_500_spd_075.txt.gz
Wind_Speed
1 2 3 5 5 13 9 7 6 18 15 12 10 11 13 13 14 15 13 11 14 18 16 16 15 16 17 16 14 12 9 8 7 7 7 6 6 6 5 5 3 3 4 4 5 5 5 6 11
2 4 4 7 9 16 4 8 21 19 17 13 12 11 13 15 14 14 16 13 15 16 17 17 16 15 15 15 13 12 10 10 9 7 6 7 6 5 6 4 4 5 6 6 6 6 5 6 12
5 4 4 9 10 11 4 18 18 19 19 18 13 10 14 15 14 15 16 17 16 16 17 16 15 14 15 15 14 13 11 9 9 6 6 6 7 8 7 6 7 8 8 9 9 8 9 18 20
4 3 6 10 16 7 1 17 20 22 19 18 16 13 15 13 13 15 17 18 18 17 17 15 14 15 16 16 15 13 14 13 11 9 9 9 9 9 8 9 11 12 11 12 12 13 15 17 18
4 4 10 13 14 1 16 21 20 17 21 19 15 14 15 13 13 13 15 18 19 19 17 16 16 16 16 15 15 16 18 17 17 17 16 17 16 14 12 14 15 15 15 16 15 18 15 15 14
2 5 10 14 20 22 14 15 14 16 27 24 17 15 15 12 14 13 13 17 17 18 17 17 18 17 17 16 17 19 21 22 23 23 23 22 21 21 20 19 18 17 18 18 18 17 16 14 13
2 5 9 14 13 14 9 13 15 16 16 17 15 16 15 13 13 12 14 15 16 17 15 17 18 18 18 18 18 20 21 23 24 24 24 24 23 22 20 19 19 18 18 18 17 15 15 14 14
2 5 5 7 6 13 7 18 18 13 9 14 14 16 16 15 15 13 14 14 15 16 15 16 17 18 19 17 18 19 21 22 23 22 21 21 22 21 19 19 18 19 17 17 17 16 15 14 14
3 3 3 7 6 7 10 6 15 12 9 18 15 11 13 16 17 14 16 15 15 15 13 14 16 18 19 18 18 20 20 20 18 20 19 18 19 20 19 19 18 17 17 17 16 15 14 13 12
6 4 2 4 4 3 4 7 8 10 20 21 17 13 9 15 16 15 16 16 17 16 14 14 15 17 18 18 18 19 20 19 16 17 18 16 17 17 17 18 16 15 16 16 16 15 13 12 12
11 7 4 1 4 4 5 10 4 19 21 21 18 16 11 13 15 13 13 12 16 18 15 15 15 16 16 16 18 19 18 19 17 16 18 18 17 17 16 14 15 14 13 16 14 14 15 14 13
11 8 6 5 7 4 3 1 7 13 15 18 14 10 15 13 15 16 16 17 17 18 17 16 16 16 17 17 17 18 20 16 17 17 18 17 16 16 17 14 13 14 14 14 14 15 15 15 14
16 10 9 9 5 2 4 7 3 15 9 15 15 11 8 11 12 12 13 15 17 18 17 16 17 16 16 17 16 15 16 14 18 18 15 15 14 13 14 13 14 15 15 14 16 16 16 15 15
18 15 12 12 10 10 6 4 6 12 7 9 17 15 9 10 15 15 15 15 17 19 17 17 17 16 15 16 17 14 16 15 12 15 16 14 13 12 11 12 12 15 15 14 16 16 16 16 15
19 19 18 15 12 10 5 8 10 7 8 14 15 14 10 11 14 14 16 18 17 19 19 18 18 15 14 13 15 15 14 14 12 12 12 12 11 11 9 11 10 11 14 15 15 14 15 16 16
20 21 19 20 14 11 8 12 8 13 13 15 19 15 12 11 12 14 15 17 19 20 20 19 18 15 14 13 12 15 12 12 14 11 11 11 10 8 8 9 9 10 11 12 14 14 14 14 15
18 18 19 21 18 14 11 10 10 7 16 15 22 18 11 9 11 12 15 19 19 21 21 21 20 15 15 14 14 13 13 13 12 11 11 11 11 8 8 8 9 10 11 11 12 13 13 14 14
19 18 17 19 20 17 15 12 12 9 20 27 24 17 12 12 15 15 14 16 18 21 21 22 20 16 16 14 13 13 13 11 10 9 9 10 7 7 9 9 9 9 11 11 12 11 12 13 14
28 24 21 22 21 21 19 16 12 15 16 20 17 13 12 15 14 16 16 18 19 22 23 21 21 19 18 14 11 10 10 9 9 8 8 10 7 7 9 10 10 10 10 11 11 12 12 13 14
31 30 28 25 23 22 22 19 15 11 16 16 16 14 11 11 11 14 16 18 21 24 24 23 20 21 16 12 10 9 9 8 10 8 7 8 10 9 10 12 12 9 9 9 9 10 11 11 12
31 32 33 30 25 22 21 19 18 14 11 16 17 14 13 13 13 14 16 19 22 24 25 25 23 20 15 13 13 13 11 10 10 10 9 9 10 11 11 12 10 10 9 8 8 10 10 10 10
29 30 36 35 29 24 22 20 19 16 14 11 19 21 17 17 16 15 19 18 21 24 26 24 22 18 16 14 14 13 11 9 10 12 12 12 12 12 11 12 11 11 9 9 7 8 10 10 12
27 31 35 36 31 26 23 21 22 19 18 17 19 25 19 20 20 17 16 20 23 23 26 26 23 19 16 16 14 12 11 11 11 13 15 14 14 13 12 11 10 10 10 8 7 9 12 12 12
33 31 32 32 31 29 26 24 24 25 25 24 24 22 25 21 24 22 23 24 20 21 22 26 23 22 19 16 14 12 13 14 14 15 16 16 15 13 12 10 9 8 9 9 7 8 13 14 13
36 34 33 33 31 31 28 27 25 24 26 23 23 23 21 25 24 22 17 16 16 16 17 24 26 23 22 19 17 15 15 15 14 16 16 16 15 15 14 11 10 9 9 9 9 8 10 14 14
36 36 35 34 29 26 26 29 28 25 26 31 27 18 12 21 23 22 21 20 20 20 18 22 27 26 24 23 20 18 17 17 16 15 16 15 15 15 14 11 8 8 8 8 8 10 10 13 14
35 37 36 35 31 27 29 28 28 27 27 23 22 17 15 21 26 25 23 21 22 23 22 25 27 29 27 25 22 20 19 19 19 19 18 17 17 16 14 13 10 8 7 8 7 8 10 11 14
36 34 36 35 33 35 34 31 30 26 21 27 25 18 17 23 21 20 22 23 24 26 27 28 29 30 32 28 27 26 25 21 19 19 20 19 18 17 15 12 11 10 8 8 7 6 9 11 13
39 38 37 35 33 34 32 33 31 29 26 26 28 25 20 23 20 23 25 26 28 29 29 30 29 29 34 32 28 26 27 24 21 20 20 20 18 18 17 14 12 11 10 10 9 7 7 10 12
40 39 39 38 37 36 33 30 28 28 28 28 31 31 26 23 27 18 19 26 30 30 28 27 30 30 31 35 34 30 28 26 24 22 23 22 21 21 19 17 14 12 11 11 11 9 7 7 9

GFSSGP_500_spd_078.txt.gz
Wind_Speed
2 2 2 5 8 12 3 2 18 17 15 14 9 10 11 12 14 15 15 15 14 17 17 16 16 16 15 13 11 10 9 8 7 7 7 7 7 7 7 8 7 6 5 3 2 2 6 10 12
4 3 3 7 10 14 7 16 25 18 16 14 11 11 12 14 14 14 17 15 15 17 18 16 16 15 14 12 10 10 9 8 8 8 8 8 8 7 7 7 7 6 5 5 2 1 4 14 17
7 2 6 8 12 5 12 20 22 20 19 16 12 10 12 14 15 14 17 16 16 17 17 16 15 15 14 13 11 10 10 9 9 8 8 9 9 9 7 8 9 8 8 6 6 5 17 15 22
6 3 7 9 9 7 11 15 21 21 19 16 15 13 13 14 15 14 16 16 16 16 17 16 17 16 15 14 14 13 12 12 11 10 11 11 10 9 10 10 10 9 10 10 14 16 21 20 15
6 5 8 13 4 2 21 19 21 19 18 16 15 15 15 14 13 13 16 15 15 16 17 16 17 16 15 15 16 17 17 18 18 17 18 15 11 10 12 12 12 12 12 14 14 16 18 13 13
6 7 8 11 14 11 20 20 21 22 21 17 16 16 16 16 15 12 16 15 14 15 17 16 17 16 16 17 18 21 23 22 22 22 22 21 20 18 16 15 14 14 14 14 15 14 15 13 12
7 7 8 9 8 14 15 16 18 25 23 18 17 17 19 16 15 14 15 16 16 15 17 16 18 17 17 17 19 22 22 23 23 23 22 22 21 20 18 16 14 14 14 16 14 14 13 14 13
7 8 5 3 6 8 10 12 18 23 23 21 17 17 19 17 17 15 16 17 16 15 16 15 16 18 18 17 19 20 19 21 23 22 21 20 20 20 20 18 15 15 15 15 14 13 14 13 12
8 7 5 4 5 5 10 14 17 12 21 19 15 13 15 19 18 17 18 19 17 16 16 15 16 17 18 18 18 18 18 18 18 19 18 19 18 19 19 17 17 17 17 15 14 13 13 13 12
9 6 4 5 5 4 3 10 14 14 13 16 15 13 12 17 18 16 17 20 19 17 16 16 16 17 17 17 18 17 17 16 16 17 17 17 16 16 17 16 17 17 17 17 15 13 14 12 13
9 8 4 3 2 7 11 5 4 15 21 19 18 15 12 13 17 15 14 16 19 18 16 16 15 16 17 16 18 17 19 17 15 15 16 16 16 15 15 15 14 16 16 16 15 15 15 14 13
10 9 7 5 8 9 5 4 9 20 21 17 15 11 16 15 17 18 17 19 18 19 18 17 15 15 16 16 18 18 16 17 17 16 14 15 16 15 15 15 15 15 16 16 16 15 15 14 13
12 11 9 10 9 8 3 1 14 11 21 18 13 11 11 13 13 15 15 18 19 19 18 18 15 15 15 16 17 13 15 17 15 15 13 13 14 14 14 15 15 15 16 15 15 15 15 15 14
16 13 12 11 12 8 1 2 6 11 8 19 16 13 10 11 15 16 17 17 20 19 18 17 16 15 14 14 15 14 15 14 13 14 14 12 11 12 13 15 14 14 15 15 15 15 16 16 17
20 17 14 13 12 7 3 3 4 5 10 15 16 14 13 12 13 14 16 17 20 19 19 17 17 15 14 13 14 14 13 14 13 11 11 11 9 10 12 15 14 13 13 14 15 15 16 16 15
22 21 19 17 15 11 8 7 6 8 8 7 20 16 15 12 11 11 14 16 20 20 19 18 16 15 15 12 12 14 11 12 12 10 9 9 8 8 7 10 13 13 12 13 14 14 15 15 12
23 22 24 19 18 14 12 10 8 8 12 19 20 20 16 13 13 13 14 15 19 21 21 19 17 14 14 12 12 12 12 12 11 9 8 8 6 7 6 6 8 10 11 12 12 12 13 13 12
22 23 21 22 21 18 15 9 6 7 9 20 21 24 14 13 16 16 15 16 18 21 19 20 17 13 14 14 14 13 13 12 11 9 8 8 6 7 7 7 6 8 9 9 11 12 12 11 11
25 25 25 22 21 20 18 12 7 10 6 23 24 21 15 15 15 17 15 16 18 20 20 21 20 16 15 14 13 11 12 12 9 9 7 7 7 7 7 6 7 8 8 8 10 12 12 12 12
29 26 27 22 21 22 22 16 12 9 13 20 22 18 15 10 12 16 16 17 19 21 22 22 21 18 14 12 12 11 12 12 10 10 9 7 9 9 8 7 8 7 8 8 10 10 12 12 13
34 31 31 29 22 21 23 18 15 13 15 18 21 18 14 13 15 15 16 17 18 20 22 23 22 19 17 13 12 13 12 10 11 11 10 9 8 9 10 8 7 8 7 8 8 10 10 11 11
35 37 36 29 25 16 21 13 20 18 18 17 24 21 17 17 17 18 19 17 19 23 24 24 23 20 18 16 13 12 10 8 9 12 11 11 10 9 9 9 7 6 6 7 7 9 10 10 10
34 39 37 37 30 23 23 14 24 23 22 16 17 14 20 19 20 21 21 20 23 24 27 26 25 22 19 18 15 13 10 11 12 13 12 13 12 10 11 10 9 7 6 6 8 10 9 9 10
38 33 34 32 33 29 23 23 27 28 21 19 22 27 22 21 19 22 25 25 23 24 28 26 26 24 20 18 17 13 11 12 11 11 13 14 13 12 11 11 11 8 7 5 5 7 10 10 9
37 35 32 31 32 23 28 30 27 29 26 22 18 18 25 25 23 23 25 24 22 22 24 28 27 25 22 19 17 15 14 13 12 13 15 16 14 13 13 12 11 10 8 6 6 8 10 11 11
40 36 29 27 27 25 32 35 33 30 27 26 24 21 22 22 24 17 24 23 22 21 21 24 28 27 25 22 20 17 17 16 14 15 15 16 15 15 13 11 10 9 8 7 7 7 10 12 11
41 42 30 23 24 21 29 43 34 32 29 29 28 23 20 23 26 26 24 23 25 26 23 23 25 28 28 26 22 20 19 19 18 18 18 18 17 15 14 12 10 9 9 8 9 8 8 11 12
42 39 40 36 27 24 27 31 40 35 31 29 28 22 21 22 23 29 27 26 27 27 28 28 29 29 31 30 25 23 23 22 19 19 20 21 19 18 16 14 11 9 8 9 9 8 10 10 13
40 41 40 30 27 24 26 33 30 31 30 27 27 21 23 26 24 26 26 25 27 27 28 29 29 30 32 32 28 26 25 24 22 21 22 22 21 21 19 15 12 11 10 9 8 9 10 11 12
40 41 41 38 37 32 26 34 30 30 28 23 26 26 25 24 35 36 25 22 24 27 28 28 29 30 31 35 33 28 26 25 24 23 24 24 24 24 22 18 16 14 12 12 10 9 8 7 9

GFSSGP_500_spd_081.txt.gz
Wind_Speed
4 3 2 5 8 6 4 8 11 14 11 8 3 5 8 9 11 15 13 13 12 14 14 13 12 11 11 10 9 9 8 7 7 7 6 6 6 5 4 4 4 4 4 4 2 0 5 8 8
4 3 4 7 11 13 5 9 19 16 12 9 5 6 9 12 13 14 15 13 13 14 15 14 14 12 10 8 7 6 5 5 6 7 7 6 6 5 4 4 5 5 4 5 2 3 9 11 8
5 3 4 6 7 4 10 16 18 17 14 11 7 7 10 12 13 12 15 15 13 13 15 14 13 12 10 9 8 6 6 6 8 8 8 8 8 6 6 6 7 6 7 8 9 18 7 21 21
5 3 6 11 10 7 14 22 19 18 14 12 10 10 10 11 15 13 14 16 14 14 14 14 14 12 11 12 11 10 10 10 10 10 10 10 9 8 8 9 8 8 11 12 20 21 23 15 12
6 4 7 12 16 12 19 23 23 20 15 13 11 12 12 12 12 13 14 15 14 14 14 15 14 13 14 14 17 18 18 17 16 15 13 12 11 11 10 11 10 10 12 14 19 18 16 13 12
7 5 9 14 10 20 18 21 21 20 16 12 12 13 13 14 13 12 14 14 13 13 13 14 15 16 16 18 20 20 22 21 21 21 21 19 16 14 13 13 12 12 12 15 15 14 15 14 13
7 6 5 8 8 12 17 20 21 20 16 14 13 13 14 14 12 12 14 16 13 12 11 12 15 16 17 18 20 20 22 21 21 20 21 20 19 16 15 15 14 12 13 14 15 14 14 12 12
6 6 3 4 6 8 12 17 19 21 17 15 14 15 15 16 14 12 13 16 14 13 11 12 15 16 16 17 18 19 20 21 21 19 19 19 19 18 16 16 15 14 13 13 14 12 12 12 11
9 4 3 3 3 5 10 9 22 24 19 17 15 12 15 18 17 14 15 16 14 13 12 11 14 15 16 16 16 17 18 18 19 19 18 16 17 17 17 16 16 15 15 13 12 12 12 13 11
10 6 6 6 2 4 5 14 16 25 23 18 14 12 13 16 18 16 15 16 15 12 13 11 12 15 15 14 14 15 15 15 16 16 18 16 16 16 17 16 17 16 16 15 12 13 12 13 12
11 9 4 6 3 7 10 16 8 13 19 17 15 14 12 13 15 15 14 14 16 14 13 12 12 13 14 14 14 14 15 15 14 14 14 15 15 14 14 15 15 16 16 16 14 14 13 13 13
11 9 7 5 5 4 6 3 8 15 14 15 13 15 15 12 16 16 15 16 16 15 14 13 12 12 13 13 14 14 14 15 15 14 14 14 14 15 15 14 14 15 15 15 14 14 13 13 12
14 11 8 8 8 6 3 6 15 16 21 15 11 13 14 15 16 16 15 15 16 15 14 13 11 10 12 14 13 13 13 13 14 13 13 13 14 14 14 14 14 14 14 14 14 14 13 13 13
15 13 12 11 12 5 2 2 10 17 18 16 14 14 13 15 15 16 17 17 16 16 14 13 12 11 11 11 9 11 12 11 11 11 11 12 12 12 12 13 14 13 13 12 13 13 15 15 15
15 14 13 13 11 6 3 2 3 8 13 19 17 15 15 13 14 14 15 18 17 18 16 12 11 11 10 9 8 11 9 10 10 9 9 12 11 12 11 11 12 12 12 12 13 13 14 15 17
19 15 13 14 13 9 8 6 8 6 7 15 19 17 16 15 14 14 14 16 19 17 18 16 11 10 10 9 9 8 10 9 8 7 7 8 9 11 11 9 11 11 11 10 11 12 12 14 14
24 15 16 20 16 12 10 8 12 7 9 12 18 20 17 16 14 13 14 15 19 19 18 18 14 10 10 9 10 8 8 9 7 5 5 4 6 7 9 10 10 10 8 8 10 11 11 10 11
22 19 19 26 21 15 16 11 10 9 8 16 24 22 16 17 17 15 15 15 17 19 17 17 16 12 11 10 10 9 7 7 7 6 4 5 4 4 7 9 9 9 8 6 7 8 9 10 10
18 20 16 23 20 20 16 12 14 8 6 14 27 24 19 18 18 17 15 15 15 18 18 18 18 14 12 9 9 8 9 8 6 5 4 3 4 5 6 7 7 8 8 7 6 6 7 8 8
26 22 19 30 8 23 15 20 19 10 13 16 29 26 23 18 15 15 15 16 16 19 21 20 20 15 12 11 11 10 11 10 7 6 4 3 4 6 6 7 7 7 6 7 6 5 6 7 10
32 24 28 23 17 19 19 23 21 17 16 14 27 31 20 15 16 17 17 18 17 19 22 22 21 16 14 14 12 11 9 7 7 7 6 5 5 6 9 8 8 8 6 6 6 5 6 7 8
35 28 24 23 20 12 15 19 23 20 16 13 13 13 17 18 18 19 20 20 18 19 22 22 21 19 16 15 12 10 9 10 9 9 8 7 6 7 8 8 7 7 6 6 6 6 5 6 5
29 30 38 26 22 15 14 24 21 29 25 23 24 23 19 17 17 20 21 20 21 20 21 23 22 20 18 16 13 11 10 10 9 9 9 7 6 6 7 8 8 8 7 6 7 8 7 6 6
31 31 33 31 25 24 17 22 26 20 29 23 17 11 17 19 17 22 22 23 23 21 21 23 23 22 19 18 14 13 11 10 9 10 11 10 8 7 6 7 7 8 6 6 5 7 8 7 6
37 34 25 28 28 23 19 22 42 24 25 25 18 15 16 12 18 21 23 23 22 20 19 21 24 23 21 19 16 14 12 11 11 12 13 12 12 10 9 8 7 7 7 6 5 5 7 7 7
46 34 26 22 24 22 18 33 43 38 24 25 22 23 26 20 19 17 20 22 21 20 19 20 24 24 24 22 18 15 14 13 13 13 13 14 14 12 10 9 8 7 7 7 7 6 6 7 7
45 41 26 15 17 21 29 44 43 40 27 29 27 28 16 18 21 19 22 21 24 21 22 22 23 25 26 25 21 18 16 17 15 14 14 15 15 13 12 10 9 8 8 7 7 7 7 8 7
44 37 32 28 23 27 32 35 39 36 31 30 30 28 24 22 23 16 25 25 25 26 27 27 27 27 29 29 25 21 19 19 17 16 16 17 18 16 12 12 10 8 8 7 7 7 7 10 9
44 42 34 27 20 30 23 26 41 34 34 31 29 29 30 28 26 28 30 26 29 29 30 30 30 29 30 30 28 25 23 22 20 18 17 18 19 19 17 15 11 9 8 7 8 8 9 9 10
44 33 39 32 31 27 27 35 35 27 32 35 33 33 32 28 32 31 37 31 28 30 32 32 31 29 29 31 30 27 25 23 22 21 19 18 20 20 20 17 14 11 9 9 9 8 8 10 10

GFSSGP_500_spd_084.txt.gz
Wind_Speed
1 2 5 6 9 10 2 8 14 8 6 9 3 4 6 8 10 14 10 10 11 12 12 13 13 11 9 7 6 9 8 6 5 4 3 3 4 5 6 5 6 6 6 5 4 3 1 5 6
4 2 4 4 8 6 3 7 14 10 8 5 4 4 6 8 12 14 12 10 12 12 13 13 11 8 7 5 6 6 6 5 4 3 3 3 4 5 7 8 9 9 7 6 5 3 1 4 12
5 2 4 6 6 2 3 22 21 13 8 5 8 7 7 10 10 13 12 12 12 12 12 11 10 9 7 5 5 5 4 4 5 5 5 5 5 6 7 8 9 11 21 20 22 22 23 19 17
3 3 5 11 6 7 13 18 17 13 7 7 7 8 8 7 10 12 11 13 12 11 12 12 10 10 9 7 7 6 6 6 6 7 7 8 8 9 10 10 12 13 15 19 24 25 20 15 11
3 7 12 12 11 17 18 18 15 14 8 7 7 8 9 10 10 10 11 13 12 11 11 11 11 12 13 13 14 15 14 13 12 11 11 12 13 14 12 13 13 13 16 21 19 17 16 14 12
4 6 9 12 10 22 17 18 18 14 10 8 8 9 10 12 11 10 12 13 13 11 11 12 13 15 17 18 20 21 21 20 20 18 17 17 16 15 14 13 13 15 17 19 20 19 17 16 15
4 7 7 8 9 18 17 19 18 14 10 7 9 10 10 14 11 11 11 12 13 11 11 12 14 16 18 19 21 21 21 20 20 19 19 18 18 17 14 14 14 14 16 17 19 19 16 17 17
3 6 8 6 3 12 16 23 20 17 11 9 9 11 11 16 13 13 14 12 11 12 10 13 13 15 17 18 19 20 20 18 18 17 17 17 18 17 16 16 15 15 16 17 17 16 17 18 15
6 4 1 3 6 2 10 14 20 15 13 11 9 11 11 15 16 13 13 17 9 10 11 11 13 14 15 16 17 17 18 17 17 15 16 16 17 18 18 17 16 16 17 15 12 13 15 17 15
6 3 3 2 2 2 6 7 20 23 16 12 10 9 11 12 17 14 12 13 11 12 12 7 12 12 13 14 14 14 18 15 14 15 15 17 16 17 18 18 18 17 16 14 11 13 14 18 16
4 7 3 3 2 3 6 8 11 21 20 16 12 10 10 10 12 14 13 12 11 12 10 9 12 11 11 12 13 13 16 14 13 13 14 14 16 17 18 19 15 15 16 15 14 15 18 17 16
9 9 7 4 1 3 3 8 9 17 20 14 12 11 11 11 13 15 12 12 11 8 10 9 10 9 9 10 13 13 14 15 14 13 13 15 17 15 16 17 14 14 13 12 18 16 14 14 17
12 10 9 6 5 3 2 0 9 22 17 13 11 10 9 12 11 13 13 11 12 10 8 7 8 10 10 9 9 11 12 13 13 13 14 14 14 12 16 15 17 13 16 19 16 23 12 14 16
16 12 11 8 8 3 4 3 6 10 24 15 11 10 11 12 13 13 15 13 11 12 9 6 7 8 8 7 6 9 9 11 11 11 12 13 11 10 10 18 12 14 19 18 15 15 16 16 16
16 12 15 12 13 6 2 3 2 14 9 11 11 12 13 13 12 13 14 15 14 12 12 7 6 7 6 5 4 4 6 11 10 10 10 12 10 6 16 11 13 14 17 16 14 16 19 18 18
21 16 13 12 15 9 9 13 8 10 11 18 16 14 15 14 12 12 13 15 15 14 13 10 7 6 5 5 5 3 2 7 8 7 8 10 10 8 11 11 13 11 17 14 12 16 17 17 17
23 17 15 14 15 15 15 11 15 12 9 13 21 18 16 15 13 11 14 15 15 15 14 13 11 8 6 4 5 2 1 5 5 6 7 6 10 9 7 10 10 9 14 12 11 12 13 13 13
21 13 23 19 19 22 18 17 7 6 8 12 19 22 18 16 16 15 15 15 16 16 15 14 12 9 8 5 4 4 1 2 2 4 6 7 7 8 8 9 8 11 11 10 9 9 11 10 9
10 7 28 24 18 20 26 20 17 11 11 10 17 23 21 18 18 18 17 16 14 17 15 15 15 12 9 6 5 5 6 5 3 2 3 5 6 6 7 8 9 9 8 8 9 7 9 8 7
30 23 30 31 25 21 26 19 26 20 12 11 19 28 25 22 20 19 18 17 16 16 18 17 16 12 8 7 7 5 4 3 1 0 2 2 5 4 5 7 6 8 9 8 7 8 8 9 10
35 25 19 25 26 20 23 22 28 16 12 13 14 31 28 24 21 21 18 19 17 16 17 17 17 13 10 10 8 5 2 4 4 1 1 2 3 5 4 4 3 5 8 6 7 7 7 8 7
31 28 28 10 18 27 13 17 18 18 20 14 20 29 25 28 23 23 20 20 20 19 17 17 17 15 12 10 8 5 6 6 5 4 1 2 2 5 5 3 4 4 5 7 8 7 4 3 3
37 25 17 17 18 18 16 16 24 25 25 18 21 16 36 30 24 20 20 20 21 21 18 18 18 17 13 11 8 6 7 9 6 4 4 3 5 5 6 5 4 4 2 3 4 6 5 5 3
40 31 29 23 27 20 19 18 26 30 21 21 25 19 36 31 26 24 16 20 21 22 20 18 20 19 15 13 11 8 9 6 6 6 7 8 9 7 5 6 4 3 1 2 2 4 5 3 3
41 41 29 30 30 23 16 16 35 39 41 23 27 13 19 17 21 17 23 19 17 20 19 20 19 19 17 15 14 10 9 8 8 9 9 11 11 8 5 4 4 3 2 2 2 2 4 4 4
46 39 30 30 26 22 17 28 43 40 11 6 8 14 14 15 31 15 14 19 15 17 18 20 20 20 18 17 15 12 11 10 9 10 10 10 7 7 8 8 7 3 2 1 3 2 3 4 5
33 44 31 21 17 18 26 36 44 43 28 23 20 20 24 17 12 17 17 17 20 16 19 21 22 23 22 20 17 15 12 12 10 9 10 9 12 11 9 9 8 7 4 4 5 5 5 4 5
36 39 39 33 28 23 31 36 43 38 32 27 28 29 26 19 18 19 17 22 24 22 19 22 24 23 25 25 22 18 15 13 12 10 9 11 14 17 11 11 7 7 6 5 6 7 6 6 4
45 42 41 31 21 21 24 34 46 45 32 33 33 30 30 28 26 24 27 34 34 28 24 23 25 25 26 27 27 23 20 16 13 11 10 11 16 14 11 4 8 9 5 4 5 6 6 5 6
49 37 42 36 36 29 35 35 43 34 31 27 32 33 30 30 29 27 32 26 34 30 26 22 25 26 26 26 25 26 23 19 17 15 13 12 14 16 12 13 12 8 4 5 5 6 6 7 7

GFSSGP_500_spd_087.txt.gz
Wind_Speed
3 1 3 5 9 3 11 8 20 13 6 16 11 10 11 9 12 13 11 13 14 14 13 13 12 11 9 7 8 6 5 5 4 5 6 6 7 7 8 9 10 8 6 4 4 5 5 5 9
3 1 4 7 10 7 8 6 18 15 12 9 12 9 11 11 12 12 12 12 13 14 14 12 11 9 6 6 6 5 4 4 4 6 6 6 7 9 10 12 13 13 9 7 6 7 9 7 7
2 4 7 7 4 3 10 19 9 12 9 7 13 9 11 11 10 13 11 12 13 12 12 12 10 9 7 6 5 5 5 5 7 8 9 9 10 11 14 14 14 21 21 21 19 21 19 16 14
0 4 6 9 6 3 12 12 15 13 6 8 9 12 10 11 11 12 12 13 14 12 11 13 12 10 10 9 9 9 9 8 10 10 12 12 12 14 16 15 17 17 18 21 24 21 16 13 12
2 9 7 12 9 19 18 15 14 15 10 10 10 12 14 12 12 12 13 13 14 12 13 14 14 15 15 15 15 15 14 13 13 13 14 15 16 17 18 17 20 20 19 17 19 18 15 14 11
6 13 11 9 14 19 18 16 13 11 9 8 11 12 14 15 12 12 13 12 13 13 14 16 17 18 18 19 20 20 20 19 18 17 16 15 17 18 18 18 20 20 19 20 20 17 17 16 16
5 10 7 9 17 21 21 13 12 11 8 8 10 10 12 17 15 13 14 13 14 13 15 16 17 19 19 20 20 20 20 20 20 18 16 15 17 18 17 17 18 18 19 19 18 18 16 17 16
4 1 6 9 7 14 16 13 8 8 8 7 10 11 10 15 15 14 16 13 13 13 15 16 17 19 18 19 20 19 19 18 18 18 18 16 16 18 16 16 17 17 18 18 18 18 18 20 17
2 2 5 10 7 8 9 12 11 7 5 7 9 10 12 13 14 14 13 14 13 13 16 15 16 15 15 17 18 17 18 17 18 17 18 17 15 16 17 16 16 15 17 18 18 18 19 21 20
5 8 10 10 5 6 9 12 15 11 9 5 7 8 9 11 14 13 13 13 11 13 14 14 14 13 13 14 15 14 15 17 16 18 16 15 15 16 18 18 15 13 18 18 20 15 19 22 22
5 7 7 3 6 4 2 8 20 16 12 9 8 10 11 9 11 10 11 11 10 12 14 13 13 13 12 12 15 14 15 14 14 17 15 16 16 17 17 17 15 15 21 21 21 16 17 21 23
7 11 6 3 5 2 5 9 6 20 11 9 8 9 12 9 10 11 13 10 10 10 10 12 12 13 11 12 13 15 13 15 15 15 15 15 17 18 16 17 18 17 23 20 18 17 15 18 23
5 10 4 2 5 4 2 8 11 14 13 11 9 8 11 11 11 11 13 9 11 8 9 10 10 12 11 11 12 14 11 11 14 16 14 15 13 14 15 17 19 20 19 19 18 19 15 20 22
12 11 12 9 6 1 4 6 5 13 19 14 9 10 9 10 13 11 10 13 11 10 9 6 7 8 9 8 12 12 10 10 11 13 13 16 14 14 19 17 16 19 21 19 21 21 22 22 22
15 11 13 10 8 8 2 4 9 14 17 14 10 9 8 8 9 12 13 10 11 10 8 8 6 7 5 7 10 8 11 9 12 13 13 13 14 14 19 15 16 19 18 21 24 25 24 22 21
18 15 16 13 13 8 4 8 8 12 15 14 11 9 10 9 9 7 9 11 9 10 10 8 7 8 6 4 7 8 10 9 10 12 11 10 11 15 14 16 16 18 19 20 22 23 23 21 18
25 21 17 18 14 9 10 12 10 10 12 16 15 12 11 11 11 10 9 12 12 10 10 9 7 8 7 6 4 6 7 9 10 10 11 10 8 12 14 13 14 15 15 18 17 18 17 15 15
20 14 14 16 18 12 15 12 14 13 10 12 18 17 14 12 14 13 12 12 13 13 11 8 6 5 5 5 3 3 5 8 9 9 11 10 9 9 12 10 11 13 14 14 15 14 14 12 13
22 9 13 22 23 10 19 21 12 7 10 11 14 18 18 14 16 16 14 14 14 14 13 11 9 6 5 3 3 4 3 5 5 6 9 7 8 8 10 10 10 10 11 13 11 11 12 11 11
28 23 23 29 19 26 26 23 17 15 13 14 12 17 19 19 15 15 15 14 15 16 15 14 12 7 5 6 6 4 4 3 4 5 5 6 7 7 7 9 7 8 10 10 11 10 10 11 12
31 36 25 26 30 35 46 11 19 16 27 19 11 13 23 23 18 16 16 17 17 16 17 15 13 10 8 7 6 5 3 2 3 2 3 5 6 7 8 7 8 8 8 10 9 9 12 11 12
33 32 14 25 18 23 17 16 7 14 20 14 13 16 18 30 21 20 19 18 19 18 17 16 13 12 10 7 7 4 2 1 1 1 1 4 5 5 5 7 7 7 7 8 8 8 9 11 10
32 32 14 24 24 21 5 13 13 16 17 17 15 13 23 27 24 22 20 20 21 19 17 18 16 14 11 8 7 4 1 1 2 1 2 3 5 5 4 3 7 7 8 6 5 7 5 4 7
37 27 25 27 27 16 9 14 14 11 16 17 16 22 22 21 23 24 23 19 22 20 19 18 17 18 15 12 9 5 3 3 3 1 3 4 3 3 4 3 4 5 6 8 6 5 5 4 5
45 40 33 27 24 19 9 16 22 19 18 18 27 27 22 19 30 28 25 17 18 17 18 18 18 18 17 15 12 9 5 5 3 4 5 6 6 4 3 5 1 3 4 7 6 5 5 4 4
47 45 35 20 16 18 14 26 27 30 25 24 14 20 17 19 32 28 29 23 16 16 17 18 19 18 18 17 14 11 7 6 5 5 4 6 4 7 6 3 2 1 1 5 5 5 4 4 3
46 54 41 17 18 17 24 30 32 29 29 27 26 13 14 15 14 32 24 23 22 19 19 20 22 23 22 20 17 14 11 9 8 6 6 5 8 5 4 5 5 3 1 1 3 2 3 3 2
43 46 41 32 28 18 22 27 33 30 29 25 20 21 18 15 8 7 16 25 24 25 22 24 24 25 26 24 22 19 15 12 10 9 7 6 6 9 9 8 7 5 4 4 4 2 0 2 2
40 48 48 39 34 31 29 26 29 35 32 33 27 22 20 17 18 18 22 24 20 29 27 24 24 28 27 27 26 23 20 16 13 11 7 6 7 9 12 10 7 6 5 5 5 4 3 3 4
41 46 51 47 38 28 29 31 35 29 27 27 27 27 26 21 20 20 19 17 23 32 32 27 23 28 28 29 29 26 23 21 18 16 12 9 8 10 12 13 9 10 8 7 7 6 5 4 6

GFSSGP_500_spd_090.txt.gz
Wind_Speed
3 2 4 6 7 21 21 11 9 7 15 14 18 15 12 11 14 16 17 16 15 17 14 13 12 11 10 9 8 6 5 5 6 8 8 8 9 9 10 10 7 3 2 4 6 8 9 11 12
4 3 6 6 7 12 16 13 11 10 14 14 14 17 13 14 12 19 18 15 16 16 13 11 10 9 8 8 6 5 5 6 7 7 7 8 8 11 11 13 12 10 4 6 8 10 7 8 11
3 5 8 8 6 9 14 10 8 10 12 14 16 14 14 15 12 19 17 14 16 14 13 12 11 9 7 6 7 7 7 7 9 9 9 8 10 11 12 13 14 16 15 16 21 19 16 15 12
3 3 5 3 1 8 13 15 12 11 12 12 12 12 12 13 15 17 14 16 15 14 14 14 13 13 11 10 10 10 10 10 11 11 11 12 13 13 14 13 15 16 22 22 20 16 14 14 13
4 6 7 5 4 14 15 15 10 11 13 13 10 11 12 11 16 15 15 15 16 17 17 18 18 18 17 16 14 14 14 14 13 12 12 13 15 15 16 16 16 17 18 19 18 15 13 13 12
1 1 4 1 22 19 12 16 12 13 9 13 12 11 12 13 16 15 15 16 17 18 18 20 19 20 20 20 19 18 17 17 15 15 14 15 16 18 18 18 18 19 19 20 19 15 14 14 15
1 10 13 21 17 21 11 13 14 9 12 14 13 14 11 14 15 16 16 16 16 19 18 20 20 20 20 20 20 21 19 18 15 14 14 15 16 17 18 17 16 17 17 18 18 17 15 12 11
2 10 11 14 16 26 18 10 11 9 11 14 12 13 10 12 14 19 16 15 16 17 17 19 20 20 19 20 20 20 19 16 15 14 14 15 15 17 16 17 16 17 17 18 17 17 17 15 12
1 3 8 12 16 17 12 10 7 9 9 12 13 13 14 12 15 16 16 16 16 16 16 19 19 17 18 18 18 19 19 17 15 15 15 14 15 17 17 16 15 15 17 19 17 17 19 19 22
2 5 19 11 12 7 13 11 10 6 10 12 13 13 13 11 15 15 15 15 16 15 15 19 18 15 15 16 16 17 18 17 15 14 16 16 17 19 19 17 14 16 18 20 19 17 20 21 22
6 13 14 9 8 9 6 8 14 8 6 11 12 14 11 13 12 11 15 14 14 15 16 15 17 16 16 15 16 17 17 18 16 14 16 16 18 19 18 17 19 17 18 18 20 19 20 20 25
9 10 12 11 7 7 6 9 17 13 7 8 9 13 11 13 14 13 14 13 11 13 14 14 15 15 18 15 16 16 17 19 17 15 17 16 17 19 20 19 20 17 17 17 19 21 22 25 27
11 4 6 9 7 6 5 13 14 19 9 9 9 13 12 13 15 11 12 13 12 10 12 11 14 12 18 14 15 14 14 16 17 14 17 15 18 17 22 18 19 19 18 17 19 24 24 27 28
13 14 14 11 10 7 2 7 12 15 13 11 9 12 12 11 13 12 11 13 12 11 11 11 11 13 13 14 13 13 14 13 13 15 15 15 17 19 21 20 21 19 19 19 20 23 25 25 24
15 12 10 10 7 7 5 2 7 14 19 13 12 13 13 13 12 14 12 11 11 11 10 11 8 8 12 12 12 11 14 10 12 14 12 18 17 16 21 19 20 22 22 22 24 25 25 22 22
20 18 15 13 7 6 7 7 14 13 17 15 11 10 12 13 15 12 12 11 9 9 10 12 8 6 11 10 11 9 10 8 10 12 13 16 14 16 18 20 20 21 21 22 23 24 22 21 20
25 18 17 15 15 7 6 9 13 15 21 17 14 10 10 11 14 15 14 14 14 12 10 10 9 6 9 9 10 8 7 9 11 8 10 14 15 16 14 16 18 18 19 17 20 19 18 17 16
20 23 18 14 14 9 9 10 9 9 21 17 17 12 9 8 11 10 11 12 10 9 9 8 8 7 7 7 8 8 6 8 8 9 9 9 12 13 15 13 16 16 16 15 15 16 15 14 15
22 23 26 18 20 18 15 15 11 7 10 12 14 15 11 10 11 13 13 13 11 11 10 10 9 8 8 7 7 8 10 7 8 7 8 5 7 10 13 12 12 14 13 13 13 11 12 12 11
25 30 30 27 22 20 22 18 17 11 10 13 12 15 15 14 11 10 10 13 14 14 12 12 11 7 5 6 7 5 6 6 7 8 7 7 6 7 9 10 11 12 12 12 13 10 9 12 11
29 33 29 25 21 21 24 14 15 23 17 12 12 12 16 18 13 10 11 14 13 15 16 13 12 9 6 6 7 5 6 5 4 6 5 8 8 8 8 7 8 9 11 11 11 13 12 12 11
30 31 29 27 28 19 9 14 15 20 22 19 16 12 15 18 19 16 14 13 16 16 17 15 12 12 8 6 5 5 5 4 3 4 5 6 7 8 7 8 9 8 7 9 9 12 11 10 10
29 31 30 25 15 12 12 9 12 9 23 19 17 14 12 14 18 22 16 17 18 17 18 18 16 15 12 10 8 5 4 4 3 4 7 7 7 6 8 7 8 8 7 7 7 9 10 8 8
33 35 36 24 23 21 15 16 12 9 8 11 15 13 13 18 13 21 20 21 21 19 19 19 18 19 17 14 12 8 5 5 5 6 8 9 6 6 8 7 7 7 5 7 10 8 8 7 8
40 39 33 32 30 11 16 20 11 9 7 10 11 8 17 17 27 21 24 20 22 20 21 21 21 19 19 17 16 12 7 5 5 5 7 7 8 6 6 7 9 9 6 6 6 9 8 8 8
44 41 41 37 29 17 19 18 14 12 12 9 5 3 13 15 17 21 26 23 22 23 22 21 21 22 22 20 17 14 10 7 5 5 6 7 8 7 7 5 6 8 7 4 4 7 8 8 7
48 47 38 34 28 28 23 19 14 15 14 15 9 5 13 8 15 17 30 27 25 23 21 24 25 25 25 23 19 16 15 11 8 7 7 7 9 9 9 9 8 7 9 7 5 5 7 6 7
47 49 40 39 36 25 21 18 23 24 22 22 12 8 7 9 16 20 32 33 27 21 23 23 25 27 29 27 24 20 17 13 11 9 10 9 9 10 10 10 9 7 6 7 7 7 7 7 7
45 54 50 44 38 21 19 25 22 23 21 22 19 16 13 12 12 7 24 35 29 24 26 25 27 27 29 31 29 24 20 17 15 13 11 11 13 14 13 13 11 9 9 8 6 6 7 8 8
41 44 50 47 38 30 31 32 24 23 23 23 24 21 18 19 13 10 13 15 20 32 14 33 31 27 29 27 29 27 26 23 19 15 14 14 15 17 18 17 15 14 13 11 11 9 8 7 9

GFSSGP_500_spd_093.txt.gz
Wind_Speed
5 5 8 10 19 16 14 19 9 15 18 18 16 17 15 15 15 15 14 13 11 13 12 11 10 9 8 9 9 10 10 10 9 9 10 10 9 9 9 8 6 2 1 4 7 9 11 12 12
4 6 8 5 6 12 9 12 9 14 18 16 16 18 18 17 17 16 16 13 11 11 10 9 8 7 7 7 7 7 7 8 9 9 9 9 9 9 11 12 11 6 4 6 7 9 12 13 14
3 7 10 8 5 14 10 14 14 10 20 17 17 15 18 19 17 19 16 14 11 11 10 9 8 8 7 6 6 7 7 8 9 10 9 8 10 11 12 12 14 13 14 17 18 18 14 11 9
4 10 10 7 4 19 11 12 9 13 17 18 17 17 16 17 17 19 16 15 13 14 13 12 11 10 9 8 9 8 8 9 8 9 9 10 11 11 10 13 19 22 20 18 15 15 15 13 14
6 9 9 7 1 13 16 10 6 11 19 16 18 17 17 15 17 19 17 14 17 19 17 18 18 16 15 13 11 11 10 9 9 9 9 10 11 13 14 15 18 18 17 15 16 13 12 13 16
6 18 3 6 18 18 21 10 7 10 13 14 15 15 15 15 17 19 18 16 18 20 19 20 21 21 19 17 15 14 12 10 10 10 10 13 14 13 15 17 18 17 16 16 15 13 13 13 13
5 7 1 18 22 19 14 9 10 8 12 13 12 16 12 11 16 19 18 17 18 20 20 22 23 22 21 20 19 16 14 12 13 12 14 14 13 13 15 16 16 15 15 14 13 12 12 11 15
2 3 7 10 27 20 20 11 10 9 10 12 9 18 12 9 14 18 17 17 19 20 20 22 22 21 20 20 19 17 16 16 15 14 14 12 12 13 14 14 16 16 15 14 13 15 11 14 16
2 6 7 11 17 20 15 13 11 13 10 9 8 14 17 12 12 17 18 17 18 18 18 20 21 19 19 19 18 18 17 17 17 16 15 14 11 13 13 14 15 16 14 16 16 18 20 21 19
4 9 7 14 22 20 14 9 16 13 11 12 9 11 18 14 14 16 17 18 17 17 18 19 19 18 18 17 17 17 17 15 15 16 17 13 13 15 14 15 16 15 15 17 18 19 21 23 25
8 15 15 13 12 12 15 8 13 10 10 10 13 12 13 12 12 14 15 17 17 15 16 18 18 19 16 16 16 17 16 16 16 17 17 15 12 14 17 17 18 19 15 15 18 21 22 25 27
4 4 15 11 10 11 11 15 13 16 8 11 12 14 14 14 14 12 18 16 15 15 13 16 17 19 16 15 16 16 16 15 17 17 17 15 15 17 15 16 17 19 18 15 18 21 24 27 28
9 7 2 11 7 7 11 15 17 16 12 12 12 17 15 13 14 11 14 14 12 14 13 14 16 17 17 14 15 15 15 16 15 17 18 16 16 17 17 17 18 18 19 16 20 23 27 25 25
13 9 9 10 11 8 14 5 13 16 14 12 12 17 17 10 10 10 11 12 12 13 12 14 15 14 16 13 14 14 16 15 15 16 18 16 14 19 18 18 17 18 20 21 24 25 23 22 22
16 13 14 9 13 7 6 9 11 13 14 12 11 12 18 14 12 11 11 11 8 11 12 11 12 12 14 12 14 11 15 15 14 15 13 15 15 16 19 18 19 20 21 22 24 23 21 20 19
23 13 13 11 9 9 9 8 7 14 13 14 12 14 15 19 15 13 11 11 10 8 9 11 11 10 12 11 14 11 12 14 12 14 14 15 16 15 19 19 19 21 23 22 21 20 19 18 16
20 20 16 14 10 8 8 6 15 15 16 19 16 14 15 14 14 15 14 13 11 10 8 9 10 8 8 10 13 11 11 10 11 13 13 14 15 15 16 19 18 20 22 21 20 19 17 17 13
19 23 19 15 15 11 9 6 12 3 17 17 13 15 15 17 16 16 15 13 12 11 9 9 9 10 9 9 9 10 11 7 8 11 11 11 12 15 15 15 16 16 17 16 16 16 17 16 14
19 25 27 25 20 17 14 14 9 8 11 25 22 14 15 15 18 18 17 17 15 14 13 10 9 7 6 7 8 8 8 8 7 8 10 9 10 10 13 14 12 14 13 12 13 14 14 12 11
21 24 26 29 21 19 24 21 15 11 10 17 21 18 17 14 13 15 16 15 17 16 16 13 11 7 5 4 7 6 4 7 6 7 8 10 11 9 9 12 11 11 12 10 10 13 12 10 10
26 26 29 28 28 18 17 19 23 17 18 14 14 16 16 14 14 14 16 16 16 17 16 13 12 11 8 8 9 9 7 5 6 7 8 9 9 10 10 9 9 9 10 10 9 13 11 8 9
32 26 30 30 27 30 21 7 13 21 20 17 16 17 12 14 18 18 17 17 16 16 17 16 14 14 12 10 9 8 8 6 6 6 8 9 9 8 7 8 10 8 8 8 10 11 10 8 7
29 30 34 33 30 31 26 12 3 9 19 23 34 12 9 15 16 17 12 14 17 18 17 17 15 13 12 10 10 8 7 8 7 6 8 8 10 10 9 8 7 9 8 8 9 9 9 9 8
34 37 35 31 33 22 15 11 9 5 10 20 20 21 16 13 20 19 16 13 12 14 17 17 17 17 15 12 11 9 5 5 6 7 8 9 8 10 9 9 9 8 8 7 7 10 9 9 9
43 45 36 33 31 26 21 14 13 10 14 12 16 20 17 16 15 21 16 17 14 14 17 18 19 19 18 16 14 11 8 6 7 8 11 9 9 9 9 9 9 7 8 8 7 6 8 8 9
42 46 44 39 33 26 17 17 18 17 17 13 8 11 14 21 15 18 32 27 24 18 17 20 20 21 21 19 18 16 12 10 9 10 10 11 12 11 11 10 9 10 8 7 8 9 9 9 9
43 49 43 40 37 37 28 20 22 21 18 15 10 6 13 8 13 18 15 13 24 23 20 20 21 23 25 24 21 18 16 12 12 13 13 13 14 14 13 12 12 11 12 11 10 11 10 11 12
45 44 46 48 41 38 34 26 28 24 19 16 9 8 10 10 11 13 12 18 22 19 21 21 24 25 27 26 26 24 21 17 15 13 13 14 15 15 14 14 12 12 13 12 12 12 12 12 13
44 45 49 47 45 39 33 34 26 26 24 18 14 12 12 10 11 10 11 16 23 23 26 25 25 25 25 25 26 26 25 22 19 17 16 17 17 18 15 14 14 14 13 12 12 12 11 11 12
44 46 47 52 45 42 39 34 38 28 23 20 21 24 20 18 16 9 9 20 32 35 38 27 22 26 26 28 28 29 28 24 22 20 19 18 19 18 19 18 18 17 16 14 13 13 13 12 11

GFSSGP_500_spd_096.txt.gz
Wind_Speed
9 6 7 10 16 13 13 11 10 14 17 16 16 13 13 14 15 14 12 12 12 11 13 12 12 12 12 13 12 12 11 10 10 10 10 11 11 13 12 9 6 4 7 9 10 11 12 13 13
11 7 5 5 10 11 16 10 11 13 19 19 16 16 15 14 14 16 15 12 11 10 11 10 11 11 10 11 11 12 11 11 9 10 11 11 12 12 12 10 8 7 8 8 9 13 15 14 14
10 7 8 12 10 10 13 11 9 14 18 19 17 16 17 16 15 16 14 12 11 9 10 10 11 11 11 11 11 11 10 10 9 11 12 13 13 15 16 15 15 17 18 18 15 12 14 14 13
8 10 14 11 22 16 16 13 11 15 15 18 18 17 16 17 16 15 16 13 11 12 12 13 13 12 11 11 11 11 11 10 10 12 13 13 13 15 17 20 21 20 17 15 14 15 15 13 15
7 9 13 6 17 19 14 11 11 15 17 17 17 18 18 18 17 18 17 15 14 17 18 17 16 14 12 11 12 11 11 12 13 13 13 14 16 16 15 16 16 15 14 13 12 11 14 16 16
9 11 2 6 14 15 17 12 14 15 15 17 17 17 17 19 18 20 18 16 15 17 20 20 18 17 14 13 13 14 13 13 13 13 15 14 16 17 16 15 15 14 12 13 14 13 13 15 17
5 9 6 18 21 24 14 12 16 17 16 17 19 18 17 17 16 20 19 17 17 18 20 20 20 20 18 14 15 16 14 14 15 14 14 15 15 15 14 13 14 14 14 13 11 11 14 15 14
9 5 11 19 17 25 11 5 13 15 19 16 18 21 19 14 14 19 18 17 18 19 19 20 21 20 18 15 15 17 17 18 16 15 13 14 15 13 13 12 14 16 15 14 12 11 14 17 14
7 1 11 17 20 13 11 12 10 14 18 13 12 14 21 14 13 18 18 17 17 19 19 19 19 19 18 17 16 16 18 19 18 15 16 15 13 13 13 13 15 16 16 17 20 23 20 15 16
5 5 5 19 23 19 14 11 13 16 17 17 13 8 19 16 13 17 18 18 17 17 18 18 19 18 18 17 15 16 18 18 17 16 16 14 13 15 14 13 16 17 17 20 20 21 20 22 21
4 3 8 16 29 22 17 10 10 15 13 13 19 10 17 17 15 15 18 18 17 17 17 18 19 18 18 17 16 16 17 17 17 16 16 16 15 15 15 14 18 19 17 19 23 22 22 24 24
5 3 8 9 14 17 15 11 8 12 14 14 12 16 15 15 14 14 17 17 17 17 17 17 17 18 19 17 18 17 15 16 17 16 17 15 15 16 15 15 17 20 19 19 22 26 26 25 24
7 6 11 12 13 18 18 14 8 13 9 14 14 15 14 13 15 12 14 17 16 15 17 17 15 15 18 17 18 18 15 13 14 15 19 15 16 16 17 17 16 20 22 23 25 25 23 23 22
11 8 10 17 16 18 15 17 18 12 12 13 14 14 15 15 14 15 14 15 16 15 16 15 15 13 16 16 16 16 17 14 12 14 16 17 15 14 17 15 16 20 24 25 25 24 21 20 20
14 12 10 6 19 19 15 7 16 18 14 14 16 13 13 16 13 12 13 15 14 14 14 14 14 14 13 15 15 14 16 15 12 10 13 16 17 16 15 16 17 21 23 21 22 21 19 18 17
15 12 8 11 15 12 19 12 12 18 15 13 14 15 15 17 16 14 13 13 15 13 12 12 14 12 11 13 14 14 12 14 13 13 12 13 15 16 17 17 19 20 21 20 19 19 17 15 14
19 14 11 10 8 11 12 8 7 8 14 14 14 16 16 16 16 14 12 11 13 13 12 12 13 13 12 12 13 13 13 11 12 11 11 12 14 14 16 19 19 18 17 18 17 16 15 14 13
20 21 19 15 16 13 11 7 3 7 18 18 16 16 18 19 19 17 14 12 11 11 12 12 13 12 12 11 12 13 13 11 10 9 9 10 11 14 14 15 15 15 15 14 14 12 11 10 12
21 20 18 19 19 17 12 9 7 11 6 13 19 16 20 19 19 19 18 15 14 11 10 10 12 13 11 11 10 12 11 11 8 8 9 9 9 10 11 11 12 12 12 12 11 11 11 9 9
25 22 20 22 16 14 14 17 14 11 15 21 25 23 19 16 16 16 18 19 16 14 13 11 9 10 10 10 11 10 8 6 7 9 9 10 9 8 9 8 9 9 10 11 11 10 10 9 7
28 25 24 25 25 20 26 21 16 16 14 18 28 24 20 19 18 16 18 18 19 18 15 11 10 9 9 10 10 10 9 4 5 8 9 10 10 10 8 7 7 7 7 8 10 9 8 7 6
30 26 28 23 30 28 23 20 16 16 17 17 22 30 26 23 21 22 19 20 21 20 17 15 13 11 8 7 8 8 8 7 6 6 9 12 12 11 10 10 9 8 6 6 8 8 7 6 6
32 32 32 31 34 30 22 22 16 17 22 21 17 23 20 26 22 18 15 16 18 18 18 17 17 15 11 10 9 9 9 7 7 7 9 10 11 12 11 12 10 9 8 7 7 6 4 3 5
37 39 33 40 33 28 24 21 20 18 13 22 22 25 24 22 23 22 20 16 17 16 15 17 18 18 16 14 13 10 10 9 9 10 9 10 10 10 10 10 10 11 10 9 9 8 7 5 5
42 46 39 37 29 21 26 20 20 15 16 8 18 20 25 18 20 23 20 19 16 15 15 16 19 18 19 17 17 15 12 11 10 12 12 11 12 11 11 9 8 8 10 11 11 10 10 9 8
42 45 44 38 36 20 25 23 16 19 16 10 10 16 23 15 13 14 18 18 19 15 15 17 17 19 19 20 18 17 14 12 12 12 13 13 12 13 12 10 9 9 10 10 10 11 11 11 10
43 46 40 40 36 32 26 21 24 21 14 17 13 12 15 21 18 12 25 30 24 23 21 19 21 19 21 20 20 20 17 15 14 15 14 15 13 14 13 13 12 12 10 9 11 11 12 11 11
43 43 46 44 43 37 31 23 21 22 18 17 17 16 13 13 14 13 21 19 15 19 23 22 21 22 21 21 22 21 20 17 16 17 17 18 17 18 15 14 13 11 12 12 10 10 11 12 12
44 44 46 45 46 42 36 30 22 22 20 23 20 18 16 15 16 16 14 16 21 29 22 22 21 21 22 23 24 24 23 21 19 19 19 20 20 19 19 18 16 15 15 14 15 13 13 12 12
44 45 43 45 45 45 42 36 31 27 25 25 25 23 20 19 15 12 12 16 17 32 29 24 22 19 21 24 26 27 27 25 23 21 21 21 21 21 22 21 20 18 18 17 16 15 13 13 13

GFSSGP_500_spd_102.txt.gz
Wind_Speed
11 8 12 7 9 11 12 13 13 13 13 13 14 15 17 16 16 17 14 13 13 13 14 13 14 14 12 12 12 13 13 12 11 12 11 10 9 8 7 8 8 9 9 11 12 12 12 12 12
8 6 6 5 6 10 12 11 12 14 14 13 14 15 16 16 16 15 15 13 11 10 10 11 12 11 11 12 13 14 13 13 13 13 12 11 9 8 9 8 9 11 10 11 12 14 14 13 13
6 4 9 9 7 8 10 11 12 11 14 13 15 14 14 15 14 13 13 13 11 10 9 9 9 9 10 12 13 14 13 13 13 13 12 14 13 13 13 13 12 10 11 12 13 14 15 14 14
5 5 9 7 15 10 11 14 15 12 13 14 17 16 15 13 16 15 14 12 11 10 10 11 10 11 12 13 13 14 14 14 14 15 15 18 18 19 19 18 16 14 12 14 14 15 15 14 15
5 10 2 20 19 14 15 15 16 15 14 15 16 17 16 15 17 18 19 17 15 12 12 13 13 13 13 15 16 16 15 16 17 18 17 18 17 17 15 14 13 12 12 13 13 14 14 14 15
3 9 8 18 20 19 17 18 16 16 14 16 18 16 16 16 17 19 19 19 18 15 14 15 15 15 14 15 15 14 16 17 16 18 18 18 16 15 14 12 11 12 11 13 13 16 17 16 16
6 10 20 21 16 17 17 18 17 16 15 15 18 17 17 17 16 17 18 18 18 16 16 16 16 16 15 13 14 15 16 16 15 19 16 16 15 14 13 11 9 10 11 14 15 15 17 16 17
7 6 16 20 17 16 17 17 18 15 15 16 18 19 18 17 16 16 17 17 16 15 16 16 15 15 16 14 15 16 17 16 17 17 15 16 14 13 12 11 9 9 12 14 15 15 13 15 17
3 8 15 24 21 20 20 18 17 15 14 16 17 17 18 19 16 16 16 17 15 14 16 17 16 16 16 16 17 18 18 17 15 14 14 14 14 14 14 14 12 13 15 15 15 15 11 16 17
4 4 14 25 23 21 20 22 22 19 15 14 15 15 18 20 15 15 16 16 15 15 17 18 18 17 17 18 19 18 17 17 15 14 14 13 13 15 14 14 15 18 17 18 18 13 15 16 17
5 6 9 16 24 21 21 20 21 23 18 19 19 17 18 20 16 14 16 16 16 17 17 19 19 19 18 19 19 18 17 17 17 15 15 15 15 15 15 15 18 19 17 17 16 17 17 17 18
8 5 4 14 18 20 21 23 20 20 20 19 22 23 20 19 17 14 14 16 16 17 17 18 18 18 20 20 18 18 18 17 17 16 16 16 15 16 16 16 18 19 18 18 19 19 20 21 22
10 8 9 20 20 20 22 24 23 21 20 19 20 21 22 20 18 16 14 14 15 16 17 17 17 17 18 19 17 17 17 18 17 16 16 16 16 17 16 18 18 19 20 21 20 20 21 23 24
11 10 6 25 31 24 21 21 24 25 23 20 19 22 23 23 20 17 15 13 14 15 16 16 14 16 16 18 18 18 16 16 16 15 14 16 16 17 18 19 20 20 19 18 19 19 19 20 21
12 8 7 15 28 26 25 21 21 23 23 25 20 20 22 21 20 18 15 12 12 13 15 15 14 14 15 15 15 15 15 16 16 15 14 15 16 16 19 20 20 19 18 17 17 17 17 17 18
14 10 8 7 21 28 27 26 23 22 24 24 24 20 21 21 19 17 15 12 11 11 12 13 12 12 13 14 15 15 14 13 15 15 15 14 14 16 17 18 17 17 16 15 14 15 15 16 17
13 12 13 12 13 27 28 31 27 25 26 24 26 23 20 21 19 17 13 12 11 11 10 12 11 11 11 11 13 15 14 14 13 14 15 15 14 15 15 14 13 13 13 12 12 12 12 13 14
20 15 14 16 20 18 28 32 30 22 25 25 24 24 23 22 21 19 16 13 12 11 10 11 11 12 11 10 11 12 13 14 14 14 13 14 13 13 12 12 12 11 10 10 9 9 10 12 12
22 19 17 13 13 9 12 25 33 24 29 20 24 25 25 24 21 20 19 16 13 12 11 10 11 11 11 10 10 10 11 11 11 12 12 14 13 12 10 10 9 8 8 7 8 8 9 10 10
23 24 20 6 15 9 12 11 21 18 18 19 22 23 24 23 21 19 20 19 16 14 13 11 11 11 11 10 9 9 9 9 10 10 10 9 10 9 8 7 6 5 5 5 6 7 7 7 8
26 27 27 15 14 16 9 16 16 17 20 21 23 24 22 23 23 23 21 20 19 16 14 13 11 10 10 10 8 9 8 10 10 9 9 9 7 8 7 6 5 5 3 3 3 3 5 6 6
33 28 27 23 15 17 15 11 21 19 18 23 24 20 23 23 25 27 25 22 20 18 16 15 13 12 11 10 10 9 7 7 9 9 7 10 10 8 6 6 5 5 4 2 2 2 3 3 4
33 31 29 24 22 19 18 13 14 12 1 3 18 19 23 25 25 24 24 23 22 20 19 18 16 13 12 12 10 9 7 5 5 7 7 8 9 8 8 7 7 6 4 3 4 2 1 2 3
33 33 32 28 22 20 18 12 11 10 7 9 7 17 28 23 24 25 25 23 22 22 21 21 19 16 13 12 11 10 8 7 7 6 6 6 8 8 7 8 10 9 7 5 4 4 2 2 2
34 37 30 27 27 20 21 18 18 14 10 8 6 12 9 25 26 23 20 20 20 21 23 23 22 20 17 14 13 12 11 9 7 6 7 8 9 8 7 7 7 8 9 8 8 7 5 4 1
36 38 32 29 21 19 21 15 17 16 14 10 12 9 8 19 31 23 21 20 20 23 25 26 25 23 20 18 16 15 13 11 8 6 8 9 9 8 8 7 6 6 8 8 9 8 7 5 4
36 42 38 28 26 22 20 24 20 18 15 12 13 13 15 19 24 23 24 23 23 23 26 27 26 24 22 21 19 17 15 13 10 8 8 10 9 8 9 9 8 6 7 8 9 8 8 7 7
41 37 36 37 23 20 18 19 15 17 14 13 14 16 17 19 30 29 28 26 26 24 24 24 26 25 24 23 22 20 19 16 14 12 8 9 12 12 11 12 9 9 8 7 8 7 8 9 8
40 38 39 28 29 21 20 18 24 14 18 16 17 16 22 21 23 27 19 28 31 30 27 23 23 22 24 25 24 23 23 21 20 17 13 11 12 11 14 14 12 11 12 11 9 9 9 10 11
42 41 39 38 33 32 23 23 21 24 19 22 22 17 18 21 19 14 22 22 24 32 36 14 30 32 26 24 26 28 25 25 24 23 20 15 13 12 13 14 15 17 14 12 13 12 12 11 12

GFSSGP_500_spd_105.txt.gz
Wind_Speed
10 9 11 6 9 11 11 10 12 10 9 11 10 10 13 11 13 17 14 14 13 12 12 13 13 12 11 11 11 10 11 12 11 9 7 6 6 5 6 7 8 8 8 8 9 9 9 9 10
7 3 6 5 6 10 9 10 10 11 13 10 11 10 10 11 12 13 13 11 9 8 9 10 11 10 10 10 10 9 10 11 10 8 7 5 6 5 5 5 5 7 8 9 10 11 10 11 12
6 5 5 4 12 10 9 10 10 11 12 11 12 11 10 10 10 11 9 10 9 9 8 9 9 10 10 12 11 12 12 12 11 10 7 7 8 7 7 7 7 8 9 11 12 12 11 12 14
6 7 9 16 10 10 12 12 13 11 11 12 14 13 13 11 10 10 8 7 7 8 7 8 9 10 11 11 12 12 12 11 12 13 13 15 15 16 14 13 10 9 11 12 12 13 12 13 14
6 8 4 14 13 10 12 13 14 13 11 11 14 14 15 13 13 13 12 11 9 9 9 9 10 12 12 13 14 14 13 13 13 14 16 16 15 13 12 11 12 11 11 12 15 15 12 14 15
7 7 12 17 14 12 13 14 14 13 12 12 15 14 15 14 15 15 16 14 14 13 12 12 13 14 14 13 14 15 14 15 16 16 17 14 13 12 12 11 10 10 10 11 13 13 13 14 15
7 6 22 18 15 14 14 15 15 14 13 13 14 14 14 15 14 15 16 16 17 16 15 15 13 13 13 12 14 14 12 15 18 16 15 14 12 12 10 9 8 9 10 10 15 13 13 14 16
5 16 17 18 17 15 16 16 16 14 14 13 12 13 14 14 13 13 14 14 15 16 15 15 13 12 11 13 12 13 16 17 17 15 14 14 11 10 8 8 7 8 11 11 18 12 12 15 17
4 6 21 17 17 17 17 17 16 14 13 12 13 13 11 13 12 11 13 13 14 14 15 15 14 14 15 15 13 14 15 15 15 14 15 14 11 11 10 12 11 12 13 15 18 10 14 14 16
5 8 24 21 18 19 20 21 19 17 14 13 13 12 12 13 12 11 11 12 14 14 15 16 17 17 17 17 16 15 15 14 14 15 14 12 13 13 14 18 18 20 21 17 14 20 18 16 15
7 7 20 22 22 21 21 22 20 19 16 16 17 15 13 15 14 12 13 13 13 15 15 16 19 18 18 18 16 17 17 16 16 16 14 14 14 15 18 21 20 20 17 15 17 17 17 17 18
9 10 9 19 21 20 22 21 21 20 19 18 18 18 15 15 15 13 14 14 13 14 13 15 18 19 18 18 17 17 18 17 15 14 15 15 16 15 18 19 19 20 18 17 18 17 18 20 20
12 11 13 15 24 24 22 21 19 18 16 17 17 17 16 16 15 13 13 14 13 14 13 13 15 16 17 18 18 17 17 17 15 15 15 14 15 17 17 18 20 20 21 21 21 20 21 22 21
16 12 11 12 16 19 21 22 21 20 18 17 18 18 17 17 16 14 13 14 13 12 13 12 12 13 15 17 16 17 16 16 16 16 16 15 15 16 19 21 21 20 20 20 21 22 22 21 21
15 14 15 12 25 21 21 22 22 22 21 20 21 18 18 17 16 15 13 13 12 12 12 13 11 13 14 16 16 16 16 15 15 16 15 17 17 18 19 19 19 19 18 18 19 18 18 18 19
13 13 12 12 27 28 24 20 24 24 25 23 22 18 18 18 17 15 14 13 11 10 11 11 12 11 11 12 13 13 14 13 14 15 16 17 18 17 16 16 16 16 16 16 16 16 16 16 18
15 16 17 13 23 32 28 27 26 28 28 27 24 20 20 18 17 15 14 13 11 9 9 8 10 10 10 11 12 12 12 13 12 13 15 16 15 15 14 14 13 12 13 13 12 13 12 13 13
29 22 20 18 12 23 36 28 27 28 29 28 26 23 21 20 18 17 15 13 11 10 8 8 8 8 9 10 12 11 12 11 11 11 12 15 13 12 11 11 11 10 10 9 9 10 11 12 12
35 14 19 20 18 22 25 39 35 33 32 31 29 26 24 22 19 17 15 14 12 10 9 8 8 8 7 8 9 10 11 10 10 10 11 11 11 10 9 8 7 7 8 7 7 7 9 10 10
26 27 21 17 19 15 14 35 45 35 31 32 31 29 27 24 21 19 16 15 13 11 10 9 8 7 7 6 8 8 10 10 9 9 9 8 8 6 6 5 4 4 4 6 5 5 6 8 8
19 18 19 25 11 6 12 21 25 39 35 34 32 32 28 25 22 21 19 16 15 14 12 11 10 9 6 6 7 7 7 8 8 8 8 8 7 5 4 3 2 2 2 3 6 5 4 5 7
17 33 16 14 20 8 8 4 18 24 26 30 28 27 26 25 26 25 23 20 17 15 15 13 11 10 8 8 7 7 6 5 5 6 8 8 7 6 4 2 1 1 0 2 3 4 4 3 5
28 25 33 5 9 13 13 7 8 10 2 34 27 31 25 26 27 27 24 22 20 18 17 15 13 11 11 11 9 7 6 5 16 6 7 8 8 7 5 4 3 1 2 1 1 3 3 3 3
36 32 27 22 11 10 13 7 10 14 8 7 4 18 18 29 26 26 25 24 21 19 18 17 15 13 11 11 11 10 8 7 4 4 5 3 4 5 5 4 5 5 5 3 1 1 2 3 2
35 31 26 22 19 13 12 8 15 2 5 5 2 1 7 26 28 24 22 25 23 22 21 19 19 17 14 12 12 11 10 8 6 4 1 1 4 3 4 4 4 5 5 5 4 2 1 1 1
37 29 25 14 14 15 22 17 22 11 9 9 9 5 9 4 37 31 30 28 23 23 21 23 22 20 18 15 13 13 12 9 7 5 12 12 8 3 3 3 3 3 4 4 5 4 5 4 2
25 30 27 22 13 22 10 12 28 8 11 15 14 11 12 11 9 29 25 25 21 28 29 25 24 24 21 19 18 15 14 11 10 13 9 2 7 7 5 4 3 3 3 2 4 5 6 7 6
28 18 25 27 25 10 8 13 14 24 17 13 15 15 15 14 12 31 30 28 28 28 26 24 24 24 24 22 21 20 17 15 13 11 11 19 9 8 14 9 8 6 4 3 4 4 6 7 7
37 36 27 23 23 21 13 13 21 21 10 15 17 17 16 16 16 19 26 29 29 28 23 21 24 25 23 23 24 23 22 20 18 17 14 16 17 14 15 12 10 10 7 6 6 6 7 6 7
20 26 28 20 25 24 23 27 20 16 20 20 18 19 17 17 19 29 33 36 36 31 23 30 22 23 23 23 25 25 25 24 23 22 20 18 16 14 15 14 13 12 10 9 8 9 10 9 9

GFSSGP_500_spd_108.txt.gz
Wind_Speed
7 9 10 6 6 9 7 7 7 6 8 8 9 11 11 9 13 12 10 11 12 11 13 13 13 12 11 9 9 9 9 6 7 7 5 5 5 4 4 4 4 5 6 6 6 7 8 8 8
6 6 6 5 7 7 6 7 4 7 8 8 8 10 8 8 10 11 10 8 9 10 10 10 11 11 9 8 8 7 8 7 8 7 5 5 5 4 5 5 5 6 7 7 8 8 9 9 8
8 8 11 8 10 5 4 8 6 7 9 7 8 9 7 6 6 9 6 8 9 8 8 9 10 10 10 8 7 7 6 8 8 7 6 6 5 5 5 6 7 7 7 8 8 9 10 10 10
7 9 9 20 15 8 7 9 9 8 7 8 10 9 8 6 6 9 5 9 8 9 9 10 11 11 9 8 8 7 8 9 9 11 12 13 13 12 11 9 7 8 9 9 10 10 11 12 12
4 7 4 24 16 11 9 10 10 9 8 8 10 10 10 9 9 7 7 8 10 9 9 10 11 10 9 9 8 8 10 12 12 14 14 13 12 11 11 12 12 10 11 11 11 11 12 14 13
6 6 7 8 9 11 10 11 10 9 8 8 10 10 11 12 12 10 9 10 10 11 10 10 11 10 12 12 11 11 13 14 13 14 13 11 11 10 10 11 11 10 11 11 12 12 12 14 15
8 15 22 14 18 9 10 11 11 10 9 8 10 11 10 13 12 11 13 11 17 10 11 11 11 10 12 12 12 10 13 16 12 12 12 11 10 10 9 10 11 11 12 13 12 12 14 15 16
5 5 17 13 16 12 12 13 6 10 8 8 8 9 8 10 10 8 14 11 11 9 11 12 10 10 11 13 14 18 17 14 14 13 12 11 11 10 9 10 11 13 13 16 12 14 16 17 17
3 26 12 15 16 13 14 11 12 11 9 9 7 8 8 7 8 7 10 10 11 11 11 11 12 11 12 13 14 15 14 13 13 13 13 14 12 14 11 11 14 15 13 15 12 15 17 18 17
0 23 26 20 17 17 16 15 12 12 9 12 9 8 8 7 9 9 9 11 10 12 12 13 14 14 15 14 15 14 14 13 13 8 20 15 15 21 21 19 18 15 18 16 21 19 16 18 17
7 16 21 21 15 17 17 17 13 11 12 10 10 11 9 8 11 11 13 12 12 12 13 15 16 14 15 15 16 15 16 15 16 15 20 18 22 21 24 24 19 13 13 21 24 20 18 18 16
6 11 8 23 15 19 15 16 16 14 13 10 10 11 11 9 11 11 13 13 13 12 13 15 16 16 15 15 17 16 17 14 17 19 18 17 16 14 5 22 12 16 12 17 21 20 16 17 18
8 5 5 13 20 16 16 17 16 13 12 12 11 10 11 9 10 11 12 13 13 12 12 13 15 16 16 17 15 15 17 12 16 19 18 18 16 21 20 19 22 18 13 19 21 19 19 20 19
13 9 10 16 10 16 21 19 18 17 15 13 13 11 11 10 10 11 11 12 11 12 12 12 13 13 15 17 16 17 17 13 14 19 16 17 19 22 22 26 20 22 19 21 19 20 19 20 21
14 11 9 9 12 20 20 23 22 19 18 17 16 14 12 10 10 10 10 11 11 12 12 12 12 13 16 16 16 15 16 15 13 16 23 23 22 20 18 24 22 20 19 19 17 19 18 18 18
14 13 14 16 14 18 21 23 22 22 20 20 18 16 14 13 10 11 10 9 10 11 11 12 10 9 10 13 14 14 16 17 14 14 20 22 20 19 18 18 19 18 18 15 17 13 17 19 21
20 17 17 17 18 22 22 18 25 24 23 22 22 18 17 14 12 10 10 8 8 9 11 10 10 8 9 10 11 12 16 17 16 17 16 18 17 17 15 15 15 16 15 14 14 13 11 14 16
28 35 18 23 25 25 28 27 24 26 26 25 24 22 19 17 14 11 10 9 7 7 9 10 9 9 8 9 9 10 13 15 16 16 16 16 15 14 13 10 10 14 15 11 12 11 11 10 10
23 34 20 27 17 23 29 26 29 31 31 29 26 24 22 20 17 14 11 10 9 7 7 7 8 9 8 7 7 8 9 12 13 13 13 13 13 11 10 6 5 16 14 9 9 9 6 9 6
30 33 25 12 10 19 35 36 35 30 32 33 31 29 25 23 21 17 13 11 10 10 7 7 7 7 8 7 7 7 6 7 9 10 10 10 9 8 8 6 8 12 7 7 7 6 6 6 7
23 23 25 10 12 10 23 39 38 38 29 33 33 30 29 26 21 19 17 14 12 11 10 7 6 7 8 8 6 7 7 6 7 6 6 5 5 5 5 6 6 6 4 5 4 6 4 3 5
26 15 21 23 11 8 10 19 27 42 39 35 37 34 32 28 26 22 20 17 14 13 12 10 8 7 6 6 6 5 6 7 6 5 5 4 3 3 2 2 4 4 5 4 4 4 4 3 3
26 21 21 20 20 20 17 5 5 26 43 37 35 32 33 27 24 25 22 19 16 14 13 12 9 8 7 4 6 7 5 5 13 10 4 3 5 4 2 2 1 3 3 3 4 4 4 4 4
28 23 17 12 16 9 11 12 7 4 5 36 37 35 35 34 25 26 23 23 21 19 16 14 12 9 9 9 8 7 6 8 6 8 7 3 5 5 4 2 2 2 1 1 3 3 3 4 5
19 20 14 19 22 16 16 13 14 17 14 3 31 27 32 36 32 28 25 25 22 21 19 18 16 13 10 8 9 9 10 4 5 2 2 4 6 7 5 4 2 1 2 1 1 2 2 2 2
35 21 15 14 12 16 12 12 14 4 3 5 13 7 7 20 31 33 26 23 25 24 22 21 19 16 14 11 10 12 12 10 6 7 6 14 9 8 5 4 3 3 2 1 1 1 1 2 1
16 26 21 19 18 10 17 9 6 13 14 9 10 5 5 7 5 27 28 26 29 26 23 21 22 20 16 15 13 13 13 13 12 10 7 10 9 4 1 3 4 3 3 2 2 2 2 3 3
23 11 17 25 20 13 21 26 15 6 10 12 12 10 8 11 9 10 35 30 31 23 23 19 16 20 19 16 17 17 16 14 13 13 11 14 6 4 11 6 7 6 4 3 3 2 2 3 3
35 27 24 19 18 20 22 17 8 7 15 8 12 17 14 12 11 12 25 30 28 25 26 26 28 21 22 18 19 20 20 19 16 15 13 14 11 10 15 12 10 7 6 5 7 5 4 5 4
24 25 19 22 25 25 19 32 27 19 19 15 14 13 15 18 15 12 16 28 28 32 36 29 24 20 21 21 20 20 23 23 21 20 17 17 14 14 14 14 12 10 10 9 10 9 8 8 7

GFSSGP_500_spd_111.txt.gz
Wind_Speed
7 8 4 7 7 7 10 6 7 14 14 13 6 12 14 14 14 17 13 13 14 14 15 14 13 13 12 10 9 6 8 6 3 1 3 3 2 4 4 5 4 3 5 6 7 9 10 12 13
10 6 8 5 3 11 7 6 8 8 11 10 12 9 13 13 13 11 10 11 13 12 12 12 12 11 10 8 6 6 6 6 5 4 3 5 3 5 4 4 4 5 5 6 7 8 10 12 13
8 11 8 16 2 9 5 8 4 11 9 10 9 9 12 11 8 9 8 8 13 11 11 11 11 11 9 8 8 8 8 7 6 5 5 6 5 5 5 5 5 5 6 7 8 9 11 11 13
7 7 7 13 8 7 9 5 3 13 9 7 13 11 13 9 5 10 9 10 15 11 11 10 11 10 10 8 8 8 10 9 11 12 13 12 12 11 9 7 7 8 9 9 9 10 11 12 14
6 10 22 12 10 8 8 5 8 9 11 10 15 16 12 9 9 7 13 10 13 11 11 10 10 9 8 8 8 9 11 12 12 13 14 13 13 13 12 11 11 11 10 10 10 11 12 14 16
5 2 12 7 11 9 8 5 8 6 6 10 13 16 14 12 13 11 12 9 7 8 9 11 9 9 9 9 9 11 12 13 13 12 12 12 12 12 11 11 12 13 13 11 11 13 14 16 17
7 15 18 8 10 12 8 8 9 4 6 7 9 12 12 12 12 13 12 11 8 9 10 11 11 11 12 11 11 11 12 13 13 12 12 12 11 12 11 11 13 13 14 14 14 15 16 18 18
4 13 22 11 11 15 12 8 8 8 5 7 6 8 10 11 10 10 11 9 8 11 9 12 11 12 12 15 16 14 12 12 12 12 14 12 10 11 12 13 14 13 14 13 17 19 20 20 18
6 12 23 22 10 10 10 9 7 11 7 8 7 6 6 11 7 10 10 12 11 11 11 13 12 12 13 14 16 15 14 13 12 12 12 13 11 14 16 15 14 17 16 12 15 20 23 23 19
2 21 26 21 17 8 10 20 9 5 4 12 7 7 4 9 7 11 12 13 12 13 13 15 14 14 13 13 14 14 14 12 10 14 15 14 18 23 20 22 24 22 17 18 16 17 22 23 20
8 7 9 28 21 11 13 13 8 8 8 6 5 5 5 6 9 11 13 16 15 15 15 15 15 15 14 14 16 16 16 15 19 16 13 17 23 25 23 17 20 17 20 21 17 23 23 23 20
7 8 22 27 18 13 13 11 12 14 9 8 5 4 3 7 7 12 14 14 17 14 13 17 15 16 16 15 15 16 16 18 18 16 15 11 21 27 23 10 18 18 18 20 23 20 24 21 21
6 9 6 13 18 19 15 14 11 13 9 8 8 5 4 5 9 11 13 16 15 15 13 14 16 17 17 16 14 16 16 20 17 18 17 14 20 22 21 19 21 17 18 20 21 19 23 25 21
10 5 5 5 25 21 15 21 16 13 14 11 8 8 5 6 8 11 13 15 15 15 13 14 15 15 16 17 16 15 16 13 13 16 22 20 22 24 22 26 25 20 20 22 22 19 20 22 23
13 9 6 4 14 11 16 20 20 14 14 12 11 10 7 6 7 9 13 14 15 13 13 16 16 14 13 16 16 17 17 16 12 19 22 20 22 22 22 23 24 22 21 21 20 18 18 19 21
20 12 12 10 16 24 13 22 18 18 15 14 14 11 11 8 8 9 11 12 12 13 12 13 14 13 12 14 16 17 18 17 19 20 19 20 21 21 20 19 18 20 19 17 16 15 13 13 17
15 14 15 14 16 17 19 19 18 20 19 17 16 15 14 11 8 7 10 11 9 11 12 11 11 11 12 11 13 15 18 20 19 20 19 19 17 18 18 17 15 16 15 16 14 13 10 12 15
18 23 18 15 21 21 22 21 20 25 23 21 21 19 16 15 11 9 8 9 10 8 11 11 9 10 11 11 12 13 14 17 18 16 17 16 16 16 17 15 13 12 13 14 15 9 11 9 11
16 21 30 26 24 20 24 26 23 27 28 26 24 23 19 18 15 12 10 8 10 9 10 11 10 9 10 9 11 11 11 14 17 16 16 13 13 15 13 11 9 10 10 10 10 13 9 8 10
21 22 22 31 15 35 26 29 24 24 26 29 27 26 24 22 20 16 13 10 9 9 9 8 9 10 9 9 9 10 11 10 12 13 12 13 12 12 10 11 11 9 10 9 7 9 10 7 7
9 26 19 25 23 9 27 31 27 30 24 29 28 27 26 25 23 18 16 14 12 11 11 9 7 8 8 8 8 5 7 8 7 8 7 7 7 10 9 9 9 10 9 8 7 7 6 6 4
19 19 13 12 23 10 13 35 29 33 27 31 32 30 27 25 24 22 19 15 14 12 12 12 9 8 6 5 6 6 5 6 4 5 5 4 3 5 6 7 7 7 8 7 7 7 5 3 2
33 27 19 7 5 22 4 7 20 40 32 31 30 33 31 27 27 23 22 20 17 15 14 12 11 10 7 5 6 5 4 3 7 6 8 7 5 3 3 4 5 5 6 5 7 6 3 3 1
26 13 3 6 3 12 11 5 3 11 9 43 39 33 32 27 26 25 25 22 21 18 17 15 13 12 10 9 7 5 5 4 4 3 14 5 5 5 4 5 4 4 4 4 5 6 4 3 2
15 16 4 4 6 8 10 7 5 5 13 3 40 34 30 26 26 27 29 25 25 21 19 16 14 13 12 10 9 8 6 6 2 6 4 4 4 4 4 4 5 5 5 4 3 4 4 3 1
23 10 6 6 13 17 11 11 8 8 7 6 8 36 32 28 31 31 28 25 24 23 20 20 18 15 12 10 9 9 9 8 6 4 2 5 6 4 4 5 4 4 4 5 5 5 5 4 1
22 24 20 16 18 9 14 21 15 10 9 4 7 30 14 9 21 34 33 26 27 25 24 24 22 20 17 14 11 10 7 10 7 8 6 7 7 8 8 7 5 3 3 4 5 4 4 3 2
23 14 19 25 17 8 9 12 16 11 14 18 10 4 6 10 2 36 32 31 29 24 29 27 25 21 19 18 17 15 13 12 11 10 8 8 9 12 15 7 5 4 3 3 3 4 4 4 3
28 23 22 29 26 15 15 15 20 14 25 20 24 20 11 8 10 9 15 31 29 26 28 26 28 24 24 22 21 20 19 17 15 13 10 9 7 6 5 8 5 6 6 6 4 5 5 5 5
28 28 22 19 21 16 17 19 22 23 21 24 22 23 25 20 17 17 14 20 33 38 33 27 28 27 24 23 23 20 20 18 17 16 13 12 12 10 10 12 9 10 9 9 8 9 9 8 7

GFSSGP_500_spd_114.txt.gz
Wind_Speed
6 4 3 6 8 4 13 14 14 15 15 13 14 16 18 15 18 19 15 15 15 16 15 14 12 11 11 11 10 8 5 6 4 4 3 5 4 7 7 6 7 9 10 10 10 10 13 14 16
7 14 4 6 4 5 12 14 12 13 12 12 13 15 14 15 13 16 14 12 12 12 13 13 12 11 9 8 8 8 6 5 4 3 4 6 5 7 8 8 8 8 10 11 11 11 12 14 15
6 9 6 3 2 7 11 12 13 17 14 10 13 12 11 13 12 13 11 9 10 11 11 11 11 10 9 8 8 8 8 7 6 5 6 5 5 6 8 8 9 8 9 11 11 12 13 15 16
5 4 2 14 3 3 7 12 12 15 15 13 11 10 10 9 13 10 12 9 10 11 11 10 9 9 9 9 9 8 8 9 9 10 11 10 9 10 10 10 10 9 10 11 12 13 15 16 17
7 3 11 13 4 4 12 10 11 14 12 11 11 11 11 9 13 11 10 9 9 11 11 10 9 8 9 10 10 11 12 12 13 15 14 14 13 13 12 12 11 11 11 11 13 15 17 19 19
5 2 12 6 10 5 10 10 11 11 11 9 14 15 12 14 11 11 11 10 11 11 11 10 9 10 10 12 12 12 12 12 12 12 11 11 12 12 13 14 14 13 13 12 13 16 18 21 20
5 12 15 9 6 6 7 6 10 9 8 11 11 16 14 16 12 11 13 12 11 10 10 11 12 12 11 12 12 12 12 10 9 9 9 9 11 12 12 14 15 15 14 15 16 17 19 20 20
5 12 16 10 10 8 6 8 7 7 9 11 10 14 14 10 12 12 8 11 12 13 12 13 13 14 12 12 12 12 11 9 8 8 7 8 10 10 12 15 16 16 17 17 17 17 19 21 20
7 3 17 11 12 9 5 5 5 6 6 8 13 11 11 11 9 10 14 15 14 13 13 14 14 16 16 16 14 11 11 10 9 9 8 6 8 11 13 14 20 18 21 21 21 21 20 18 18
8 7 19 13 12 11 13 9 6 4 5 9 13 8 11 11 11 10 14 16 15 13 15 14 15 16 15 14 13 12 12 13 12 13 13 12 15 14 13 15 18 16 20 23 23 23 22 18 16
5 6 19 23 11 8 12 10 5 7 7 12 12 10 9 11 12 10 14 15 14 15 15 16 16 16 17 15 16 17 19 18 19 14 15 19 20 15 24 21 19 18 19 22 26 25 22 19 17
6 5 1 16 15 12 11 9 6 8 3 9 10 8 10 10 12 16 14 15 15 15 14 16 17 17 18 16 17 18 17 19 18 14 15 22 20 17 18 21 20 18 14 25 28 28 25 20 20
8 6 14 26 24 20 14 11 11 8 5 6 10 10 7 13 13 15 15 13 16 15 16 14 15 16 19 17 16 13 18 22 15 18 24 22 20 17 20 20 21 20 21 23 26 27 26 23 21
8 12 7 28 31 18 13 11 9 12 12 7 7 9 8 11 13 13 14 15 16 16 15 13 12 14 16 17 16 11 15 19 18 19 24 25 21 20 22 24 23 21 17 18 19 21 23 23 22
12 3 6 24 20 14 17 13 11 14 10 8 8 7 12 6 9 11 12 15 16 16 17 12 12 11 14 15 14 14 12 17 19 19 22 23 22 24 26 26 24 23 20 21 20 17 17 19 20
17 14 9 15 17 15 12 13 15 13 12 11 9 9 10 8 9 10 12 13 15 17 17 14 15 13 13 12 11 14 18 19 21 19 19 22 20 22 22 21 19 20 21 18 20 19 17 17 17
21 21 16 10 15 18 16 12 19 19 19 14 12 11 11 10 9 8 12 13 12 14 13 13 15 13 12 13 10 14 16 18 16 18 18 19 20 19 17 20 19 14 17 16 14 13 15 14 15
15 9 13 21 19 17 26 17 25 23 21 18 15 15 13 13 11 8 10 12 14 13 14 14 16 14 12 12 12 12 14 16 13 14 15 15 15 15 17 16 17 18 16 16 15 11 11 13 11
17 22 26 22 24 32 26 24 20 23 28 23 20 17 15 16 14 12 10 10 13 12 12 13 14 14 13 12 13 13 11 13 12 12 13 11 12 12 11 15 14 13 13 16 15 11 11 10 9
22 14 16 23 24 23 28 27 25 27 29 25 22 19 19 17 15 12 10 9 9 12 11 11 13 12 13 12 13 13 14 10 10 9 9 9 9 10 11 11 11 10 11 12 13 12 9 10 8
25 19 16 14 16 20 22 36 28 27 26 25 23 21 22 20 18 16 13 13 11 10 12 12 12 11 11 12 11 10 12 10 9 8 6 4 6 8 8 8 7 8 8 9 11 9 8 9 8
40 16 6 15 12 23 24 20 39 35 31 23 24 23 22 22 20 20 15 13 12 11 12 13 12 12 11 11 9 11 10 10 9 6 5 4 3 4 5 8 6 7 6 5 8 9 7 5 8
23 18 4 10 6 12 11 11 27 38 34 24 21 23 25 24 22 22 20 17 16 16 13 13 12 12 13 12 10 10 8 7 7 5 4 4 5 5 1 1 5 6 5 5 5 5 5 3 6
19 22 10 9 9 10 9 7 20 27 30 35 36 27 27 27 24 22 22 21 19 16 15 12 13 11 11 11 9 8 7 8 4 3 7 5 6 6 6 5 4 5 5 5 5 3 3 2 3
27 13 13 3 7 4 6 10 8 5 5 19 36 27 25 29 26 23 19 20 20 18 18 16 14 13 12 12 11 10 7 8 7 6 4 6 7 6 5 4 6 6 6 6 6 5 4 3 1
17 13 16 9 5 2 7 3 6 3 7 1 23 39 31 29 27 28 28 25 23 22 21 19 17 16 16 14 13 12 11 9 6 6 4 5 8 5 6 7 6 6 5 6 7 7 4 4 2
21 15 20 7 3 3 6 10 12 8 3 2 15 36 36 25 27 28 30 23 26 29 28 23 22 18 18 17 14 12 12 12 11 10 6 4 3 2 6 8 7 7 7 8 7 8 9 7 5
23 21 19 20 15 9 6 3 4 4 10 4 2 38 36 26 21 23 29 29 27 26 26 26 24 23 22 20 17 14 13 13 13 11 10 10 9 11 11 10 9 6 5 6 6 6 7 8 9
23 21 17 19 17 17 17 7 6 8 6 9 7 18 30 28 21 14 20 28 34 26 25 27 27 24 24 23 21 19 17 15 14 11 10 10 9 10 12 13 10 8 7 8 8 7 7 7 8
28 23 23 23 21 20 20 16 12 13 10 10 3 19 17 17 16 13 11 21 31 28 29 23 29 26 26 24 22 23 19 19 18 16 14 13 12 10 11 11 10 10 10 11 10 10 9 9 9

GFSSGP_500_spd_117.txt.gz
Wind_Speed
10 13 2 7 8 8 13 15 15 14 11 14 15 14 18 15 20 19 15 14 13 13 10 10 10 11 12 11 11 8 8 6 7 5 7 8 8 8 9 10 11 12 12 13 13 15 15 15 16
8 8 1 5 10 10 13 14 17 12 11 11 15 13 16 16 15 17 12 11 12 12 10 9 9 8 8 8 7 6 5 5 5 8 8 7 8 10 10 11 12 13 13 13 13 16 16 17 17
8 9 7 4 8 11 14 14 16 12 10 10 11 12 12 14 13 16 10 9 9 10 10 9 8 7 8 8 7 6 5 4 3 5 6 7 8 9 10 11 12 13 14 14 15 16 18 18 18
10 7 5 1 6 10 13 17 17 12 9 10 9 10 10 10 12 13 11 8 9 11 11 9 8 9 8 8 7 7 6 6 6 6 6 6 7 9 10 10 12 12 14 15 16 16 18 19 19
10 6 8 2 3 6 13 16 14 13 14 13 12 11 9 11 10 11 12 11 9 12 12 10 10 11 11 11 10 10 10 10 11 11 11 11 11 11 11 12 13 13 14 14 15 16 18 20 20
8 4 1 3 1 5 9 11 14 11 14 13 13 11 9 9 9 11 10 10 9 12 14 12 12 13 13 14 13 12 11 10 10 10 9 9 11 13 13 13 14 14 14 15 17 18 19 19 20
7 6 9 10 4 8 10 10 11 8 12 11 10 10 11 10 8 12 10 10 11 11 13 13 14 15 15 15 14 12 10 10 9 8 8 7 10 13 15 16 16 15 15 17 20 20 20 19 18
5 4 18 7 4 8 9 7 9 8 11 12 6 10 10 9 10 11 11 12 12 12 13 14 14 12 14 13 12 12 12 12 10 8 7 9 10 12 13 16 17 17 19 20 21 23 21 21 19
8 11 17 10 9 11 11 7 8 11 10 13 9 7 12 10 9 11 12 13 12 14 13 15 17 17 13 14 12 12 12 11 9 8 7 11 11 12 15 14 15 17 17 21 25 24 21 22 22
9 11 20 10 11 10 10 12 8 9 9 12 10 9 11 12 12 14 14 15 14 14 15 15 15 15 14 12 11 11 11 11 12 13 17 16 14 15 17 15 15 17 19 20 24 23 21 20 22
8 11 15 13 12 10 12 7 7 10 11 10 9 11 11 10 16 16 16 17 16 15 16 16 15 15 14 12 16 15 14 16 16 21 20 18 16 18 19 15 17 19 20 22 23 24 23 21 22
11 4 9 16 11 9 11 8 8 13 10 11 9 14 13 9 14 15 16 17 18 16 16 17 15 15 17 15 18 17 15 15 18 20 19 19 19 17 15 18 19 21 24 22 23 22 22 22 22
14 7 5 17 17 13 10 12 6 13 9 10 10 14 14 10 11 13 16 16 19 16 16 16 15 16 16 17 17 17 16 17 17 17 18 17 15 16 15 16 16 22 22 21 23 21 21 21 21
15 12 16 17 25 16 12 6 8 8 7 8 9 11 15 11 10 12 16 16 16 16 18 17 14 14 14 20 15 17 18 22 20 19 20 20 19 18 16 19 18 22 19 19 18 18 16 17 19
15 11 9 22 24 20 12 12 14 14 10 10 9 9 12 12 9 12 13 15 14 15 18 17 15 13 13 14 14 13 16 23 21 22 23 24 23 22 20 19 18 20 19 18 16 15 16 16 15
16 9 9 23 29 22 16 14 17 16 12 16 13 11 10 12 7 10 11 13 15 15 16 18 15 14 13 15 16 17 16 20 20 20 20 21 22 22 20 19 18 19 19 17 15 14 15 16 14
19 18 8 28 23 25 16 14 18 16 16 15 16 15 13 12 8 9 11 13 15 15 15 16 15 13 14 16 16 15 17 18 16 16 17 17 18 19 18 15 15 18 16 14 14 13 13 12 12
23 20 13 11 21 30 17 17 17 22 18 16 17 17 16 13 12 10 9 12 15 13 11 13 14 14 12 15 15 16 16 16 14 12 12 13 16 17 16 15 15 15 15 14 12 10 9 8 8
21 21 13 14 13 27 24 18 17 21 19 16 17 17 16 12 12 10 9 9 12 13 13 13 14 16 12 13 15 14 13 14 13 11 11 10 11 14 14 14 14 12 13 13 15 14 10 10 9
24 23 15 19 15 14 22 31 20 24 21 18 17 17 18 15 13 12 10 11 11 12 13 13 13 16 15 15 14 16 15 13 12 9 10 8 9 11 12 12 13 11 11 9 12 13 12 12 10
23 26 16 11 15 18 25 23 24 26 23 22 21 19 18 19 17 14 13 12 11 12 12 13 13 14 14 14 14 13 13 12 11 9 9 7 6 7 9 8 9 8 8 9 9 10 11 8 8
20 25 24 13 13 13 17 16 18 40 23 24 27 22 21 19 20 16 14 12 10 12 10 10 12 12 13 12 13 14 13 12 9 7 6 6 5 5 5 5 5 6 6 6 6 6 8 8 8
23 22 13 15 7 8 11 20 19 25 39 26 27 25 21 23 21 21 17 14 11 10 11 10 9 10 10 12 10 8 10 10 8 7 6 4 3 3 5 3 3 2 3 4 5 4 5 5 5
30 26 28 7 6 3 7 12 17 23 31 23 22 23 26 23 23 26 21 17 14 10 11 12 11 10 10 10 11 8 8 8 8 7 7 6 6 5 4 4 5 3 2 2 4 3 4 4 5
30 28 27 4 9 9 10 5 7 16 33 37 28 25 23 27 28 27 23 19 15 14 14 14 13 12 11 10 9 9 9 7 7 8 6 7 6 6 6 5 5 5 5 4 5 5 5 4 3
21 15 25 11 11 7 5 5 3 9 23 24 31 34 32 29 30 29 27 23 23 21 18 15 14 13 12 11 11 9 9 9 7 4 5 4 4 4 6 7 6 7 8 8 6 6 5 5 6
14 10 15 17 11 4 1 7 8 1 7 5 10 22 35 38 37 32 31 26 25 22 20 19 16 14 14 13 12 12 12 10 8 7 5 2 6 6 4 7 6 7 8 9 9 8 7 7 7
19 17 17 22 11 6 2 5 2 5 5 9 12 17 25 43 35 35 33 29 28 26 24 22 18 18 16 15 13 13 13 14 11 11 10 8 10 10 11 12 10 8 7 8 7 7 7 8 7
26 25 23 22 16 13 8 4 4 3 7 12 11 12 18 51 34 28 30 29 28 26 27 25 24 23 21 19 18 17 17 15 14 14 15 13 12 11 11 10 11 11 11 10 9 7 7 7 7
26 25 28 25 22 19 18 11 12 12 10 12 5 17 12 27 25 28 22 27 31 30 29 24 26 26 26 23 22 20 19 20 20 18 17 15 13 12 10 10 14 13 12 11 11 10 10 10 9

GFSSGP_500_spd_120.txt.gz
Wind_Speed
12 9 8 10 11 10 11 13 11 11 13 12 13 12 17 17 20 21 15 12 11 13 12 12 12 12 12 13 14 13 12 11 9 8 8 8 8 10 11 11 13 15 15 16 15 15 16 18 18
11 10 11 9 11 13 12 11 11 10 10 9 12 10 13 15 16 18 16 13 10 11 11 11 10 10 10 10 11 9 9 10 10 10 8 9 10 12 12 13 14 14 15 16 16 17 17 16 19
10 7 6 8 10 9 12 10 11 10 9 8 9 9 9 11 11 16 13 11 8 9 10 9 9 10 11 11 10 8 8 8 9 8 8 8 10 12 13 13 14 14 15 16 16 17 18 17 18
11 5 4 7 9 9 10 11 15 12 9 9 8 9 10 11 10 12 12 8 7 8 9 10 10 10 10 11 11 11 11 10 8 7 7 7 10 11 12 13 13 12 14 15 15 16 17 16 18
10 12 9 11 8 8 9 12 18 17 13 11 10 9 10 12 11 12 11 9 6 7 10 11 11 11 12 13 14 15 14 13 12 12 11 11 12 14 14 14 14 13 13 14 15 16 17 18 18
8 8 9 11 7 5 8 11 15 16 14 11 11 12 12 10 9 12 10 9 8 7 10 12 13 14 15 16 15 14 13 12 12 11 11 12 13 15 15 15 15 16 17 17 17 19 18 19 19
7 10 5 6 4 4 7 10 13 13 13 13 11 11 14 12 10 11 10 11 9 9 11 13 16 17 16 16 14 13 12 11 10 10 11 13 15 16 16 17 15 16 17 19 20 20 20 20 19
6 6 10 4 1 5 9 12 14 12 9 9 13 8 13 13 11 12 11 12 12 13 14 14 18 17 16 15 14 12 11 11 10 10 12 14 17 17 17 17 16 17 17 19 21 20 21 20 20
8 10 7 1 4 6 8 11 14 8 6 8 13 9 11 12 10 12 12 13 14 16 16 18 18 18 16 14 12 10 9 10 10 10 14 16 16 18 16 17 17 19 20 21 21 19 19 20 19
8 12 8 7 6 8 6 7 13 9 7 7 10 10 9 14 13 13 14 16 16 16 16 18 18 17 15 12 10 9 11 12 9 11 14 15 14 16 17 16 16 19 22 21 19 19 19 19 19
5 9 7 12 10 8 14 9 10 11 9 8 9 10 11 12 12 15 15 17 18 17 16 17 17 17 17 15 14 16 14 13 15 17 14 13 14 13 16 16 18 20 21 23 20 19 19 18 19
6 5 6 15 15 12 10 9 10 9 10 10 10 12 14 13 11 15 16 18 19 18 17 18 18 20 19 17 16 16 17 15 18 18 18 19 17 15 17 18 20 23 23 21 20 20 18 18 18
9 8 3 10 15 13 12 11 13 11 10 10 10 11 15 15 14 16 15 19 20 17 17 17 17 19 18 17 17 17 15 14 15 15 14 15 16 19 15 18 22 22 19 19 19 19 17 17 18
11 12 12 12 17 15 12 12 16 10 9 10 10 11 12 13 15 14 15 17 20 19 18 18 18 18 19 19 20 19 19 18 19 16 18 18 21 20 19 22 20 20 19 18 17 16 16 17 16
17 18 18 16 20 18 14 11 14 11 7 11 13 9 10 13 13 12 12 15 17 18 18 18 19 17 12 14 20 21 22 24 23 18 17 19 18 19 21 24 21 16 17 16 14 15 15 13 13
18 21 17 20 24 26 17 13 13 13 13 12 15 11 9 12 12 13 11 14 17 16 17 17 19 18 14 14 19 20 22 22 21 19 18 19 17 18 19 20 19 18 16 14 13 13 13 13 12
21 19 14 19 23 28 16 18 19 17 15 14 15 15 12 13 13 10 11 13 16 16 16 17 18 16 17 19 20 21 19 18 18 18 17 16 16 17 19 18 17 17 15 13 12 10 10 9 9
22 21 19 19 22 32 22 17 18 20 18 17 15 16 14 13 13 11 11 12 14 13 15 16 17 17 15 16 20 19 18 16 15 15 14 16 14 13 15 15 15 15 15 13 11 9 8 7 6
18 22 17 7 18 27 26 26 19 22 21 20 16 17 15 13 14 12 12 12 11 11 12 13 14 18 17 15 18 17 13 14 13 13 13 12 12 13 13 14 11 11 12 13 11 10 7 5 6
18 21 19 18 10 19 27 19 20 18 22 21 18 18 16 15 15 13 12 13 11 12 12 13 12 16 19 17 15 15 14 11 10 12 12 11 12 12 13 12 12 10 9 9 10 11 11 9 7
19 25 19 15 11 18 14 20 26 20 20 24 22 21 18 18 17 14 13 12 12 13 12 11 11 14 16 18 16 14 14 12 11 11 10 10 9 9 10 9 9 8 8 7 6 6 8 9 8
19 23 19 20 12 8 10 10 18 27 25 23 19 22 21 18 16 16 14 13 12 12 13 12 10 11 13 14 15 14 13 11 10 8 8 9 9 8 8 7 6 5 5 4 5 4 5 6 6
21 20 21 17 18 16 15 13 17 23 29 26 16 26 23 21 19 16 16 14 14 13 11 11 12 10 9 11 11 9 8 8 8 6 3 3 5 5 5 7 6 7 5 5 4 4 5 5 5
24 18 17 14 11 12 13 13 18 17 19 22 17 27 26 24 23 22 20 16 14 14 14 11 10 10 10 9 10 9 8 8 7 7 6 5 3 3 2 2 4 5 6 7 6 4 4 4 5
22 17 16 17 12 11 9 8 13 21 16 24 29 23 28 26 27 25 21 17 15 16 15 14 12 10 9 9 9 8 9 9 8 8 6 4 3 3 4 4 5 5 5 5 7 7 5 4 4
16 14 15 20 16 16 5 12 8 8 12 26 32 29 26 28 28 28 25 24 23 20 18 15 13 13 12 10 10 8 9 7 7 8 5 5 5 3 3 4 5 6 7 7 7 7 6 5 5
11 13 18 17 20 11 11 9 6 8 14 24 28 34 31 33 30 25 28 29 28 23 20 18 17 15 14 13 12 11 10 9 7 8 7 6 8 8 4 2 4 5 5 5 5 6 7 8 8
18 19 17 18 18 7 8 8 7 6 4 10 9 16 22 31 37 37 35 32 30 26 24 21 19 18 16 14 13 13 13 11 11 11 10 8 8 9 8 8 8 6 6 6 4 5 7 7 7
25 23 17 15 16 17 3 2 3 3 4 5 4 8 12 9 37 38 38 36 33 31 29 26 22 20 18 17 16 16 15 13 12 13 14 12 12 12 12 13 11 9 8 8 6 6 6 7 7
26 25 25 22 18 17 14 10 8 7 5 3 4 8 15 12 32 42 38 36 33 31 29 28 24 23 21 22 21 20 18 17 17 16 15 16 16 16 14 14 12 10 11 10 10 10 10 9 7

GFSSGP_500_spd_123.txt.gz
Wind_Speed
14 14 12 12 9 10 8 7 10 13 12 11 14 13 18 19 19 19 14 14 15 14 13 13 13 13 15 21 21 19 18 17 16 13 11 10 11 11 10 12 13 13 14 14 14 15 17 17 16
12 13 11 11 7 8 8 8 9 10 9 11 12 12 15 16 16 17 16 15 12 11 10 10 12 12 14 15 16 16 15 14 14 13 12 12 13 13 14 13 15 16 14 15 15 14 15 15 15
9 7 5 9 6 8 9 9 9 8 7 9 9 8 11 12 13 16 15 13 10 10 10 10 12 12 12 13 13 13 14 13 13 13 13 12 13 13 14 15 15 15 15 15 17 16 16 15 18
11 7 9 9 6 9 12 12 11 10 8 8 8 7 9 10 11 13 15 12 11 9 11 12 14 13 13 13 13 12 13 13 13 12 12 13 13 14 14 15 16 15 15 16 17 16 16 16 17
11 10 9 8 8 10 12 13 13 12 10 8 8 7 8 10 9 12 14 12 9 8 9 11 13 14 15 17 16 16 15 16 15 14 13 13 14 15 15 16 16 16 15 16 17 16 16 17 17
7 6 7 7 8 8 9 12 12 13 14 13 10 8 9 10 8 11 12 11 10 9 9 12 15 16 17 18 17 16 15 14 15 15 14 14 14 15 15 15 16 16 16 15 15 15 15 16 16
7 10 8 8 8 5 7 11 11 15 17 14 13 8 11 13 11 11 11 11 11 10 11 13 16 16 17 16 14 13 11 11 12 13 14 15 15 16 17 16 17 17 16 16 16 15 16 15 15
4 3 4 5 7 4 7 8 10 15 15 13 10 7 10 13 12 10 12 11 11 12 13 15 16 16 16 15 13 13 11 10 12 14 15 15 14 14 16 17 17 17 17 18 17 17 17 15 15
4 4 4 6 2 6 6 4 9 15 15 13 10 10 11 12 11 10 13 13 14 13 16 15 15 15 14 13 12 11 9 8 10 14 16 16 15 15 16 17 18 18 19 20 18 17 17 16 16
3 6 8 2 4 7 5 4 10 14 15 13 11 11 12 13 13 13 13 16 16 16 18 16 15 14 13 12 12 11 9 9 11 13 14 16 16 15 16 17 18 19 20 18 17 18 17 17 16
3 6 4 6 7 9 7 4 7 13 13 14 11 11 13 12 14 15 15 16 16 16 17 16 16 17 19 18 16 14 14 16 16 13 14 17 16 15 16 18 19 22 21 17 17 17 15 15 16
4 3 2 12 8 9 9 4 10 12 11 14 12 12 14 14 13 16 15 17 17 17 18 20 21 21 20 17 16 18 20 19 19 18 16 15 18 15 17 20 21 21 22 17 18 16 15 15 15
6 5 7 14 14 14 9 6 12 11 12 12 13 11 11 13 14 15 15 16 17 18 19 21 20 20 18 16 15 16 18 18 17 18 19 18 17 18 19 22 23 21 18 18 19 17 15 15 13
10 10 8 7 12 16 16 9 9 9 12 11 13 13 13 12 12 14 15 16 17 18 18 20 21 22 20 19 20 20 20 19 17 18 18 18 17 20 23 23 22 20 19 18 17 16 16 15 13
14 13 14 14 19 20 16 14 13 12 10 11 13 14 16 13 11 13 15 16 18 19 19 19 18 18 19 21 21 21 18 20 19 18 19 20 21 25 25 21 20 18 17 16 15 15 14 13 12
19 17 20 20 14 20 18 17 17 13 10 10 11 14 15 13 11 11 14 14 17 18 18 17 16 17 19 20 21 21 20 19 19 18 16 18 23 27 25 22 19 17 16 14 12 11 10 9 7
19 21 22 24 17 18 21 21 20 15 10 11 11 14 17 16 15 12 12 14 15 19 18 18 17 19 20 19 20 20 20 18 19 18 18 19 19 19 19 19 18 17 15 13 11 9 7 5 4
25 24 21 22 19 20 27 24 22 16 12 14 14 14 16 16 16 15 14 14 15 16 18 20 19 22 22 20 18 20 19 16 18 17 15 16 16 16 16 16 16 15 15 12 10 9 7 6 4
24 22 20 19 8 27 29 25 20 21 20 15 15 15 15 15 15 16 15 13 13 15 15 17 19 21 22 20 18 16 15 14 15 15 14 15 13 12 14 14 14 14 13 11 11 9 8 7 4
25 19 14 12 12 23 26 24 26 27 22 17 19 17 15 14 15 14 13 13 13 14 15 16 17 19 21 20 19 17 16 14 12 12 13 14 14 12 12 12 12 11 10 9 10 10 8 8 6
23 17 18 14 10 8 23 27 29 30 19 23 22 20 17 18 15 16 14 13 14 13 13 15 15 15 18 18 16 16 16 14 12 12 12 13 12 13 13 11 9 9 8 7 7 7 6 6 5
20 15 20 16 13 8 18 25 32 28 20 29 25 21 20 19 17 13 16 14 14 13 12 12 12 13 13 14 15 14 14 13 10 10 10 10 10 10 10 10 9 9 8 6 5 5 5 4 4
21 25 14 20 17 15 9 8 21 33 21 29 26 24 23 23 21 17 14 15 14 13 12 12 13 12 13 13 12 11 11 12 11 9 8 6 7 7 8 6 5 5 6 5 5 5 5 5 5
22 16 17 12 13 13 11 9 9 13 16 27 33 31 28 25 24 22 18 14 14 13 13 12 12 12 12 12 12 13 12 10 9 8 8 8 7 6 5 5 4 3 4 4 4 4 5 6 6
21 16 14 11 12 12 10 10 12 18 19 25 28 30 32 27 27 24 18 16 14 15 16 15 13 12 12 12 11 10 9 10 9 8 6 7 6 6 6 6 6 5 4 5 5 5 5 5 5
18 12 12 16 16 11 10 15 14 17 26 22 23 31 34 31 30 25 23 20 19 18 17 18 16 15 14 12 10 9 8 7 5 8 7 7 7 7 7 5 5 5 6 7 6 6 6 7 6
18 15 14 17 16 16 12 15 16 17 20 29 32 30 35 34 29 28 28 27 24 22 22 21 20 18 16 15 13 11 10 8 7 7 8 8 8 8 7 6 5 4 5 7 8 9 9 8 8
22 20 18 14 12 14 20 14 9 9 11 12 35 39 29 31 35 34 32 30 29 27 26 25 22 21 20 17 15 14 12 10 9 8 7 7 5 8 9 4 6 7 6 6 8 9 10 11 12
23 20 19 17 15 15 6 7 10 11 7 9 22 23 21 26 30 36 34 34 31 32 30 28 26 24 22 21 19 17 15 12 11 10 9 9 8 9 11 10 9 10 11 9 8 8 10 11 10
24 23 20 16 15 19 15 7 6 4 6 6 11 4 5 8 13 29 39 40 32 34 33 30 30 26 24 23 21 20 18 16 15 14 13 12 12 12 12 12 11 10 13 11 12 12 12 11 11